[[{"header":{"parameterUnit":"m.s-1","parameterCategory":1,"la1":31.0,"la2":29.5877,"lo1":-88.7671,"lo2":-86.6584,"dy":0.0162,"dx":0.0185,"nx":115,"ny":88,"refTime":"2023-07-21T06:00:00:Z","depth":0,"parameterNumber":2,"parameterNumberName":"U-component_of_WINDS"},"data":[0.0,0.0,0.0,0.0,0.0,0.0,0.0,0.0,0.0,0.0,0.0,0.0,0.0,0.0,0.0,0.0,0.0,0.0,0.0,0.0,0.0,0.0,0.0,0.0,0.0,0.0,0.0,0.0,0.0,0.0,0.0,0.0,0.0,0.0,0.0,0.0,0.0,0.0,0.0,0.0,0.0,0.0,0.0,0.0,0.0,0.0,0.0,0.0,0.0,0.0,0.0,0.0,0.0,0.0,0.0,0.0,0.0,0.0,0.0,0.0,0.0,0.0,0.0,0.0,0.0,0.0,0.0,0.0,0.0,0.0,0.0,0.0,0.0,0.0,0.0,0.0,0.0,0.0,0.0,0.0,0.0,0.0,0.0,0.0,0.0,0.0,0.0,0.0,0.0,0.0,0.0,0.0,0.0,0.0,0.0,0.0,0.0,0.0,0.0,0.0,0.0,0.0,0.0,0.0,0.0,0.0,0.0,0.0,0.0,0.0,0.0,0.0,0.0,0.0,0.0,0.0,0.0,0.0,0.0,0.0,0.0,0.0,0.0,0.0,0.0,0.0,0.0,0.0,0.0,0.0,0.0,0.0,0.0,0.0,0.0,0.0,0.0,0.0,0.0,0.0,0.0,0.0,0.0,0.0,0.0,0.0,0.0,0.0,0.0,0.0,0.0,0.0,0.0,0.0,0.0,0.0,0.0,0.0,0.0,0.0,0.0,0.0,0.0,0.0,0.0,0.0,0.0,0.0,0.0,0.0,0.0,0.0,0.0,0.0,0.0,0.0,0.0,0.0,0.0,0.0,0.0,0.0,0.0,0.0,0.0,0.0,0.0,0.0,0.0,0.0,0.0,0.0,0.0,0.0,0.0,0.0,0.0,0.0,0.0,0.0,0.0,0.0,0.0,0.0,0.0,0.0,0.0,0.0,0.0,0.0,0.0,0.0,0.0,0.0,0.0,0.0,0.0,0.0,0.0,0.0,0.0,0.0,0.0,0.0,0.0,0.0,0.0,0.0,0.0,0.0,0.0,0.0,0.0,0.0,0.0,0.0,0.0,0.0,0.0,0.0,0.0,0.0,0.0,0.0,0.0,0.0,0.0,0.0,0.0,0.0,0.0,0.0,0.0,0.0,0.0,0.0,0.0,0.0,0.0,0.0,0.0,0.0,0.0,0.0,0.0,0.0,0.0,0.0,0.0,0.0,0.0,0.0,0.0,0.0,0.0,0.0,0.0,0.0,0.0,0.0,0.0,0.0,0.0,0.0,0.0,0.0,0.0,0.0,0.0,0.0,0.0,0.0,0.0,0.0,0.0,0.0,0.0,0.0,0.0,0.0,0.0,0.0,0.0,0.0,0.0,0.0,0.0,0.0,0.0,0.0,0.0,0.0,0.0,0.0,0.0,0.0,0.0,0.0,0.0,0.0,0.0,0.0,0.0,0.0,0.0,0.0,0.0,0.0,0.0,0.0,0.0,0.0,0.0,0.0,0.0,0.0,0.0,0.0,0.0,0.0,0.0,0.0,0.0,0.0,0.0,0.0,0.0,0.0,0.0,0.0,0.0,0.0,0.0,0.0,0.0,0.0,0.0,0.0,0.0,0.0,0.0,0.0,0.0,0.0,0.0,0.0,0.0,0.0,0.0,0.0,0.0,0.0,0.0,0.0,0.0,0.0,0.0,0.0,0.0,0.0,0.0,0.0,0.0,0.0,0.0,0.0,0.0,0.0,0.0,0.0,0.0,0.0,0.0,0.0,0.0,0.0,0.0,0.0,0.0,0.0,0.0,0.0,0.0,0.0,0.0,0.0,0.0,0.0,0.0,0.0,0.0,0.0,0.0,0.0,0.0,0.0,0.0,0.0,0.0,0.0,0.0,0.0,0.0,0.0,0.0,0.0,0.0,0.0,0.0,0.0,0.0,0.0,0.0,0.0,0.0,0.0,0.0,0.0,0.0,0.0,0.0,0.0,0.0,0.0,0.0,0.0,0.0,0.0,0.0,0.0,0.0,0.0,0.0,0.0,0.0,0.0,0.0,0.0,0.0,0.0,0.0,0.0,0.0,0.0,0.0,0.0,0.0,0.0,0.0,0.0,0.0,0.0,0.0,0.0,0.0,0.0,0.0,0.0,0.0,0.0,0.0,0.0,0.0,0.0,0.0,0.0,0.0,0.0,0.0,0.0,0.0,0.0,0.0,0.0,0.0,0.0,0.0,0.0,0.0,0.0,0.0,0.0,0.0,0.0,0.0,0.0,0.0,0.0,0.0,0.0,0.0,0.0,0.0,0.0,0.0,0.0,0.0,0.0,0.0,0.0,0.0,0.0,0.0,0.0,0.0,0.0,0.0,0.0,0.0,0.0,0.0,0.0,0.0,0.0,0.0,0.0,0.0,0.0,0.0,0.0,0.0,0.0,0.0,0.0,0.0,0.0,0.0,0.0,0.0,0.0,0.0,0.0,0.0,0.0,0.0,0.0,0.0,0.0,0.0,0.0,0.0,0.0,0.0,0.0,0.0,0.0,0.0,0.0,0.0,0.0,0.0,0.0,0.0,0.0,0.0,0.0,0.0,0.0,0.0,0.0,0.0,0.0,0.0,0.0,0.0,0.0,0.0,0.0,0.0,0.0,0.0,0.0,0.0,0.0,0.0,0.0,0.0,0.0,0.0,0.0,0.0,0.0,0.0,0.0,0.0,0.0,0.0,0.0,0.0,0.0,0.0,0.0,0.0,0.0,0.0,0.0,0.0,0.0,0.0,0.0,0.0,0.0,0.0,0.0,0.0,0.0,0.0,0.0,0.0,0.0,0.0,0.0,0.0,0.0,0.0,0.0,0.0,0.0,0.0,0.0,0.0,0.0,0.0,0.0,0.0,0.0,0.0,0.0,0.0,0.0,0.0,0.0,0.0,0.0,0.0,0.0,0.0,0.0,0.0,0.0,0.0,0.0,0.0,0.0,0.0,0.0,0.0,0.0,0.0,0.0,0.0,0.0,0.0,0.0,0.0,0.0,0.0,0.0,0.0,0.0,0.0,0.0,0.0,0.0,0.0,0.0,0.0,0.0,0.0,0.0,0.0,0.0,0.0,0.0,0.0,0.0,0.0,0.0,0.0,0.0,0.0,0.0,0.0,0.0,0.0,0.0,0.0,0.0,0.0,0.0,0.0,0.0,0.0,0.0,0.0,0.0,0.0,0.0,0.0,0.0,0.0,0.0,0.0,0.0,0.0,0.0,0.0,0.0,0.0,0.0,0.0,0.0,0.0,0.0,0.0,0.0,0.0,0.0,0.0,0.0,0.0,0.0,0.0,0.0,0.0,0.0,0.0,0.0,0.0,0.0,0.0,0.0,0.0,0.0,0.0,0.0,0.0,0.0,0.0,0.0,0.0,0.0,0.0,0.0,0.0,0.0,0.0,0.0,0.0,0.0,0.0,0.0,0.0,0.0,0.0,0.0,0.0,0.0,0.0,0.0,0.0,0.0,0.0,0.0,0.0,0.0,0.0,0.0,0.0,0.0,0.0,0.0,0.0,0.0,0.0,0.0,0.0,0.0,0.0,0.0,0.0,0.0,0.0,0.0,0.0,0.0,0.0,0.0,0.0,0.0,0.0,0.0,0.0,0.0,0.0,0.0,0.0,0.0,0.0,0.0,0.0,0.0,0.0,0.0,0.0,0.0,0.0,0.0,0.0,0.0,0.0,0.0,0.0,0.0,0.0,0.0,0.0,0.0,0.0,0.0,0.0,0.0,0.0,0.0,0.0,0.0,0.0,0.0,0.0,0.0,0.0,0.0,0.0,0.0,0.0,0.0,0.0,0.0,0.0,0.0,0.0,0.0,0.0,0.0,0.0,0.0,0.0,0.0,0.0,0.0,0.0,0.0,0.0,0.0,0.0,0.0,0.0,0.0,0.0,0.0,0.0,0.0,0.0,0.0,0.0,0.0,0.0,0.0,0.0,0.0,0.0,0.0,0.0,0.0,0.0,0.0,0.0,0.0,0.0,0.0,0.0,0.0,0.0,0.0,0.0,0.0,0.0,0.0,0.0,0.0,0.0,0.0,0.0,0.0,0.0,0.0,0.0,0.0,0.0,0.0,0.0,0.0,0.0,0.0,0.0,0.0,0.0,0.0,0.0,0.0,0.0,0.0,0.0,0.0,0.0,0.0,0.0,0.0,0.0,0.0,0.0,0.0,0.0,0.0,0.0,0.0,0.0,0.0,0.0,0.0,0.0,0.0,0.0,0.0,0.0,0.0,0.0,0.0,0.0,0.0,0.0,0.0,0.0,0.0,0.0,0.0,1.8943,0.0,0.0,0.0,0.0,0.0,0.0,0.0,0.0,0.0,0.0,0.0,0.0,0.0,0.0,0.0,0.0,0.0,0.0,0.0,0.0,0.0,0.0,0.0,0.0,0.0,0.0,0.0,0.0,0.0,0.0,0.0,0.0,0.0,0.0,0.0,0.0,0.0,0.0,0.0,0.0,0.0,0.0,0.0,0.0,0.0,0.0,0.0,0.0,0.0,0.0,0.0,0.0,0.0,0.0,0.0,0.0,0.0,0.0,0.0,0.0,0.0,0.0,0.0,0.0,0.0,0.0,0.0,0.0,0.0,0.0,0.0,0.0,0.0,0.0,0.0,0.0,0.0,0.0,0.0,0.0,0.0,0.0,0.0,0.0,0.0,0.0,0.0,0.0,0.0,0.0,0.0,0.0,0.0,0.0,0.0,0.0,0.0,0.0,0.0,0.0,0.0,0.0,0.0,0.0,0.0,0.0,0.0,0.0,0.0,0.0,1.9993,2.0379,2.0354,2.0167,1.976,0.0,0.0,0.0,0.0,0.0,0.0,0.0,0.0,0.0,0.0,0.0,0.0,0.0,0.0,0.0,0.0,0.0,0.0,0.0,0.0,0.0,0.0,0.0,0.0,0.0,0.0,0.0,0.0,0.0,0.0,0.0,0.0,0.0,0.0,0.0,0.0,0.0,0.0,0.0,0.0,0.0,0.0,0.0,0.0,0.0,0.0,0.0,0.0,0.0,0.0,0.0,0.0,0.0,0.0,0.0,0.0,0.0,0.0,0.0,0.0,0.0,0.0,0.0,0.0,0.0,0.0,0.0,0.0,0.0,0.0,0.0,0.0,0.0,0.0,0.0,0.0,0.0,0.0,0.0,0.0,0.0,0.0,0.0,0.0,0.0,0.0,0.0,0.0,0.0,0.0,0.0,0.0,0.0,0.0,0.0,0.0,0.0,0.0,0.0,0.0,0.0,0.0,0.0,0.0,0.0,0.0,0.0,0.0,0.0,0.0,0.0,0.0,2.0334,2.0295,2.0268,0.0,0.0,0.0,0.0,0.0,0.0,0.0,0.0,0.0,0.0,0.0,0.0,0.0,0.0,0.0,0.0,0.0,0.0,0.0,0.0,0.0,0.0,0.0,0.0,0.0,0.0,0.0,0.0,0.0,0.0,0.0,0.0,0.0,0.0,0.0,0.0,0.0,0.0,0.0,0.0,0.0,0.0,0.0,0.0,0.0,0.0,0.0,0.0,0.0,0.0,0.0,0.0,0.0,0.0,0.0,0.0,0.0,0.0,0.0,0.0,0.0,0.0,0.0,0.0,0.0,0.0,0.0,0.0,0.0,0.0,0.0,0.0,0.0,0.0,0.0,0.0,0.0,0.0,0.0,0.0,0.0,0.0,0.0,0.0,0.0,0.0,0.0,0.0,0.0,0.0,0.0,0.0,0.0,0.0,0.0,0.0,0.0,0.0,0.0,0.0,0.0,0.0,0.0,0.0,0.0,0.0,0.0,0.0,0.0,0.0,2.0379,2.0379,2.0334,0.0,2.0292,0.0,0.0,0.0,0.0,0.0,0.0,0.0,0.0,0.0,0.0,0.0,0.0,0.0,0.0,0.0,0.0,0.0,0.0,0.0,0.0,0.0,0.0,0.0,0.0,0.0,0.0,0.0,0.0,0.0,0.0,0.0,0.0,0.0,0.0,0.0,0.0,0.0,0.0,0.0,0.0,0.0,0.0,0.0,0.0,0.0,0.0,0.0,0.0,0.0,0.0,0.0,0.0,0.0,0.0,0.0,0.0,0.0,0.0,0.0,0.0,0.0,0.0,0.0,0.0,0.0,0.0,0.0,0.0,0.0,0.0,0.0,0.0,0.0,0.0,0.0,0.0,0.0,0.0,0.0,0.0,0.0,0.0,0.0,0.0,0.0,0.0,0.0,0.0,0.0,0.0,0.0,0.0,0.0,0.0,0.0,0.0,0.0,0.0,0.0,0.0,0.0,0.0,0.0,0.0,0.0,0.0,0.0,0.0,0.0,0.0,2.0379,2.0354,2.0327,2.0292,0.0,0.0,0.0,0.0,0.0,0.0,0.0,0.0,0.0,0.0,0.0,0.0,0.0,0.0,0.0,0.0,0.0,0.0,0.0,0.0,0.0,0.0,0.0,0.0,0.0,0.0,0.0,0.0,0.0,0.0,0.0,0.0,0.0,0.0,0.0,0.0,0.0,0.0,0.0,0.0,0.0,0.0,0.0,0.0,0.0,0.0,0.0,0.0,0.0,0.0,0.0,0.0,0.0,0.0,0.0,0.0,0.0,0.0,0.0,0.0,0.0,0.0,0.0,0.0,0.0,0.0,0.0,0.0,0.0,0.0,0.0,0.0,0.0,0.0,0.0,0.0,0.0,0.0,0.0,0.0,0.0,0.0,0.0,0.0,0.0,0.0,0.0,0.0,0.0,0.0,0.0,0.0,0.0,0.0,0.0,0.0,0.0,0.0,0.0,0.0,0.0,0.0,0.0,0.0,0.0,0.0,0.0,0.0,0.0,0.0,2.0379,2.0347,2.0288,2.0299,2.0296,2.0292,0.0,0.0,0.0,0.0,0.0,0.0,0.0,0.0,0.0,0.0,0.0,0.0,0.0,0.0,0.0,0.0,0.0,0.0,0.0,0.0,0.0,0.0,0.0,0.0,0.0,0.0,0.0,0.0,0.0,0.0,0.0,0.0,0.0,0.0,0.0,0.0,0.0,0.0,0.0,0.0,0.0,0.0,0.0,0.0,0.0,0.0,0.0,0.0,0.0,0.0,0.0,0.0,0.0,0.0,0.0,0.0,0.0,0.0,0.0,0.0,0.0,0.0,0.0,0.0,0.0,0.0,0.0,0.0,0.0,0.0,0.0,0.0,0.0,0.0,0.0,0.0,0.0,0.0,0.0,0.0,0.0,0.0,0.0,0.0,0.0,0.0,0.0,0.0,0.0,0.0,0.0,0.0,0.0,0.0,0.0,0.0,0.0,0.0,0.0,0.0,0.0,0.0,0.0,0.0,0.0,0.0,0.0,0.0,2.0379,2.0334,2.0288,2.0292,2.0284,2.0296,0.0,0.0,0.0,0.0,0.0,0.0,0.0,0.0,0.0,0.0,0.0,0.0,0.0,0.0,0.0,0.0,0.0,0.0,0.0,0.0,0.0,0.0,0.0,0.0,0.0,0.0,0.0,0.0,0.0,0.0,0.0,0.0,0.0,0.0,0.0,0.0,0.0,0.0,0.0,0.0,0.0,0.0,0.0,0.0,0.0,0.0,0.0,0.0,0.0,0.0,0.0,0.0,0.0,0.0,0.0,0.0,0.0,0.0,0.0,0.0,0.0,0.0,0.0,0.0,0.0,0.0,0.0,0.0,0.0,0.0,0.0,0.0,0.0,0.0,0.0,0.0,0.0,0.0,0.0,0.0,0.0,0.0,0.0,0.0,0.0,0.0,0.0,0.0,0.0,0.0,0.0,0.0,0.0,0.0,0.0,0.0,0.0,0.0,0.0,0.0,0.0,0.0,0.0,0.0,0.0,0.0,0.0,0.0,0.0,2.0328,2.0327,2.0299,2.0304,2.0289,2.03,0.0,0.0,0.0,0.0,0.0,0.0,0.0,0.0,0.0,0.0,0.0,0.0,0.0,0.0,0.0,0.0,0.0,0.0,0.0,0.0,0.0,0.0,0.0,0.0,0.0,0.0,0.0,0.0,0.0,0.0,0.0,0.0,0.0,0.0,0.0,0.0,0.0,0.0,0.0,0.0,0.0,0.0,0.0,0.0,0.0,0.0,0.0,0.0,0.0,0.0,0.0,0.0,0.0,0.0,0.0,0.0,0.0,0.0,0.0,0.0,0.0,0.0,0.0,0.0,0.0,0.0,0.0,0.0,0.0,0.0,0.0,0.0,0.0,0.0,0.0,0.0,0.0,0.0,0.0,0.0,0.0,0.0,0.0,0.0,0.0,0.0,0.0,0.0,0.0,0.0,0.0,0.0,0.0,0.0,0.0,0.0,0.0,0.0,0.0,0.0,0.0,0.0,0.0,0.0,0.0,0.0,0.0,0.0,0.0,2.0294,0.0,2.0262,2.0273,2.0277,2.0277,0.0,0.0,0.0,0.0,0.0,0.0,0.0,0.0,0.0,0.0,0.0,0.0,0.0,0.0,0.0,0.0,0.0,0.0,0.0,0.0,0.0,0.0,0.0,0.0,0.0,0.0,0.0,0.0,0.0,0.0,0.0,0.0,0.0,0.0,0.0,0.0,0.0,0.0,0.0,0.0,0.0,0.0,0.0,0.0,0.0,0.0,0.0,0.0,0.0,0.0,0.0,0.0,0.0,0.0,0.0,0.0,0.0,0.0,0.0,0.0,0.0,0.0,0.0,0.0,0.0,0.0,0.0,0.0,0.0,0.0,0.0,0.0,0.0,0.0,0.0,0.0,0.0,0.0,0.0,0.0,0.0,0.0,0.0,0.0,0.0,0.0,0.0,0.0,0.0,0.0,0.0,0.0,0.0,0.0,0.0,0.0,0.0,0.0,0.0,0.0,0.0,0.0,0.0,0.0,0.0,0.0,0.0,0.0,2.0294,2.0292,2.0238,2.0195,2.0208,2.0216,2.0205,0.0,0.0,0.0,0.0,0.0,0.0,0.0,0.0,0.0,0.0,0.0,0.0,0.0,0.0,0.0,0.0,0.0,0.0,0.0,0.0,0.0,0.0,0.0,0.0,0.0,0.0,0.0,0.0,0.0,0.0,0.0,0.0,0.0,0.0,0.0,0.0,0.0,0.0,0.0,0.0,0.0,0.0,0.0,0.0,0.0,0.0,0.0,0.0,0.0,0.0,0.0,0.0,0.0,0.0,0.0,0.0,0.0,0.0,0.0,0.0,0.0,0.0,0.0,0.0,0.0,0.0,0.0,0.0,0.0,0.0,0.0,0.0,0.0,0.0,0.0,0.0,0.0,0.0,0.0,0.0,0.0,0.0,0.0,0.0,0.0,0.0,0.0,0.0,0.0,0.0,0.0,0.0,0.0,0.0,0.0,0.0,0.0,0.0,0.0,0.0,0.0,0.0,0.0,0.0,0.0,0.0,0.0,0.0,0.0,2.0227,2.0199,2.0162,2.0144,2.0173,2.0209,0.0,0.0,0.0,0.0,0.0,0.0,0.0,0.0,0.0,0.0,0.0,0.0,0.0,0.0,0.0,0.0,0.0,0.0,0.0,0.0,0.0,0.0,0.0,0.0,0.0,0.0,0.0,0.0,0.0,0.0,0.0,0.0,0.0,0.0,0.0,0.0,0.0,0.0,0.0,0.0,0.0,0.0,0.0,0.0,0.0,0.0,0.0,0.0,0.0,0.0,0.0,0.0,0.0,0.0,0.0,0.0,0.0,0.0,0.0,0.0,0.0,0.0,0.0,0.0,0.0,0.0,0.0,0.0,0.0,0.0,0.0,0.0,0.0,0.0,0.0,0.0,0.0,0.0,0.0,0.0,0.0,0.0,0.0,0.0,0.0,0.0,0.0,0.0,0.0,0.0,0.0,0.0,0.0,0.0,0.0,0.0,0.0,0.0,0.0,0.0,0.0,0.0,0.0,0.0,0.0,0.0,0.0,0.0,0.0,2.0546,2.0556,2.0708,2.0993,2.1033,2.0919,2.0671,0.0,0.0,0.0,0.0,0.0,0.0,0.0,0.0,0.0,0.0,0.0,0.0,0.0,0.0,0.0,0.0,0.0,0.0,0.0,0.0,0.0,0.0,0.0,0.0,0.0,0.0,0.0,0.0,0.0,0.0,0.0,0.0,0.0,0.0,0.0,0.0,0.0,0.0,0.0,0.0,0.0,0.0,0.0,0.0,0.0,0.0,0.0,0.0,0.0,0.0,0.0,0.0,0.0,0.0,0.0,0.0,0.0,0.0,0.0,0.0,0.0,0.0,0.0,0.0,0.0,0.0,0.0,0.0,0.0,0.0,0.0,0.0,0.0,0.0,0.0,0.0,0.0,0.0,0.0,0.0,0.0,0.0,0.0,0.0,0.0,0.0,0.0,0.0,0.0,0.0,0.0,0.0,0.0,0.0,0.0,0.0,0.0,0.0,0.0,0.0,0.0,0.0,0.0,0.0,0.0,0.0,0.0,0.0,2.1223,2.1278,2.1711,2.2431,2.246,2.2163,0.0,0.0,0.0,0.0,0.0,0.0,0.0,0.0,0.0,0.0,0.0,0.0,0.0,0.0,0.0,0.0,0.0,0.0,0.0,0.0,0.0,0.0,0.0,0.0,0.0,0.0,0.0,0.0,0.0,0.0,0.0,0.0,0.0,0.0,0.0,0.0,0.0,0.0,0.0,0.0,0.0,0.0,0.0,0.0,0.0,0.0,0.0,0.0,0.0,0.0,0.0,0.0,0.0,0.0,0.0,0.0,0.0,0.0,0.0,0.0,0.0,0.0,0.0,0.0,0.0,0.0,0.0,0.0,0.0,0.0,0.0,0.0,0.0,0.0,0.0,0.0,0.0,0.0,0.0,0.0,0.0,0.0,0.0,0.0,0.0,0.0,0.0,0.0,0.0,0.0,0.0,0.0,0.0,0.0,0.0,0.0,0.0,0.0,0.0,0.0,0.0,0.0,0.0,0.0,0.0,0.0,0.0,0.0,0.0,2.2745,2.2825,2.2684,2.2375,2.2394,2.236,0.0,0.0,0.0,0.0,0.0,0.0,0.0,0.0,0.0,0.0,0.0,0.0,0.0,0.0,0.0,0.0,0.0,0.0,0.0,0.0,0.0,0.0,0.0,0.0,0.0,0.0,0.0,0.0,0.0,0.0,0.0,0.0,0.0,0.0,0.0,0.0,0.0,0.0,0.0,0.0,0.0,0.0,0.0,0.0,0.0,0.0,0.0,0.0,0.0,0.0,0.0,0.0,0.0,0.0,0.0,0.0,0.0,0.0,0.0,0.0,0.0,0.0,0.0,0.0,0.0,0.0,0.0,0.0,0.0,0.0,0.0,0.0,0.0,0.0,0.0,0.0,0.0,0.0,0.0,0.0,0.0,0.0,0.0,0.0,0.0,0.0,0.0,0.0,0.0,0.0,0.0,0.0,0.0,0.0,0.0,0.0,0.0,0.0,0.0,0.0,0.0,0.0,0.0,0.0,0.0,0.0,0.0,0.0,2.2149,2.3291,2.3649,2.3612,2.3145,2.3305,2.3258,0.0,0.0,0.0,0.0,0.0,0.0,0.0,0.0,0.0,0.0,0.0,0.0,0.0,0.0,0.0,0.0,0.0,0.0,0.0,0.0,0.0,0.0,0.0,0.0,0.0,0.0,0.0,0.0,0.0,0.0,0.0,0.0,0.0,0.0,0.0,0.0,0.0,0.0,0.0,0.0,0.0,0.0,0.0,0.0,0.0,0.0,0.0,0.0,0.0,0.0,0.0,0.0,0.0,0.0,0.0,0.0,0.0,0.0,0.0,0.0,0.0,0.0,0.0,0.0,0.0,0.0,0.0,0.0,0.0,0.0,0.0,0.0,0.0,0.0,0.0,0.0,0.0,0.0,0.0,0.0,0.0,0.0,0.0,0.0,0.0,0.0,0.0,0.0,0.0,0.0,0.0,0.0,0.0,0.0,0.0,0.0,0.0,0.0,0.0,0.0,0.0,0.0,0.0,0.0,0.0,0.0,0.0,0.0,2.2622,2.3279,2.4002,2.4356,2.4303,2.4596,2.4444,0.0,0.0,0.0,0.0,0.0,0.0,0.0,0.0,0.0,0.0,0.0,0.0,0.0,0.0,0.0,0.0,0.0,0.0,0.0,0.0,0.0,0.0,0.0,0.0,0.0,0.0,0.0,0.0,0.0,0.0,0.0,0.0,0.0,0.0,0.0,0.0,0.0,0.0,0.0,0.0,0.0,0.0,0.0,0.0,0.0,0.0,0.0,0.0,0.0,0.0,0.0,0.0,0.0,0.0,0.0,0.0,0.0,0.0,0.0,0.0,0.0,0.0,0.0,0.0,0.0,0.0,0.0,0.0,0.0,0.0,0.0,0.0,0.0,0.0,0.0,0.0,0.0,0.0,0.0,0.0,0.0,0.0,0.0,0.0,0.0,0.0,0.0,0.0,0.0,0.0,0.0,0.0,0.0,0.0,0.0,0.0,0.0,0.0,0.0,0.0,0.0,0.0,0.0,0.0,0.0,0.0,0.0,0.0,2.328,2.3897,2.4118,2.419,2.4056,2.4425,2.4595,0.0,0.0,0.0,0.0,0.0,0.0,0.0,0.0,0.0,0.0,0.0,0.0,0.0,0.0,0.0,0.0,0.0,0.0,0.0,0.0,0.0,0.0,0.0,0.0,0.0,0.0,0.0,0.0,0.0,0.0,0.0,0.0,0.0,0.0,0.0,0.0,0.0,0.0,0.0,0.0,0.0,0.0,0.0,0.0,0.0,0.0,0.0,0.0,2.0563,0.0,0.0,0.0,0.0,0.0,0.0,0.0,0.0,0.0,0.0,0.0,0.0,0.0,0.0,0.0,0.0,0.0,0.0,0.0,0.0,0.0,0.0,0.0,0.0,0.0,0.0,0.0,0.0,0.0,0.0,0.0,0.0,0.0,0.0,0.0,0.0,0.0,0.0,0.0,0.0,0.0,0.0,0.0,0.0,0.0,0.0,0.0,0.0,0.0,0.0,0.0,0.0,0.0,0.0,0.0,0.0,0.0,0.0,0.0,2.3346,2.3925,2.3978,2.3976,2.3876,2.4192,2.4459,0.0,0.0,0.0,0.0,0.0,0.0,0.0,0.0,0.0,0.0,0.0,0.0,0.0,0.0,0.0,0.0,0.0,0.0,0.0,0.0,0.0,0.0,0.0,0.0,0.0,0.0,0.0,0.0,0.0,0.0,0.0,0.0,0.0,0.0,0.0,0.0,0.0,0.0,0.0,0.0,0.0,0.0,0.0,0.0,0.0,0.0,0.0,0.0,0.0,0.0,0.0,0.0,0.0,0.0,0.0,0.0,0.0,0.0,0.0,0.0,0.0,0.0,0.0,0.0,0.0,0.0,0.0,0.0,0.0,0.0,0.0,0.0,0.0,0.0,0.0,0.0,0.0,0.0,0.0,0.0,0.0,0.0,0.0,0.0,0.0,0.0,0.0,0.0,0.0,0.0,0.0,0.0,0.0,0.0,0.0,0.0,0.0,0.0,0.0,0.0,0.0,0.0,0.0,0.0,0.0,0.0,0.0,2.2739,2.3285,2.3717,2.3753,2.371,2.3628,2.3901,2.4155,2.4426,0.0,0.0,0.0,0.0,0.0,0.0,0.0,0.0,0.0,0.0,0.0,0.0,0.0,0.0,0.0,0.0,0.0,0.0,0.0,0.0,0.0,0.0,0.0,0.0,0.0,0.0,0.0,0.0,0.0,0.0,0.0,0.0,0.0,0.0,0.0,0.0,0.0,0.0,1.8577,1.9469,0.0,0.0,0.0,0.0,0.0,0.0,0.0,0.0,2.0125,0.0,0.0,0.0,0.0,0.0,0.0,0.0,0.0,0.0,0.0,0.0,0.0,0.0,0.0,0.0,0.0,0.0,0.0,0.0,0.0,0.0,0.0,0.0,0.0,0.0,0.0,0.0,0.0,0.0,0.0,0.0,0.0,0.0,0.0,0.0,0.0,0.0,0.0,0.0,0.0,0.0,0.0,0.0,0.0,0.0,0.0,0.0,0.0,0.0,0.0,0.0,0.0,0.0,0.0,0.0,0.0,2.2848,2.3376,2.3627,2.3553,2.3567,2.3499,2.3389,2.3685,2.3919,2.4095,0.0,0.0,0.0,0.0,0.0,0.0,0.0,0.0,0.0,0.0,0.0,0.0,0.0,0.0,0.0,0.0,0.0,0.0,0.0,0.0,0.0,0.0,0.0,0.0,0.0,0.0,0.0,0.0,0.0,0.0,0.0,0.0,0.0,0.0,0.0,0.0,0.0,0.0,0.0,1.944,1.9747,0.0,0.0,0.0,0.0,0.0,0.0,0.0,0.0,2.1158,0.0,0.0,0.0,0.0,0.0,0.0,0.0,0.0,0.0,0.0,0.0,0.0,0.0,0.0,0.0,0.0,0.0,0.0,0.0,0.0,0.0,0.0,0.0,0.0,0.0,0.0,0.0,0.0,0.0,0.0,0.0,0.0,0.0,0.0,0.0,0.0,0.0,0.0,0.0,0.0,0.0,0.0,0.0,0.0,0.0,0.0,0.0,0.0,0.0,0.0,0.0,0.0,0.0,0.0,0.0,2.2755,2.3292,2.3486,2.3247,2.3217,2.3168,2.3144,2.344,2.3667,0.0,0.0,0.0,0.0,0.0,0.0,0.0,0.0,0.0,0.0,0.0,0.0,0.0,0.0,0.0,0.0,0.0,0.0,0.0,0.0,0.0,0.0,0.0,0.0,0.0,0.0,0.0,0.0,0.0,0.0,0.0,0.0,0.0,0.0,0.0,0.0,0.0,0.0,0.0,0.0,1.9459,1.959,1.9841,0.0,0.0,0.0,0.0,0.0,0.0,2.0773,2.107,0.0,0.0,0.0,0.0,0.0,0.0,0.0,0.0,0.0,0.0,0.0,0.0,0.0,0.0,0.0,0.0,0.0,0.0,0.0,0.0,0.0,0.0,0.0,0.0,0.0,0.0,0.0,0.0,0.0,0.0,0.0,0.0,0.0,0.0,0.0,0.0,0.0,0.0,0.0,0.0,0.0,0.0,0.0,0.0,0.0,0.0,0.0,0.0,0.0,0.0,0.0,0.0,0.0,0.0,0.0,2.2713,2.3097,2.3199,2.2944,2.2868,2.2842,2.2902,2.3175,2.3399,0.0,0.0,0.0,0.0,0.0,0.0,0.0,0.0,0.0,0.0,0.0,0.0,0.0,0.0,0.0,0.0,0.0,0.0,0.0,0.0,0.0,0.0,0.0,0.0,0.0,0.0,0.0,0.0,0.0,0.0,0.0,0.0,0.0,0.0,0.0,0.0,0.0,0.0,0.0,0.0,0.0,1.9575,2.0027,2.0022,0.0,0.0,0.0,0.0,2.0727,2.0884,0.0,0.0,0.0,0.0,0.0,0.0,0.0,0.0,0.0,0.0,0.0,0.0,0.0,0.0,0.0,0.0,0.0,0.0,0.0,0.0,0.0,0.0,0.0,0.0,0.0,0.0,0.0,0.0,0.0,0.0,0.0,0.0,0.0,0.0,0.0,0.0,0.0,0.0,0.0,0.0,0.0,0.0,0.0,0.0,0.0,0.0,0.0,0.0,0.0,0.0,0.0,0.0,0.0,0.0,0.0,0.0,2.328,2.3146,2.2919,2.2676,2.2579,2.2525,2.2569,2.2868,2.3133,0.0,0.0,0.0,0.0,0.0,0.0,0.0,0.0,0.0,0.0,0.0,0.0,0.0,0.0,0.0,0.0,0.0,0.0,0.0,0.0,0.0,0.0,0.0,0.0,0.0,0.0,0.0,0.0,0.0,0.0,0.0,0.0,0.0,0.0,0.0,0.0,0.0,0.0,0.0,0.0,0.0,1.9829,2.0372,2.0231,2.0145,0.0,0.0,2.0935,2.1021,2.1393,0.0,0.0,0.0,0.0,0.0,0.0,0.0,0.0,0.0,0.0,0.0,0.0,0.0,0.0,0.0,0.0,0.0,0.0,0.0,0.0,0.0,0.0,0.0,0.0,0.0,0.0,0.0,0.0,0.0,0.0,0.0,0.0,0.0,0.0,0.0,0.0,0.0,0.0,0.0,0.0,0.0,0.0,0.0,0.0,0.0,0.0,0.0,0.0,0.0,0.0,0.0,0.0,0.0,0.0,0.0,2.3199,2.314,2.2876,2.2588,2.2271,2.2147,2.213,2.2231,2.2473,2.2764,0.0,0.0,0.0,0.0,0.0,0.0,0.0,0.0,0.0,0.0,0.0,0.0,0.0,0.0,0.0,0.0,0.0,0.0,0.0,0.0,0.0,0.0,0.0,0.0,0.0,0.0,0.0,0.0,0.0,0.0,0.0,0.0,0.0,0.0,0.0,0.0,0.0,0.0,0.0,0.0,0.0,0.0,2.0692,2.0554,0.0,0.0,0.0,2.1077,2.1152,0.0,0.0,0.0,0.0,0.0,0.0,0.0,0.0,0.0,0.0,0.0,0.0,0.0,0.0,0.0,0.0,0.0,0.0,0.0,0.0,0.0,0.0,0.0,0.0,0.0,0.0,0.0,0.0,0.0,0.0,0.0,0.0,0.0,0.0,0.0,0.0,0.0,0.0,0.0,0.0,0.0,0.0,0.0,0.0,0.0,0.0,0.0,0.0,0.0,0.0,0.0,0.0,0.0,0.0,0.0,0.0,0.0,2.2902,2.2571,2.2226,2.1911,2.1781,2.1781,2.1899,2.2108,0.0,0.0,0.0,0.0,0.0,0.0,0.0,0.0,0.0,0.0,0.0,0.0,0.0,0.0,0.0,0.0,0.0,0.0,0.0,0.0,0.0,0.0,0.0,0.0,0.0,0.0,0.0,1.9752,0.0,0.0,0.0,0.0,0.0,0.0,0.0,0.0,0.0,0.0,0.0,0.0,0.0,0.0,2.0765,2.1001,2.0838,2.086,0.0,0.0,2.1033,2.1131,2.1166,2.1313,0.0,0.0,0.0,0.0,0.0,0.0,0.0,0.0,0.0,0.0,0.0,0.0,0.0,0.0,0.0,0.0,0.0,0.0,0.0,0.0,0.0,0.0,0.0,0.0,0.0,0.0,0.0,0.0,0.0,0.0,0.0,0.0,0.0,0.0,0.0,0.0,0.0,0.0,0.0,0.0,0.0,0.0,0.0,0.0,0.0,0.0,0.0,0.0,0.0,0.0,0.0,0.0,0.0,0.0,0.0,2.2651,2.2292,2.1969,2.1634,2.162,2.162,2.165,2.1869,2.2124,0.0,0.0,0.0,0.0,0.0,0.0,0.0,0.0,0.0,0.0,0.0,0.0,0.0,0.0,0.0,0.0,0.0,0.0,0.0,0.0,0.0,0.0,0.0,0.0,0.0,0.0,0.0,0.0,0.0,0.0,0.0,0.0,0.0,0.0,0.0,0.0,0.0,0.0,0.0,0.0,0.0,2.1015,2.1335,2.1051,2.0805,0.0,0.0,2.0573,2.0809,2.0696,2.0809,2.1361,0.0,0.0,0.0,0.0,0.0,0.0,0.0,0.0,0.0,0.0,0.0,0.0,0.0,0.0,0.0,0.0,0.0,0.0,0.0,0.0,0.0,0.0,0.0,0.0,0.0,0.0,0.0,0.0,0.0,0.0,0.0,0.0,0.0,0.0,0.0,0.0,0.0,0.0,0.0,0.0,0.0,0.0,0.0,0.0,0.0,0.0,0.0,0.0,0.0,0.0,0.0,0.0,0.0,2.2917,2.2429,2.2056,2.1708,2.1419,2.1341,2.1326,2.1341,2.1509,2.1748,0.0,0.0,0.0,0.0,0.0,0.0,0.0,0.0,0.0,0.0,0.0,0.0,0.0,0.0,0.0,0.0,0.0,0.0,0.0,0.0,0.0,0.0,0.0,0.0,0.0,0.0,0.0,0.0,2.0742,2.0691,2.0818,0.0,0.0,0.0,0.0,0.0,0.0,0.0,0.0,0.0,0.0,2.1056,2.1028,2.0759,0.0,0.0,2.0435,2.0498,2.0586,2.0699,2.0848,2.1131,2.1458,0.0,0.0,0.0,0.0,0.0,0.0,0.0,0.0,0.0,0.0,0.0,0.0,0.0,0.0,0.0,0.0,0.0,0.0,0.0,0.0,0.0,0.0,0.0,0.0,0.0,0.0,0.0,0.0,0.0,0.0,0.0,0.0,0.0,0.0,0.0,0.0,0.0,0.0,0.0,0.0,0.0,0.0,0.0,0.0,0.0,0.0,0.0,0.0,0.0,0.0,0.0,0.0,2.2643,2.2192,2.1764,2.145,2.1151,2.1038,2.1022,2.1054,2.1166,2.137,0.0,0.0,0.0,0.0,0.0,0.0,0.0,0.0,0.0,0.0,0.0,0.0,0.0,0.0,0.0,0.0,0.0,0.0,0.0,0.0,0.0,0.0,0.0,0.0,0.0,0.0,0.0,0.0,2.1061,2.106,2.1427,0.0,0.0,0.0,0.0,0.0,0.0,0.0,0.0,0.0,0.0,2.0921,2.0709,2.0459,2.022,2.0182,2.0246,2.036,2.041,2.0625,2.0838,2.0961,0.0,0.0,0.0,0.0,0.0,0.0,0.0,0.0,0.0,0.0,0.0,0.0,0.0,0.0,0.0,0.0,0.0,0.0,0.0,0.0,0.0,0.0,0.0,0.0,0.0,0.0,0.0,0.0,0.0,0.0,2.2849,0.0,0.0,0.0,0.0,0.0,0.0,0.0,0.0,0.0,0.0,0.0,0.0,0.0,0.0,0.0,0.0,0.0,0.0,0.0,0.0,0.0,0.0,2.2368,2.1928,2.1509,2.1151,2.0827,2.0794,2.0777,2.0742,2.0827,2.1007,2.1247,0.0,0.0,0.0,0.0,0.0,0.0,0.0,0.0,0.0,0.0,0.0,0.0,0.0,0.0,0.0,0.0,0.0,0.0,0.0,0.0,0.0,0.0,0.0,0.0,0.0,0.0,2.162,2.1315,2.1333,0.0,0.0,0.0,0.0,0.0,0.0,0.0,0.0,0.0,0.0,2.0871,2.0573,2.0448,2.0195,2.0041,2.0028,2.0028,2.0054,2.022,2.0436,2.0575,0.0,0.0,0.0,0.0,0.0,0.0,0.0,0.0,0.0,0.0,0.0,0.0,0.0,0.0,0.0,0.0,0.0,0.0,0.0,0.0,0.0,0.0,0.0,0.0,0.0,0.0,0.0,2.4321,2.426,0.0,0.0,0.0,0.0,0.0,0.0,0.0,0.0,0.0,0.0,0.0,2.3141,2.2972,0.0,0.0,0.0,0.0,0.0,0.0,0.0,0.0,0.0,0.0,0.0,0.0,2.2022,2.1524,2.1166,2.0778,2.0429,2.0342,2.0489,2.0829,2.0992,2.149,2.2311,0.0,0.0,0.0,0.0,0.0,0.0,0.0,0.0,0.0,0.0,0.0,0.0,0.0,0.0,0.0,0.0,0.0,0.0,0.0,0.0,0.0,0.0,0.0,0.0,0.0,2.1734,0.0,0.0,0.0,0.0,0.0,0.0,0.0,0.0,0.0,0.0,0.0,2.1548,2.1641,2.1294,2.1012,2.1145,2.097,2.0861,0.0,0.0,0.0,0.0,0.0,0.0,0.0,0.0,0.0,0.0,0.0,0.0,0.0,0.0,2.1256,2.1957,2.2061,2.2061,2.2061,0.0,0.0,0.0,0.0,0.0,0.0,0.0,0.0,0.0,0.0,0.0,0.0,0.0,0.0,2.5588,0.0,2.5567,0.0,0.0,0.0,0.0,0.0,0.0,0.0,0.0,2.3887,2.3554,2.3247,2.3034,2.3131,0.0,2.2996,2.2977,0.0,0.0,0.0,0.0,0.0,0.0,0.0,0.0,2.1697,2.1456,2.1059,2.0856,2.0737,2.0606,2.0729,2.1076,2.1258,2.1734,2.254,2.2833,2.3087,0.0,0.0,0.0,0.0,0.0,0.0,0.0,0.0,0.0,0.0,0.0,0.0,0.0,0.0,0.0,0.0,0.0,0.0,0.0,0.0,0.0,0.0,0.0,2.1958,0.0,0.0,0.0,0.0,0.0,0.0,0.0,0.0,0.0,2.1707,2.1585,2.1537,2.161,2.1369,2.1188,2.1313,0.0,0.0,0.0,0.0,0.0,0.0,0.0,2.1729,2.166,2.166,2.168,2.1688,2.1428,2.1202,2.1197,0.0,0.0,2.1617,2.1708,2.172,2.172,2.172,2.1613,2.1497,2.1078,2.0672,0.0,0.0,0.0,0.0,0.0,0.0,0.0,0.0,2.6579,2.6519,0.0,2.6497,0.0,0.0,0.0,0.0,0.0,2.5859,0.0,0.0,2.4687,2.4394,2.4047,2.3703,2.3585,2.3583,2.3434,2.3349,2.3369,2.279,0.0,0.0,0.0,0.0,0.0,0.0,2.1521,2.167,2.1301,2.1303,2.1629,2.1446,2.138,2.141,2.155,2.1754,2.1937,2.2248,2.2468,2.275,2.3147,0.0,0.0,0.0,0.0,0.0,0.0,0.0,0.0,0.0,0.0,0.0,0.0,0.0,0.0,0.0,0.0,0.0,0.0,0.0,0.0,2.2828,0.0,0.0,0.0,0.0,0.0,0.0,0.0,0.0,0.0,0.0,2.12,2.1499,2.1587,2.1287,0.0,0.0,0.0,0.0,2.1035,2.1047,2.1136,2.125,2.1262,2.1387,2.14,2.1262,0.0,0.0,2.1296,2.1032,2.0941,2.1283,2.1026,2.0899,2.0849,2.0819,2.0831,2.0933,2.09,2.0665,2.0459,2.0385,2.0112,2.6744,0.0,0.0,0.0,0.0,2.6188,2.6118,2.5977,2.5966,2.5937,2.5871,2.5889,0.0,0.0,0.0,0.0,0.0,0.0,2.4885,2.4469,2.4126,2.3753,2.3395,2.3135,2.3226,2.3559,2.3012,2.2975,2.3362,2.284,2.2784,2.3207,0.0,0.0,0.0,0.0,2.2077,2.1721,2.1428,2.1218,2.1058,2.0976,2.1193,2.1685,2.2164,2.2484,2.2758,2.2984,2.322,2.3483,2.3856,0.0,0.0,0.0,0.0,0.0,0.0,0.0,0.0,0.0,0.0,0.0,0.0,0.0,0.0,0.0,0.0,0.0,0.0,0.0,2.2512,2.2231,2.1996,0.0,0.0,0.0,0.0,0.0,0.0,0.0,0.0,0.0,2.1187,2.1402,2.166,0.0,0.0,2.1607,2.1789,2.185,2.191,2.1958,2.2018,0.0,2.191,2.197,2.197,2.191,2.1716,2.1374,2.0905,2.0739,2.0595,2.0473,2.0313,2.0202,2.0329,2.0637,2.0885,2.102,2.0958,2.08,2.0757,2.0243,1.9784,2.7442,2.6994,2.6739,2.6551,2.6455,2.6411,2.647,2.6591,2.6282,2.6271,2.6458,2.6179,2.6114,2.6096,2.6022,0.0,0.0,0.0,2.5045,2.4711,2.4623,2.4259,2.3696,2.3663,2.3668,2.3656,2.3136,2.3056,2.3412,2.3041,2.3048,2.3409,0.0,0.0,2.2708,2.2337,2.207,2.1902,2.1657,2.1553,2.1513,2.1484,2.1626,2.2028,2.2386,2.2663,2.2904,2.3024,2.3231,2.3421,2.3822,2.4116,0.0,0.0,0.0,0.0,0.0,0.0,0.0,0.0,0.0,0.0,0.0,2.3911,2.3605,0.0,0.0,0.0,2.2985,2.2824,2.2582,2.2314,0.0,0.0,0.0,0.0,0.0,0.0,0.0,2.1161,2.1357,2.1464,2.1335,2.1434,2.1619,2.1963,2.1824,2.1761,2.1949,0.0,2.1999,2.2123,2.2123,2.2049,2.1925,2.1862,2.1862,2.1737,2.1411,2.1019,2.0495,2.0313,2.0118,1.9857,1.9594,1.9528,1.9649,1.9911,2.0248,2.0635,2.0582,2.042,2.0395,1.9876,1.9394,2.8422,2.849,2.7723,2.7414,2.7365,2.7235,2.7518,2.793,2.7199,2.7215,2.7739,2.7131,2.6894,2.6927,2.6759,0.0,2.6535,2.6148,2.5819,2.5583,2.5805,2.5477,2.4616,2.4902,2.4653,2.3904,2.3613,2.3496,2.3451,2.3378,2.3319,2.3231,2.2692,2.2416,2.2317,2.1864,2.1813,2.2233,2.1961,2.2058,2.254,2.2477,2.2356,2.237,2.237,2.2417,2.2523,2.2618,2.2709,2.2859,2.3201,2.3495,2.3641,0.0,0.0,0.0,0.0,0.0,0.0,0.0,0.0,0.0,0.0,0.0,0.0,0.0,0.0,0.0,2.27,0.0,2.2989,2.2778,0.0,0.0,0.0,2.1724,2.125,2.1129,2.1073,2.1092,0.0,0.0,2.1553,2.1469,2.1406,2.1584,2.1647,2.1698,2.1698,2.1635,2.1635,2.1698,2.1635,2.1561,2.14,2.1336,2.1198,2.0892,2.0582,2.0335,2.0042,1.9791,1.9473,1.9274,1.9019,1.8808,1.8998,1.8942,1.9008,1.9781,1.9726,1.9573,1.9532,1.9302,1.8998,2.797,2.7977,2.7712,2.7777,2.8005,2.7952,2.7919,2.7916,2.7712,2.7668,2.7722,2.7558,2.747,2.7414,2.728,2.7145,2.7026,2.6757,2.655,2.6345,2.6143,2.5817,2.5395,2.5254,2.502,2.4732,2.4575,2.417,2.3644,2.3661,2.3414,2.2844,2.2688,2.2716,2.2918,2.2702,2.2556,2.2521,2.2326,2.226,2.231,2.2278,2.217,2.2091,2.2077,2.2091,2.1996,2.2123,2.2217,2.237,2.3044,2.3583,2.3768,2.4393,0.0,0.0,0.0,0.0,0.0,0.0,0.0,0.0,0.0,2.4205,2.433,0.0,2.3561,0.0,2.2667,2.2298,2.2185,2.1882,0.0,0.0,2.1547,2.1528,2.1293,2.1536,2.1531,2.1225,2.1151,2.1123,2.0944,2.0914,2.0862,2.0967,2.1169,2.1348,2.1463,2.1411,2.1296,2.1296,2.1233,2.1042,2.0914,2.0722,2.0582,2.0313,2.0118,1.9868,1.9396,1.9264,1.9142,1.8808,1.8617,1.8549,1.8472,1.8472,1.8405,1.8539,1.8741,1.8988,1.8982,1.869,1.8512,2.8618,2.8533,2.8522,2.8533,2.8563,2.8111,2.7932,2.7985,2.7695,2.7685,2.7801,2.7486,2.7216,2.7148,2.7015,2.6887,2.6729,2.6554,2.6392,2.6183,2.6119,2.5869,2.5364,2.5385,2.5125,2.4653,2.4504,2.4219,2.3745,2.3702,2.3518,2.3096,2.3096,2.3192,2.3307,2.2826,2.2683,2.2795,2.2873,2.2867,2.2818,2.2818,2.2769,2.2734,2.2685,2.2572,2.2523,2.2572,2.2685,2.272,2.3301,2.3667,2.3814,2.429,2.4673,0.0,0.0,0.0,0.0,0.0,0.0,0.0,0.0,0.0,0.0,0.0,2.3348,2.307,2.2535,2.2204,2.2209,2.1989,2.1756,2.1508,2.1524,2.1522,2.1289,2.1362,2.136,2.1042,2.0978,2.0903,2.0752,2.0711,2.0669,2.0669,2.085,2.0978,2.1083,2.1042,2.0978,2.0978,2.0914,2.0711,2.0453,2.0194,2.0009,1.9857,1.9671,1.9473,1.9142,1.8875,1.8674,1.8347,1.8202,1.8134,1.7998,1.794,1.7872,1.7872,1.8008,1.824,1.8285,1.8133,1.7901,2.9547,2.9428,2.9428,2.9275,2.8996,2.8045,2.7853,2.8262,2.7632,2.7608,2.7947,2.7248,2.6881,2.676,2.661,2.6474,2.6306,2.6121,2.598,2.5854,2.6066,2.5789,2.5159,2.5473,2.5189,2.4408,2.4254,2.4096,2.3872,2.3768,2.3675,2.3606,2.354,2.354,2.3485,2.2728,2.2594,2.3105,2.3432,2.3606,2.3606,2.3592,2.3554,2.3554,2.3385,2.3294,2.328,2.328,2.328,2.3332,2.3623,2.382,2.382,2.4147,2.4306,0.0,2.4366,0.0,0.0,0.0,0.0,0.0,0.0,0.0,0.0,2.3152,2.2821,2.2706,2.2385,2.2231,2.247,2.2347,2.2099,2.1788,2.1663,2.1474,2.1158,2.0978,2.0873,2.0747,2.0758,2.0747,2.0843,2.0823,2.0837,2.0861,2.0915,2.0915,2.0805,2.0848,2.0792,2.0758,2.0705,2.0543,2.0249,1.9779,1.955,1.9539,1.9274,1.9008,1.8942,1.8539,1.8212,1.8018,1.7794,1.7647,1.7461,1.747,1.7401,1.7382,1.7392,1.7423,1.76,1.7522,1.742,2.9305,2.9183,2.9059,2.8951,2.8811,2.8545,2.8498,2.867,2.8436,2.8248,2.8165,2.7768,2.761,2.7546,2.7433,2.725,2.7,2.695,2.6798,2.6528,2.6437,2.6318,2.606,2.5923,2.5723,2.5448,2.5313,2.4941,2.439,2.4216,2.3929,2.345,2.3266,2.32,2.3187,0.0,0.0,0.0,2.3396,2.3437,2.345,2.3437,2.3398,2.328,2.3003,0.0,2.2684,2.2684,2.2738,2.2844,2.3528,0.0,0.0,0.0,0.0,0.0,0.0,0.0,0.0,0.0,0.0,0.0,2.3754,2.3644,2.3905,2.3341,2.2802,2.2662,2.2189,2.193,2.1877,2.16,2.1348,2.1094,2.0978,2.085,2.0797,2.0744,2.0803,2.0997,2.103,2.1129,2.1379,2.143,2.1452,2.138,2.1439,2.1406,2.1402,2.114,2.1052,2.1041,2.0774,2.0517,2.0315,1.9681,1.9291,1.9131,1.8875,1.8569,1.8319,1.8173,1.7959,1.7695,1.7539,1.747,1.7314,1.7107,1.6978,1.6821,1.6621,1.6682,1.7179,1.7148,1.6987,3.0116,0.0,2.981,2.9679,0.0,2.9431,2.9316,2.9184,2.8673,2.8235,2.7875,2.764,2.7452,2.7416,2.7572,2.7548,2.7351,2.7549,2.7515,2.7281,2.7073,2.6975,2.6863,2.6594,2.6365,2.6222,2.5775,2.5361,2.4935,2.4595,2.4297,2.4014,2.3809,2.3685,2.3685,2.3503,2.3427,2.3393,2.3675,2.3822,2.3767,2.3836,2.3767,2.3657,2.3323,0.0,0.0,0.0,0.0,0.0,0.0,0.0,0.0,0.0,0.0,2.465,2.4465,2.4408,2.4319,2.4028,2.3721,2.3352,2.2957,2.2836,2.3352,2.2775,2.2347,2.2285,2.1851,2.1537,2.1474,2.1388,2.1223,2.1169,2.1174,2.1252,2.1241,2.1185,2.1229,2.1281,2.1347,2.1415,2.1596,2.1642,2.1614,2.162,2.1539,2.1463,2.1431,2.1315,2.1141,2.1062,2.0855,2.0578,2.0359,1.9993,1.953,1.9402,1.9113,1.8834,1.8633,1.844,1.8171,1.7779,1.7563,1.7357,1.6996,1.676,1.6551,1.6482,1.6342,1.6333,1.6645,1.6594,1.6578,3.0974,3.0736,3.0567,3.0412,3.0256,3.0083,2.9803,2.9514,0.0,0.0,0.0,2.752,2.7325,2.7224,2.7541,2.7662,2.7539,2.7854,2.7909,2.7734,2.7527,2.7363,2.729,2.7051,2.687,2.6661,2.5995,2.5588,2.5515,2.4978,2.4752,2.4752,2.455,2.4419,2.4419,2.4072,2.3728,2.3493,2.3935,2.4131,2.3956,2.4073,2.406,2.3956,2.3675,2.345,2.345,2.3509,2.345,2.3509,2.3721,2.3956,2.3956,2.3897,2.3956,2.3897,2.3767,2.3628,2.3577,2.3409,2.3156,2.2738,2.2312,2.2178,2.2432,2.2049,2.1847,2.1942,2.1487,2.1277,2.1293,2.1417,2.1476,2.1487,2.1616,2.1768,2.1757,2.1651,2.1581,2.1691,2.1712,2.1751,2.1836,2.1832,2.1772,2.1743,2.1667,2.1437,2.1389,2.1364,2.1321,2.1214,2.1007,2.0688,2.0463,2.0063,1.9949,1.9643,1.9301,1.9122,1.9058,1.8784,1.8441,1.7896,1.7614,1.7297,1.6749,1.6536,1.6342,1.6289,1.6211,1.6202,1.6114,1.6114,1.6228,3.0618,3.0428,3.0241,3.0031,2.9818,2.9642,2.9357,2.8958,2.8891,2.8763,2.8598,2.8335,2.811,2.7954,2.7911,2.7738,2.7533,2.7558,2.7423,2.7111,2.7064,2.693,2.6661,2.6614,2.6478,2.6369,2.6105,2.5942,2.5867,2.5527,2.5363,2.5351,2.5239,2.5038,2.4849,2.4104,2.3692,2.3666,2.3701,2.3628,2.3522,2.3522,2.3509,2.3509,2.315,2.303,2.3017,2.2969,2.303,2.303,2.3138,2.3258,2.3258,2.3271,2.3258,2.3245,2.3138,2.3169,2.3367,2.3152,2.3027,2.3065,2.2913,2.2549,2.2008,2.1663,2.1586,2.182,2.1693,2.1598,2.1709,2.1694,2.168,2.1622,2.1618,2.1662,2.1706,2.1636,2.18,2.216,2.2215,2.2379,2.2622,2.2603,2.2485,2.2467,2.2179,2.2083,2.1722,2.1713,2.166,2.1605,2.1343,2.0915,2.0558,1.9796,1.9531,1.9258,1.9053,1.8805,1.8657,1.8443,1.8174,1.7888,1.7656,1.7347,1.6909,1.6694,1.641,1.6254,1.6043,1.5867,1.5859,1.5867,1.5876,3.1235,3.1055,3.0835,3.0597,3.0372,3.0015,2.9726,2.9492,2.9211,2.8811,2.8383,2.8024,2.7806,2.7645,2.7833,2.7746,2.7591,2.7796,2.7871,2.7696,2.7507,2.738,2.7176,2.6984,2.6868,2.6778,2.6284,2.6077,2.5987,2.5525,2.5243,2.5231,2.4988,2.4795,2.4511,2.4094,2.3778,2.3676,2.3393,2.315,2.3042,2.2969,2.2969,2.286,2.2543,2.2359,2.2359,2.2359,2.2492,2.2783,2.2908,2.3156,2.3577,2.3462,2.3462,2.3589,2.3323,2.3228,2.3405,2.3102,2.2944,2.3033,2.2877,2.2624,2.2228,2.205,2.201,2.2172,2.1913,2.1731,2.1827,2.1952,2.2046,2.1985,2.2193,2.2346,2.2368,2.2284,2.2299,2.2431,2.239,2.2476,2.2681,2.2628,2.2553,2.2488,2.2273,2.198,2.1655,2.149,2.1398,2.1441,2.1166,2.0893,2.0559,2.0203,1.9753,1.9592,1.9383,1.9154,1.8914,1.8683,1.8439,1.802,1.7831,1.7529,1.716,1.6767,1.643,1.6292,1.5979,1.5831,1.5805,1.5735,1.5672,3.1754,3.1509,3.1278,3.1043,3.0732,3.0129,2.9884,2.9822,2.9121,2.8547,2.8092,2.7811,2.7616,2.74,2.7789,2.7791,2.7669,2.7956,2.8105,2.8039,2.7789,2.7643,2.7523,2.7255,2.7134,2.7015,2.6404,2.6133,2.607,2.5504,2.5172,2.5106,2.4764,2.4566,2.4353,2.4111,2.3917,2.3723,2.3247,2.2897,2.2785,2.2773,2.271,2.2585,2.2333,2.2218,2.2206,2.2206,2.2396,2.2787,2.2941,2.3251,2.3767,2.367,2.367,2.3749,2.3537,2.3384,2.3435,2.3292,2.3213,2.3201,2.3075,2.2879,2.2729,2.2659,2.2545,2.2455,2.2154,2.1989,2.2154,2.2308,2.2477,2.2499,2.2698,2.2861,2.2916,2.2777,2.2628,2.2628,2.2488,2.2392,2.2392,2.2392,2.2306,2.2176,2.1883,2.1665,2.1349,2.1128,2.1051,2.0886,2.0876,2.0692,2.0489,2.0235,1.9982,1.9784,1.9599,1.9316,1.9088,1.8966,1.8735,1.8205,1.7996,1.7683,1.7336,1.6983,1.6693,1.649,1.6216,1.5917,1.5752,1.5593,1.5522,3.1219,3.1029,3.0881,3.0568,3.0144,2.9477,2.9267,2.9127,2.8444,2.8051,2.8074,2.8346,2.8268,2.7944,2.7971,2.7788,2.7485,2.7577,2.7523,2.7403,2.7335,2.7134,2.685,2.6782,2.6633,2.6483,2.6214,2.6096,2.6108,2.5864,2.5656,2.553,2.5155,2.4897,2.4873,2.434,2.3977,2.3965,2.3423,2.3195,2.3128,2.3128,2.3128,2.3128,2.3117,2.3062,2.2991,2.3062,2.3085,2.312,2.3132,2.3223,2.3293,2.3282,2.3293,2.3305,2.3226,2.3335,2.3619,2.393,2.4005,2.4051,2.3849,2.3704,2.3704,2.3436,2.3039,2.2706,2.2535,2.2628,2.2878,2.2892,2.2892,2.2881,2.2809,2.2703,2.2703,2.2553,2.2402,2.2402,2.2402,2.2402,2.2327,2.2176,2.1949,2.1731,2.1502,2.1272,2.0876,2.0722,2.0489,2.0255,2.0323,2.0411,2.0098,1.9794,1.9627,1.9381,1.9231,1.9002,1.8843,1.8603,1.8407,1.832,1.8098,1.7863,1.763,1.7355,1.7209,1.6867,1.6533,1.6165,1.5677,1.5371,1.5371,3.0613,3.0418,3.0251,3.0097,2.9875,2.9299,2.9173,2.9403,2.8805,2.846,2.8391,2.8378,2.8095,2.7603,2.7443,2.7242,2.7053,2.6905,2.6837,2.6769,2.6714,2.6577,2.6371,2.6164,2.6025,2.5943,2.5734,2.5664,2.5664,2.5465,2.5253,2.5123,2.4992,2.4909,2.4814,2.4412,2.4093,2.4082,2.3661,2.3416,2.3406,2.3167,2.2989,2.3001,2.2933,2.2877,2.2877,2.2877,2.3004,2.3294,2.3329,2.3537,2.398,2.3851,2.3851,2.3933,2.3863,2.3873,2.3939,2.4158,2.4127,2.4043,2.397,2.3813,2.3604,2.3372,2.3136,2.2919,2.2802,2.2889,2.2968,2.3001,2.3001,2.3001,2.2852,2.2703,2.2703,2.2402,2.2262,2.2262,2.2111,2.2025,2.2035,2.1883,2.1655,2.1359,2.1118,2.0876,2.0566,2.0333,2.002,1.9696,1.9696,1.9775,1.9548,1.9399,1.9152,1.8984,1.8922,1.8772,1.8523,1.8451,1.8362,1.8193,1.8031,1.7917,1.7852,1.7516,1.725,1.6979,1.6633,1.6206,1.5727,1.5474,1.5375,3.0472,3.027,2.9939,2.979,2.9792,2.909,2.9052,2.9324,2.8808,2.8448,2.829,2.8084,2.7645,2.7234,2.717,2.7101,2.6822,2.6669,2.6586,2.6528,2.6387,2.634,2.6257,2.6043,2.5829,2.5685,2.5552,2.5468,2.5372,2.5154,2.4961,2.4795,2.4699,2.4629,2.4441,2.4189,2.4043,2.4043,2.374,2.3593,2.3565,2.3242,2.3075,2.3075,2.3017,2.2948,2.3029,2.3017,2.3189,2.3555,2.3649,2.3893,2.4383,2.4273,2.4273,2.4345,2.4261,2.42,2.4127,2.4116,2.4043,2.3824,2.374,2.3593,2.3372,2.3224,2.315,2.3065,2.3001,2.299,2.3001,2.3001,2.3001,2.2927,2.2777,2.2628,2.2553,2.2252,2.2025,2.2025,2.1873,2.1731,2.1731,2.1589,2.1349,2.1041,2.0809,2.0498,2.0333,1.9942,1.9618,1.9231,1.9152,1.9152,1.9152,1.9082,1.8834,1.8674,1.8603,1.8531,1.8362,1.8282,1.8282,1.8112,1.7951,1.7861,1.7802,1.7519,1.7175,1.6983,1.6708,1.6275,1.5889,1.5667,1.5495,3.096,3.0649,2.9968,2.9664,2.9661,2.8899,2.8651,2.8767,2.8172,2.7779,2.757,2.7409,2.7112,2.6902,2.7447,2.7508,2.7188,2.704,2.6954,2.6731,2.668,2.6665,2.6538,2.6538,2.6276,2.5791,2.5703,2.5662,2.5543,2.5335,2.5065,2.4634,2.4461,2.4149,2.379,2.3734,2.3604,2.3604,2.353,2.3593,2.3593,2.3537,2.3531,2.352,2.3576,2.3604,2.3784,2.3818,2.3891,2.4143,2.4131,2.4166,2.42,2.42,2.4189,2.42,2.42,2.4127,2.397,2.3897,2.3824,2.3593,2.3446,2.3298,2.3298,2.315,2.3075,2.3001,2.3001,2.3001,2.3001,2.3001,2.2927,2.2777,2.2553,2.2327,2.2176,2.2025,2.1807,2.1807,2.1807,2.1655,2.1512,2.1369,2.1051,2.0731,2.0566,2.0333,1.9863,1.9469,1.9231,1.9073,1.8843,1.87,1.87,1.8772,1.8603,1.8442,1.8362,1.8371,1.8121,1.8031,1.8031,1.7951,1.7789,1.77,1.77,1.7535,1.7241,1.6973,1.675,1.6324,1.6037,1.5835,1.5639,3.0227,2.9854,2.9293,2.9217,2.9494,2.876,2.8599,2.8835,2.8464,2.8167,2.7909,2.7663,2.7415,2.7281,2.736,2.724,2.6808,2.6534,2.6294,2.6218,2.6065,2.5989,2.5989,2.5824,2.567,2.5527,2.5228,2.4993,2.4837,2.4758,2.4692,2.447,2.4437,2.4106,2.371,2.3547,2.3393,2.3183,2.3075,2.3075,2.3224,2.3224,2.3224,2.3224,2.3446,2.3666,2.3751,2.3666,2.3751,2.3824,2.3824,2.3824,2.3824,2.3824,2.3824,2.3824,2.3824,2.3751,2.3677,2.3666,2.3593,2.3457,2.3372,2.3213,2.315,2.3075,2.3001,2.3001,2.3001,2.3001,2.3001,2.3001,2.2938,2.2692,2.2553,2.2338,2.2111,2.1883,2.1807,2.1807,2.1731,2.1502,2.1265,2.0974,2.0731,2.042,2.0186,1.9803,1.9548,1.9222,1.8993,1.8683,1.8523,1.8442,1.829,1.8442,1.8442,1.8282,1.8121,1.8121,1.804,1.787,1.7789,1.7781,1.7619,1.7465,1.7456,1.7286,1.7098,1.6863,1.6651,1.6476,1.6181,1.6095,1.5889,2.9869,2.9409,2.8969,2.8987,2.9252,2.859,2.8385,2.8621,2.8339,2.8018,2.7777,2.7592,2.7348,2.7103,2.6928,2.6691,2.6378,2.6265,2.6175,2.6006,2.5848,2.578,2.5701,2.5542,2.5462,2.5292,2.5062,2.4751,2.467,2.467,2.4594,2.4454,2.4443,2.4216,2.3816,2.3573,2.3337,2.3102,2.294,2.2864,2.2821,2.2777,2.2852,2.2927,2.315,2.3372,2.353,2.353,2.3519,2.3604,2.3593,2.3593,2.3593,2.3593,2.3593,2.3593,2.3593,2.3593,2.3519,2.3519,2.3446,2.3224,2.3224,2.315,2.3001,2.3001,2.3001,2.3023,2.3176,2.323,2.3274,2.3308,2.3124,2.2724,2.2402,2.2326,2.2234,2.2122,2.2118,2.2107,2.1924,2.1579,2.1243,2.1006,2.0777,2.0499,2.0014,1.9682,1.9414,1.9056,1.8763,1.8442,1.8362,1.8201,1.8121,1.8112,1.8201,1.804,1.7951,1.787,1.7878,1.7708,1.7627,1.7538,1.7456,1.7302,1.7139,1.7057,1.6894,1.673,1.6714,1.6603,1.6492,1.6362,1.6277,3.0075,2.9539,2.9263,2.8954,2.89,2.8335,2.7971,2.781,2.7592,2.7278,2.6962,2.6891,2.6622,2.6279,2.6185,2.608,2.6014,2.6311,2.6382,2.6135,2.6075,2.592,2.5775,2.5732,2.5565,2.5314,2.5231,2.5136,2.4988,2.4956,2.4797,2.4511,2.4458,2.4132,2.3758,2.3727,2.3504,2.3133,2.3037,2.2892,2.2488,2.2542,2.2606,2.2703,2.2713,2.2927,2.3224,2.3298,2.3372,2.3519,2.3519,2.3593,2.3519,2.3564,2.3553,2.3597,2.3649,2.3501,2.3375,2.342,2.34,2.3251,2.3088,2.3176,2.3209,2.3165,2.3165,2.3241,2.3504,2.3733,2.3721,2.3837,2.3616,2.2626,2.2421,2.237,2.2475,2.2501,2.2577,2.2564,2.2301,2.2083,2.1836,2.1472,2.1094,2.0707,2.0292,1.9843,1.9561,1.9037,1.8539,1.8432,1.8322,1.8177,1.8019,1.787,1.787,1.7878,1.7789,1.7708,1.7627,1.7546,1.7465,1.7383,1.7221,1.7057,1.6976,1.6812,1.6812,1.673,1.6722,1.6722,1.6609,1.6577,1.6601,2.9275,2.8803,2.8383,2.8223,2.8143,2.7603,2.729,2.7115,2.6775,2.6528,2.6373,2.6041,2.5874,2.5695,2.56,2.5359,2.52,2.5454,2.5622,2.5695,2.5611,2.5454,2.52,2.52,2.4956,2.4625,2.4529,2.4444,2.4272,2.4262,2.418,2.4002,2.4057,2.3832,2.3422,2.3391,2.3258,2.3168,2.3116,2.3045,2.2857,2.2892,2.2743,2.251,2.2478,2.2553,2.2703,2.2927,2.3139,2.3235,2.3224,2.315,2.3205,2.3479,2.3655,2.3688,2.3996,2.4172,2.4172,2.4084,2.4062,2.4017,2.4006,2.4028,2.4028,2.3995,2.3984,2.3995,2.417,2.4168,2.4021,2.387,2.378,2.3413,2.3145,2.2997,2.2936,2.2827,2.2615,2.2401,2.2113,2.1865,2.1627,2.1313,2.1016,2.0745,2.0355,2.0012,1.9631,1.9349,1.9071,1.8987,1.8648,1.8334,1.8243,1.7994,1.7811,1.7736,1.7596,1.7546,1.7465,1.7302,1.7221,1.7139,1.6976,1.6812,1.673,1.673,1.673,1.673,1.673,1.673,1.673,1.673,1.673,2.8407,2.8099,2.7672,2.7418,2.7244,2.6787,2.6539,2.6385,2.6124,2.5852,2.5695,2.5443,2.52,2.5041,2.4871,2.469,2.4519,2.4519,2.4605,2.4861,2.4861,2.47,2.4529,2.4519,2.4358,2.411,2.4024,2.3937,2.3841,2.3841,2.3841,2.3841,2.3841,2.371,2.3458,2.3418,2.3385,2.3165,2.3166,2.3032,2.2912,2.2897,2.2841,2.2657,2.2615,2.2769,2.2934,2.3154,2.3134,2.2971,2.3079,2.334,2.3558,2.3842,2.4006,2.4071,2.4268,2.4465,2.4486,2.4432,2.4486,2.4486,2.4486,2.4476,2.4476,2.4486,2.4486,2.4486,2.456,2.4567,2.4406,2.4264,2.4235,2.4154,2.3664,2.346,2.3309,2.3174,2.2932,2.2646,2.2383,2.209,2.175,2.1409,2.1056,2.0884,2.0422,2.0075,1.9773,1.9488,1.9393,1.917,1.8888,1.8575,1.8465,1.8146,1.778,1.7631,1.7417,1.7351,1.7302,1.7057,1.6894,1.6894,1.6812,1.6812,1.673,1.673,1.673,1.673,1.673,1.673,1.673,1.673,1.673,2.758,2.7348,2.6962,2.6704,2.6445,2.6185,2.5874,2.5538,2.5454,2.52,2.4946,2.4871,2.4605,2.4282,2.4282,2.411,2.3841,2.3841,2.3744,2.3841,2.3927,2.3927,2.3841,2.3754,2.3667,2.3667,2.3667,2.3667,2.358,2.358,2.3754,2.358,2.358,2.3667,2.3521,2.3647,2.3428,2.3193,2.3227,2.3006,2.2675,2.2655,2.2666,2.301,2.2979,2.313,2.3429,2.3499,2.3417,2.2994,2.3427,2.3874,2.4344,2.4497,2.4519,2.453,2.4552,2.465,2.4618,2.4727,2.4694,2.4716,2.4716,2.4563,2.4705,2.4749,2.4679,2.4668,2.4757,2.4777,2.477,2.4744,2.4809,2.4735,2.3909,2.3526,2.3449,2.3463,2.3219,2.3037,2.2862,2.2589,2.2054,2.1719,2.1462,2.1141,2.0651,2.0245,1.9991,1.9765,1.9419,1.9187,1.9056,1.879,1.8671,1.8283,1.7924,1.7733,1.7462,1.7309,1.7122,1.6902,1.673,1.673,1.673,1.673,1.673,1.673,1.673,1.673,1.673,1.673,1.6648,1.6648,1.6574,2.6682,2.6528,2.603,2.579,2.5695,2.5359,2.5189,2.5031,2.47,2.4529,2.4368,2.4186,2.4003,2.3937,2.3927,2.3667,2.3406,2.3309,2.3057,2.2784,2.2784,2.3057,2.3135,2.296,2.2794,2.2784,2.2872,2.2794,2.2794,2.2882,2.2794,2.2794,2.2872,2.2784,2.2784,2.2794,2.2921,2.3085,2.3142,2.3107,2.3012,2.2932,2.2845,2.2625,2.2717,2.2727,2.2859,2.3082,2.3423,2.3588,2.3799,2.4075,2.4281,2.4734,2.4989,2.5033,2.5306,2.5502,2.5491,2.548,2.5491,2.5535,2.5343,2.5524,2.5535,2.5359,2.5287,2.5297,2.5228,2.4998,2.4935,2.4861,2.4775,2.4423,2.3985,2.3734,2.3533,2.3327,2.3144,2.2882,2.252,2.2157,2.1909,2.1562,2.1293,2.0997,2.0648,2.0462,2.0214,2.0107,1.9804,1.966,1.9482,1.9065,1.8732,1.8335,1.7999,1.7841,1.7578,1.7447,1.71,1.6754,1.6738,1.673,1.673,1.673,1.673,1.673,1.673,1.6648,1.6648,1.6648,1.6648,1.6566,1.6507,2.603,2.5779,2.5369,2.5115,2.4956,2.47,2.4529,2.4433,2.4196,2.3937,2.3851,2.3677,2.3493,2.3406,2.3222,2.3047,2.2784,2.2784,2.2618,2.2441,2.2353,2.253,2.2696,2.253,2.2441,2.2441,2.2441,2.2441,2.2441,2.2441,2.2441,2.2441,2.2441,2.2441,2.2432,2.2441,2.253,2.2784,2.2784,2.2834,2.2879,2.2859,2.2922,2.2695,2.274,2.2824,2.3002,2.3243,2.3588,2.4016,2.4217,2.4363,2.4566,2.4956,2.5211,2.5233,2.5492,2.5622,2.5633,2.5633,2.5633,2.5633,2.5644,2.5633,2.5527,2.5464,2.5464,2.5348,2.52,2.5031,2.4861,2.469,2.4358,2.4013,2.3764,2.3677,2.3319,2.3144,2.2882,2.252,2.2138,2.1872,2.1562,2.1293,2.1024,2.0744,2.0645,2.0439,2.0257,2.0292,2.0184,1.9926,1.962,1.929,1.8938,1.8588,1.8298,1.8121,1.7779,1.7572,1.7278,1.6921,1.6778,1.677,1.6746,1.6648,1.6648,1.6648,1.6648,1.6648,1.6566,1.655,1.646,1.6402,1.6343,2.5549,2.5126,2.4861,2.4529,2.4206,2.412,2.3927,2.3754,2.3667,2.3493,2.3319,2.3144,2.2969,2.2794,2.2618,2.2432,2.2344,2.2441,2.2344,2.2264,2.2176,2.2176,2.2264,2.2264,2.2264,2.2264,2.2353,2.2264,2.2255,2.2264,2.2264,2.2264,2.2264,2.2264,2.2264,2.2264,2.2344,2.2353,2.2441,2.2432,2.2454,2.2541,2.2581,2.2824,2.2892,2.3085,2.3461,2.3644,2.3866,2.4366,2.4439,2.4691,2.5031,2.5094,2.5168,2.5231,2.5242,2.5285,2.52,2.5285,2.5285,2.5285,2.5285,2.52,2.5285,2.52,2.52,2.52,2.4946,2.4775,2.4605,2.4368,2.3927,2.3503,2.3232,2.3057,2.2969,2.2794,2.2539,2.2097,2.1845,2.1587,2.1266,2.1024,2.0654,2.0564,2.0473,2.0382,2.0292,2.0201,2.0019,1.982,1.9629,1.9463,1.9155,1.8948,1.8656,1.839,1.8065,1.7811,1.758,1.7254,1.6969,1.6826,1.6818,1.6696,1.664,1.6558,1.6558,1.6484,1.6409,1.6288,1.6183,1.6139,1.6004,2.47,2.4615,2.4186,2.4003,2.3841,2.3493,2.3309,2.3232,2.2872,2.2784,2.2618,2.2608,2.252,2.252,2.2353,2.2353,2.2185,2.2185,2.2087,2.182,2.183,2.183,2.1909,2.1909,2.1909,2.1909,2.182,2.182,2.1909,2.1909,2.183,2.1909,2.1909,2.182,2.1909,2.1909,2.1998,2.2097,2.2185,2.2264,2.2353,2.2353,2.2441,2.2618,2.2608,2.2794,2.3144,2.3232,2.3444,2.3892,2.4204,2.4405,2.4669,2.4946,2.5115,2.5115,2.5115,2.52,2.52,2.5115,2.52,2.5115,2.5115,2.52,2.52,2.5031,2.4946,2.4861,2.4615,2.4272,2.41,2.357,2.3309,2.3144,2.2794,2.2441,2.2185,2.2185,2.2097,2.182,2.1606,2.132,2.0916,2.0779,2.059,2.0391,2.0382,2.0292,2.0201,2.011,1.9928,1.9654,1.9471,1.9288,1.9112,1.892,1.8748,1.8629,1.8367,1.8176,1.7938,1.7541,1.7257,1.7012,1.6897,1.6775,1.6601,1.6476,1.6394,1.6245,1.617,1.6064,1.5974,1.5914,1.5839,2.4196,2.4024,2.3667,2.3406,2.3232,2.2969,2.2784,2.2696,2.252,2.2441,2.2353,2.2353,2.2264,2.2274,2.2087,2.1998,2.1919,2.1919,2.183,2.1731,2.1741,2.1731,2.1731,2.1731,2.1731,2.1731,2.1731,2.1731,2.1731,2.1731,2.1731,2.1731,2.1731,2.1731,2.1731,2.1642,2.183,2.1919,2.1919,2.1998,2.2087,2.2087,2.2176,2.2274,2.2353,2.253,2.2784,2.2784,2.2872,2.3135,2.3493,2.3841,2.41,2.4348,2.4509,2.4519,2.4519,2.4519,2.4509,2.4519,2.4519,2.4519,2.4519,2.4519,2.4519,2.4433,2.4348,2.4358,2.4186,2.3841,2.3493,2.3309,2.3047,2.2696,2.2344,2.1998,2.1741,2.183,2.1731,2.1454,2.1159,2.0988,2.0753,2.0598,2.0508,2.0382,2.0292,2.0292,2.011,1.9928,1.9737,1.9554,1.9371,1.9096,1.892,1.8827,1.8827,1.8756,1.8661,1.8557,1.8454,1.8016,1.7565,1.7321,1.7077,1.6752,1.6622,1.6399,1.6177,1.5989,1.5906,1.5831,1.5756,1.5673,1.5597,2.3764,2.3406,2.3135,2.2882,2.2706,2.2441,2.2353,2.2353,2.2353,2.2264,2.2255,2.2097,2.2008,2.2008,2.183,2.1741,2.1741,2.1741,2.1741,2.1731,2.1731,2.1642,2.1651,2.1651,2.1553,2.1642,2.1651,2.1651,2.1651,2.1642,2.1463,2.1553,2.1553,2.1553,2.1553,2.1553,2.1553,2.1544,2.1553,2.1544,2.1544,2.1633,2.1731,2.182,2.1998,2.2078,2.2176,2.2274,2.2353,2.2353,2.2618,2.3057,2.3406,2.3657,2.3657,2.3667,2.3744,2.3744,2.3744,2.3754,2.3744,2.3754,2.3754,2.3841,2.3831,2.3917,2.3927,2.3754,2.3667,2.3406,2.3047,2.2882,2.2696,2.2353,2.1909,2.1651,2.1553,2.1553,2.1266,2.1078,2.0898,2.0736,2.0645,2.0482,2.0382,2.0292,2.0292,2.0201,2.0027,1.9745,1.9563,1.9371,1.9188,1.9004,1.8827,1.8827,1.8827,1.8819,1.8796,1.8788,1.8772,1.8352,1.7901,1.7515,1.7203,1.6931,1.6545,1.6377,1.608,1.5801,1.5658,1.5673,1.5514,1.5431,1.5438,2.3222,2.3144,2.2696,2.2441,2.2441,2.2264,2.2097,2.2097,2.1919,2.182,2.182,2.1741,2.1741,2.1741,2.1731,2.1731,2.1642,2.1642,2.1651,2.1642,2.1642,2.1553,2.1472,2.1482,2.1383,2.1195,2.1293,2.1392,2.1383,2.1275,2.1186,2.1177,2.1177,2.1177,2.1186,2.1087,2.1177,2.1177,2.1186,2.1177,2.1177,2.1177,2.1186,2.1266,2.1356,2.1454,2.1553,2.1741,2.1909,2.2087,2.2353,2.253,2.2696,2.296,2.3135,2.3222,2.3222,2.3222,2.3222,2.3222,2.3319,2.3493,2.3503,2.358,2.3667,2.3754,2.358,2.3406,2.3144,2.2882,2.252,2.2441,2.2176,2.183,2.1562,2.1302,2.1015,2.0925,2.0925,2.0727,2.0645,2.0654,2.0473,2.0382,2.0292,2.0201,2.011,2.0027,1.9845,1.9563,1.9279,1.9096,1.9004,1.8912,1.8827,1.8827,1.8827,1.8827,1.8819,1.8727,1.8719,1.8635,1.8232,1.7725,1.7239,1.6893,1.6601,1.6327,1.5963,1.5745,1.5587,1.5438,1.5431,1.5431,1.5431,2.2784,2.2696,2.2353,2.2264,2.2176,2.1998,2.183,2.1741,2.1571,2.1472,2.1374,2.1365,2.1365,2.1365,2.1365,2.1365,2.1365,2.1365,2.1374,2.1365,2.1365,2.1275,2.1195,2.1195,2.1105,2.1006,2.1015,2.1114,2.1195,2.1096,2.0997,2.0997,2.0997,2.0997,2.0997,2.0997,2.0997,2.0997,2.0997,2.0997,2.0997,2.0997,2.0997,2.0988,2.0997,2.1087,2.1186,2.1275,2.1365,2.1544,2.1633,2.1633,2.1802,2.1891,2.2255,2.2608,2.2696,2.2696,2.2696,2.2784,2.2794,2.2882,2.2969,2.2969,2.3057,2.3057,2.3057,2.2891,2.2803,2.253,2.2264,2.1998,2.183,2.1571,2.1302,2.1024,2.0744,2.0564,2.0564,2.0473,2.0473,2.0473,2.0382,2.0292,2.0292,2.0201,2.0027,1.9936,1.9754,1.9471,1.9096,1.9004,1.8912,1.8819,1.8827,1.8827,1.8827,1.8827,1.8827,1.8735,1.8651,1.8458,1.8234,1.7789,1.7304,1.6907,1.6639,1.6396,1.6043,1.5694,1.5577,1.5489,1.5452,1.5431,1.5431,2.2362,2.2353,2.2097,2.1919,2.1919,2.1642,2.1463,2.1293,2.1302,2.1195,2.0997,2.0997,2.0997,2.0988,2.0988,2.0997,2.0997,2.0997,2.0997,2.1087,2.1087,2.0997,2.0916,2.0907,2.0907,2.0736,2.0744,2.0744,2.0916,2.0826,2.0817,2.0817,2.0817,2.0817,2.0817,2.0817,2.0817,2.0817,2.0817,2.0817,2.0817,2.0817,2.0817,2.0817,2.0817,2.0817,2.0826,2.0916,2.0997,2.0997,2.0997,2.1087,2.0997,2.0997,2.1356,2.1989,2.2069,2.2167,2.2078,2.2078,2.2078,2.2176,2.2264,2.2264,2.2353,2.2441,2.2344,2.2264,2.2176,2.2087,2.182,2.1642,2.1463,2.1203,2.0934,2.0654,2.0564,2.0473,2.0382,2.0382,2.0292,2.0292,2.0292,2.0292,2.0292,2.0027,1.9936,1.9662,1.9479,1.9288,1.9004,1.892,1.8827,1.8827,1.8827,1.8827,1.8827,1.8827,1.8735,1.8735,1.855,1.828,1.8048,1.774,1.7442,1.7069,1.6808,1.6499,1.6221,1.595,1.5701,1.554,1.5474,1.5438,1.5431,2.2185,2.2097,2.166,2.1482,2.1482,2.1195,2.1087,2.1087,2.1087,2.0997,2.0907,2.0997,2.0997,2.0907,2.0997,2.0997,2.0997,2.0907,2.0907,2.0907,2.0907,2.0826,2.0744,2.0744,2.0645,2.0555,2.0382,2.0473,2.0645,2.0555,2.0473,2.0464,2.0464,2.0382,2.0473,2.0464,2.0382,2.0382,2.0382,2.0382,2.0382,2.0374,2.0374,2.0382,2.0382,2.0382,2.0374,2.0555,2.0645,2.0727,2.0907,2.0997,2.0997,2.0997,2.0997,2.1177,2.1177,2.1177,2.1266,2.1356,2.1454,2.1553,2.1651,2.1919,2.1998,2.2008,2.2008,2.183,2.1651,2.1463,2.1365,2.1177,2.1006,2.0925,2.0744,2.0564,2.0382,2.0382,2.0292,2.0292,2.0292,2.0292,2.0292,2.0201,2.0201,2.0027,1.9762,1.9571,1.9296,1.9104,1.892,1.8827,1.8827,1.8827,1.8827,1.8827,1.8827,1.8827,1.8735,1.8643,1.8458,1.8179,1.8001,1.7677,1.7416,1.7242,1.6945,1.6704,1.6455,1.6221,1.5994,1.5731,1.5474,1.5467,1.5562,2.1553,2.166,2.1374,2.1195,2.1186,2.1006,2.0907,2.0826,2.0826,2.0736,2.0645,2.0645,2.0645,2.0645,2.0645,2.0555,2.0645,2.0645,2.0645,2.0645,2.0645,2.0564,2.0473,2.0473,2.0382,2.0382,2.0292,2.0382,2.0382,2.0382,2.0292,2.0292,2.0292,2.0201,2.011,2.0119,2.0027,1.9945,1.9936,1.9945,1.9936,1.9936,1.9936,1.9936,1.9945,1.9945,1.9936,2.011,2.0201,2.0292,2.0473,2.0555,2.0555,2.0555,2.0645,2.0645,2.0645,2.0727,2.0997,2.0997,2.1006,2.1096,2.1275,2.1365,2.1454,2.1454,2.1463,2.1374,2.1275,2.1096,2.1006,2.0907,2.0826,2.0744,2.0564,2.0473,2.0382,2.0292,2.0292,2.0292,2.0292,2.0192,2.0102,2.0019,1.9928,1.9837,1.9563,1.9379,1.9196,1.9012,1.892,1.8827,1.8827,1.8827,1.8827,1.8827,1.8827,1.8735,1.8658,1.8558,1.8272,1.7994,1.7807,1.7621,1.739,1.7201,1.7099,1.6923,1.6689,1.6491,1.6301,1.606,1.5855,1.595,1.6023,2.1006,2.1212,2.1006,2.0907,2.0907,2.0817,2.0736,2.0564,2.0564,2.0473,2.0382,2.0292,2.0292,2.0292,2.0292,2.0382,2.0292,2.0292,2.0292,2.0292,2.0292,2.0292,2.0292,2.0292,2.0292,2.0292,2.0201,2.0201,2.0209,2.011,2.011,2.0201,2.0119,2.0027,1.9845,1.9845,1.9762,1.9671,1.9671,1.9679,1.9671,1.9579,1.9579,1.9587,1.9587,1.9587,1.9579,1.9762,1.9845,1.9936,2.0027,2.0119,2.0119,2.0119,2.0119,2.0119,2.0201,2.0374,2.0546,2.0727,2.0817,2.0817,2.0907,2.1006,2.1087,2.0997,2.0997,2.1006,2.0907,2.0916,2.0826,2.0645,2.0654,2.0564,2.0473,2.0382,2.0292,2.0292,2.0201,2.011,2.0102,2.0002,1.992,1.9745,1.9654,1.9646,1.9463,1.9188,1.9004,1.892,1.8827,1.8827,1.8827,1.8827,1.8827,1.8827,1.8827,1.8735,1.8566,1.8381,1.8094,1.79,1.7714,1.752,1.7333,1.7296,1.7208,1.7077,1.693,1.6726,1.6543,1.6522,1.6426,1.6418,1.6389,2.0744,2.0744,2.0744,2.0744,2.0654,2.0473,2.0382,2.0382,2.0382,2.0292,2.0292,2.0292,2.0292,2.0292,2.0292,2.0292,2.0292,2.0292,2.0292,2.0292,2.0292,2.0292,2.0292,2.0292,2.0292,2.0201,2.011,2.0019,1.9936,1.9754,1.9754,1.9837,1.9762,1.9679,1.9579,1.9571,1.9579,1.9496,1.9496,1.9496,1.9496,1.9496,1.9487,1.9587,1.9587,1.9587,1.9587,1.9587,1.9579,1.9579,1.9671,1.9762,1.9762,1.9762,1.9762,1.9762,1.9845,2.0027,2.011,2.0292,2.0374,2.0473,2.0564,2.0744,2.0817,2.0907,2.0907,2.0736,2.0736,2.0564,2.0473,2.0382,2.0382,2.0382,2.0382,2.0292,2.0201,2.0201,2.011,2.0019,1.9928,1.9828,1.9637,1.9554,1.9463,1.9463,1.9288,1.9012,1.892,1.8827,1.8827,1.8827,1.8827,1.8827,1.8827,1.8827,1.8735,1.8651,1.8473,1.8195,1.7822,1.7628,1.7527,1.7426,1.7333,1.7333,1.7326,1.7216,1.7084,1.6923,1.6889,1.6748,1.6704,1.6628,1.6638,2.0473,2.0473,2.0473,2.0473,2.0473,2.0382,2.0292,2.0292,2.0292,2.0292,2.0292,2.0292,2.0292,2.0292,2.0292,2.0292,2.0292,2.0292,2.0292,2.0292,2.0292,2.0292,2.0292,2.0292,2.0192,2.011,1.9936,1.9845,1.9671,1.9487,1.9379,1.9471,1.9487,1.9479,1.9387,1.9204,1.9112,1.9112,1.912,1.9112,1.912,1.9112,1.9112,1.9112,1.912,1.9112,1.9112,1.9288,1.9387,1.9387,1.9496,1.9496,1.9487,1.9579,1.9579,1.9579,1.9671,1.9671,1.9762,2.0027,2.0292,2.0292,2.0382,2.0473,2.0555,2.0555,2.0555,2.0473,2.0473,2.0382,2.0382,2.0292,2.0292,2.0292,2.0292,2.0201,2.0119,2.011,1.9928,1.9745,1.9662,1.9571,1.9463,1.9271,1.9271,1.918,1.9096,1.892,1.8827,1.8827,1.8827,1.8827,1.8827,1.8827,1.8827,1.8735,1.8743,1.8566,1.8381,1.8009,1.7721,1.7527,1.7333,1.7333,1.7333,1.7333,1.7333,1.7333,1.7245,1.7113,1.7099,1.7128,1.6999,1.6926,1.6832,2.0119,2.0119,2.0119,2.0201,2.0292,2.0292,2.0292,2.0292,2.0292,2.0292,2.0292,2.0292,2.0292,2.0292,2.0292,2.0292,2.0292,2.0292,2.0292,2.0292,2.0292,2.0292,2.0201,2.011,2.0019,1.9837,1.9654,1.9571,1.9479,1.9104,1.902,1.902,1.9112,1.902,1.8928,1.8735,1.855,1.855,1.855,1.8643,1.855,1.855,1.8643,1.8643,1.8643,1.8643,1.8643,1.8827,1.8928,1.902,1.9112,1.9304,1.9304,1.9396,1.9396,1.9396,1.9396,1.9487,1.9579,1.9845,2.0119,2.0027,2.011,2.0201,2.0201,2.0201,2.0382,2.0292,2.0292,2.0292,2.0292,2.0292,2.0201,2.0201,2.011,2.0019,1.9936,1.9853,1.9662,1.9479,1.9479,1.9379,1.9196,1.9096,1.9096,1.9004,1.8912,1.8827,1.8827,1.8827,1.8827,1.8827,1.8827,1.8827,1.8827,1.8743,1.8566,1.828,1.8094,1.7815,1.7621,1.7426,1.7333,1.7333,1.7333,1.7333,1.7333,1.7333,1.7333,1.7311,1.7296,1.7267,1.726,1.7094,1.7137,1.9579,1.9587,1.9671,1.9845,2.0201,2.0292,2.0292,2.0201,2.0201,2.0201,2.0201,2.0201,2.0292,2.0292,2.0292,2.0292,2.0292,2.0292,2.0292,2.0292,2.0201,2.011,2.0019,1.9928,1.9845,1.9579,1.9387,1.9288,1.9196,1.8843,1.8666,1.8473,1.8365,1.8373,1.8473,1.828,1.8087,1.8094,1.8179,1.8087,1.8179,1.8179,1.8179,1.8272,1.8272,1.8265,1.8272,1.8465,1.8558,1.8658,1.8735,1.8835,1.8827,1.8827,1.8928,1.8928,1.9104,1.9196,1.9288,1.9487,1.9579,1.9762,1.9845,1.9936,1.9936,2.011,2.0201,2.0119,2.0201,2.0209,2.0292,2.0201,2.0119,2.0027,1.9936,1.9837,1.9662,1.9571,1.9479,1.9288,1.9188,1.9096,1.892,1.8827,1.8827,1.8827,1.8827,1.8827,1.8827,1.8827,1.8827,1.8827,1.8827,1.8827,1.8735,1.8658,1.8473,1.8187,1.79,1.7721,1.7527,1.7333,1.7333,1.7333,1.7333,1.7333,1.7333,1.7333,1.7333,1.7333,1.7333,1.7318,1.7333,1.7333,1.7333,1.9587,1.9587,1.9587,1.9671,1.9853,1.9853,1.9853,1.9853,1.9853,1.9853,1.9845,1.9936,2.0027,2.0119,2.0201,2.0292,2.0292,2.0292,2.0292,2.0292,2.0119,2.0019,1.9837,1.9754,1.9571,1.9387,1.9196,1.9012,1.8751,1.8481,1.8381,1.8187,1.7807,1.7807,1.8094,1.7994,1.7815,1.7815,1.7714,1.7613,1.7815,1.7815,1.7908,1.7994,1.7994,1.7994,1.7994,1.8094,1.8187,1.8195,1.8365,1.8365,1.8458,1.8458,1.8566,1.8651,1.8835,1.892,1.892,1.9112,1.9304,1.9487,1.9671,1.9671,1.9762,1.977,1.9862,1.9853,1.9936,1.9853,1.9853,1.9853,1.9762,1.9762,1.9671,1.9571,1.9479,1.9379,1.9188,1.9012,1.8912,1.8912,1.8827,1.8827,1.8827,1.8827,1.8827,1.8827,1.8827,1.8827,1.8827,1.8827,1.8827,1.8827,1.8735,1.8566,1.8373,1.8087,1.79,1.7628,1.7434,1.7333,1.7333,1.7333,1.7333,1.7333,1.7333,1.7333,1.7333,1.7333,1.7333,1.7333,1.7333,1.7333,1.7333,1.9304,1.9296,1.9304,1.9304,1.9396,1.9496,1.9587,1.9587,1.9587,1.9587,1.9671,1.9762,1.9754,1.9845,1.9936,2.0027,2.0027,2.0027,2.0027,2.0027,1.9845,1.9754,1.9662,1.9479,1.9288,1.9104,1.8928,1.8751,1.8574,1.8288,1.8009,1.7628,1.7333,1.7246,1.7434,1.734,1.7246,1.7246,1.7145,1.7153,1.7246,1.734,1.7347,1.7527,1.752,1.752,1.7621,1.7621,1.7714,1.7807,1.79,1.7994,1.8094,1.8187,1.8381,1.8373,1.8566,1.8651,1.8751,1.8827,1.902,1.9204,1.9387,1.9479,1.9487,1.9579,1.9587,1.9587,1.9587,1.9587,1.9587,1.9587,1.9487,1.9487,1.9387,1.9296,1.9196,1.9096,1.9096,1.8827,1.8827,1.8827,1.8827,1.8827,1.8827,1.8827,1.8827,1.8827,1.8827,1.8827,1.8827,1.8827,1.8735,1.8735,1.8651,1.8473,1.8187,1.7986,1.7707,1.7535,1.7434,1.7333,1.7333,1.7333,1.7333,1.7333,1.7333,1.7333,1.7333,1.7333,1.7333,1.7333,1.7333,1.7333,1.7333,1.8827,1.8827,1.8827,1.8827,1.8928,1.9304,1.9487,1.9579,1.9579,1.9487,1.9587,1.9487,1.9579,1.9579,1.9579,1.9671,1.9671,1.9679,1.9679,1.9671,1.9579,1.9479,1.9288,1.9188,1.9104,1.8835,1.8658,1.8566,1.8381,1.7916,1.7448,1.7066,1.6676,1.6676,1.6581,1.6588,1.6588,1.6581,1.6494,1.6494,1.6487,1.6588,1.6581,1.6669,1.6763,1.6763,1.6864,1.6972,1.7153,1.7246,1.7527,1.7714,1.7908,1.7994,1.8087,1.8187,1.8381,1.8481,1.8481,1.8651,1.8743,1.8928,1.9104,1.9188,1.9196,1.9296,1.9396,1.9396,1.9396,1.9496,1.9496,1.9487,1.9396,1.9296,1.9196,1.9104,1.892,1.8827,1.8827,1.8827,1.8827,1.8827,1.8827,1.8827,1.8827,1.8827,1.8827,1.8827,1.8827,1.8827,1.8827,1.8827,1.8735,1.8651,1.8558,1.8288,1.8094,1.7807,1.7613,1.7333,1.7333,1.7333,1.7333,1.7333,1.7333,1.7333,1.7333,1.7333,1.7333,1.7333,1.7333,1.7333,1.7333,1.7333,1.7333,1.8827,1.8827,1.8827,1.8827,1.8827,1.8928,1.9028,1.902,1.902,1.9012,1.9012,1.9196,1.9296,1.9288,1.9487,1.9579,1.9579,1.9587,1.9587,1.9487,1.9396,1.9288,1.9196,1.9012,1.892,1.8743,1.8566,1.8381,1.8094,1.7535,1.6979,1.6501,1.6211,1.6015,1.5832,1.5648,1.5832,1.5927,1.5743,1.5737,1.5825,1.5825,1.592,1.6015,1.6197,1.6197,1.6298,1.6494,1.6683,1.6777,1.6871,1.6965,1.6965,1.7254,1.7347,1.7815,1.8094,1.8187,1.828,1.8473,1.8566,1.8658,1.8835,1.892,1.892,1.9012,1.9112,1.9112,1.912,1.9212,1.9212,1.9112,1.9112,1.9104,1.9012,1.892,1.8827,1.8827,1.8827,1.8827,1.8827,1.8827,1.8827,1.8827,1.8827,1.8827,1.8827,1.8827,1.8827,1.8827,1.8743,1.8743,1.8651,1.8566,1.8381,1.8102,1.7916,1.7721,1.7434,1.7333,1.7333,1.7333,1.7333,1.7333,1.7333,1.7333,1.7333,1.7333,1.7333,1.7333,1.7333,1.7333,1.7333,1.7333,1.7333,1.8827,1.8827,1.8827,1.8827,1.8827,1.8827,1.8827,1.8827,1.8827,1.8827,1.8835,1.9012,1.9004,1.9104,1.9204,1.9304,1.9204,1.9212,1.9212,1.9204,1.9112,1.9104,1.892,1.892,1.8743,1.8651,1.8465,1.8187,1.7807,1.7246,1.6588,1.6116,1.5832,1.5547,1.5356,1.5172,1.5172,1.5267,1.5261,1.5166,1.5166,1.5255,1.5356,1.5452,1.573,1.573,1.5825,1.6021,1.6021,1.6109,1.6103,1.6298,1.6393,1.6683,1.6878,1.7246,1.7613,1.7707,1.7807,1.8187,1.828,1.8381,1.8558,1.8651,1.8735,1.8835,1.8835,1.8827,1.8827,1.8827,1.8827,1.8827,1.8827,1.8827,1.8827,1.8827,1.8827,1.8827,1.8827,1.8827,1.8827,1.8827,1.8827,1.8827,1.8827,1.8827,1.8735,1.8743,1.8743,1.8743,1.8651,1.8658,1.8574,1.8481,1.8202,1.7916,1.7721,1.7527,1.7434,1.7333,1.7333,1.7333,1.7333,1.7333,1.7333,1.7333,1.7333,1.7333,1.7333,1.7333,1.7333,1.7333,1.7333,1.7333,1.7333,1.8735,1.8735,1.8735,1.8735,1.8735,1.8735,1.8735,1.8735,1.8743,1.8727,1.8827,1.8827,1.8819,1.892,1.892,1.892,1.892,1.8928,1.8928,1.8835,1.892,1.8827,1.8827,1.8827,1.8743,1.8473,1.8187,1.79,1.7441,1.6878,1.6305,1.5825,1.554,1.5356,1.5077,1.4694,1.4598,1.4598,1.4694,1.4796,1.4892,1.4981,1.4981,1.4987,1.4987,1.4981,1.5083,1.5083,1.5172,1.535,1.5432,1.5724,1.592,1.6298,1.6487,1.6676,1.7052,1.7239,1.7426,1.7707,1.79,1.8094,1.8288,1.8381,1.8465,1.8735,1.8735,1.8827,1.8827,1.8827,1.8827,1.8827,1.8827,1.8827,1.8827,1.8827,1.8827,1.8827,1.8827,1.8827,1.8827,1.8827,1.8827,1.8827,1.8743,1.8735,1.8743,1.8658,1.8558,1.8558,1.8558,1.8473,1.8295,1.8202,1.7916,1.7721,1.7527,1.7434,1.7333,1.7333,1.7333,1.7333,1.7333,1.7333,1.7333,1.7333,1.7333,1.7333,1.7333,1.7333,1.7333,1.7333,1.7333,1.7333,1.7333,1.8465,1.8265,1.8272,1.8272,1.8265,1.8272,1.8265,1.8272,1.8473,1.8651,1.8735,1.8827,1.8827,1.8827,1.8827,1.8827,1.8827,1.8827,1.8827,1.8827,1.8827,1.8827,1.8827,1.8735,1.8651,1.8473,1.8187,1.7621,1.7059,1.6501,1.6028,1.5547,1.5356,1.5077,1.479,1.4406,1.4214,1.4118,1.4022,1.4124,1.422,1.4027,1.3931,1.4022,1.4112,1.4298,1.449,1.4688,1.4885,1.5077,1.5166,1.5261,1.5356,1.573,1.592,1.6109,1.6494,1.6676,1.6864,1.7239,1.7426,1.7721,1.7916,1.8094,1.8272,1.8643,1.8743,1.8751,1.8827,1.8827,1.8827,1.8827,1.8827,1.8827,1.8827,1.8827,1.8827,1.8827,1.8827,1.8827,1.8827,1.8735,1.8735,1.8735,1.8743,1.8658,1.8566,1.8473,1.828,1.8272,1.8179,1.8094,1.8001,1.7822,1.7628,1.7527,1.7434,1.7333,1.7333,1.7333,1.7333,1.7333,1.7333,1.7333,1.7333,1.7333,1.7333,1.7333,1.7333,1.7333,1.7333,1.7333,1.7333,1.7333,1.7333,1.8187,1.8087,1.8087,1.8087,1.8087,1.8087,1.8087,1.8094,1.828,1.8373,1.855,1.8643,1.8827,1.8827,1.8827,1.8827,1.8827,1.8827,1.8827,1.8827,1.8827,1.8827,1.8827,1.8743,1.8465,1.8288,1.7822,1.716,1.6588,1.6116,1.5832,1.5363,1.5077,1.4694,1.4412,1.4027,1.3835,1.3738,1.3443,1.3443,1.3545,1.3545,1.3448,1.3539,1.363,1.3817,1.3913,1.4112,1.4208,1.4406,1.4592,1.4688,1.4879,1.5261,1.5452,1.5642,1.5927,1.6204,1.6393,1.6676,1.7059,1.7276,1.761,1.7946,1.832,1.8509,1.8613,1.8684,1.8589,1.8651,1.8651,1.8651,1.8735,1.8827,1.8827,1.8827,1.8827,1.8827,1.8743,1.8658,1.8651,1.8535,1.8542,1.8365,1.8373,1.8373,1.828,1.8187,1.8001,1.79,1.7893,1.78,1.7714,1.7621,1.7426,1.7426,1.7333,1.7333,1.7333,1.7333,1.7333,1.7333,1.7333,1.7333,1.7333,1.7333,1.7333,1.7333,1.7333,1.7333,1.7333,1.7333,1.7333,1.7333,1.7333,1.7994,1.7986,1.7986,1.7994,1.7986,1.7994,1.7994,1.7994,1.8087,1.8087,1.8087,1.8458,1.8643,1.8735,1.8735,1.8743,1.8735,1.8827,1.8827,1.8827,1.8735,1.8743,1.8651,1.8558,1.828,1.7908,1.734,1.6965,1.6588,1.6116,1.5547,1.5077,1.4796,1.4406,1.4027,1.3835,1.3738,1.3443,1.3249,1.3055,1.3152,1.3244,1.3346,1.3352,1.3443,1.3443,1.3443,1.3437,1.3437,1.363,1.4016,1.4112,1.44,1.4694,1.4885,1.5077,1.5458,1.5642,1.5832,1.6204,1.6529,1.6904,1.7412,1.7845,1.8119,1.8334,1.8437,1.8434,1.844,1.8543,1.8645,1.8722,1.8808,1.8808,1.8808,1.8808,1.8808,1.88,1.8715,1.8621,1.8551,1.8435,1.8349,1.817,1.8125,1.8117,1.8001,1.7908,1.7714,1.7714,1.7613,1.7613,1.7527,1.7426,1.7326,1.7326,1.7333,1.7333,1.7333,1.7333,1.7333,1.7333,1.7333,1.7333,1.7333,1.7333,1.7333,1.7333,1.7333,1.7333,1.7333,1.7333,1.7333,1.7333,1.7333,1.7621,1.7419,1.7419,1.7419,1.7426,1.752,1.7426,1.752,1.7714,1.7721,1.7807,1.8087,1.8272,1.8272,1.8473,1.8574,1.8558,1.8643,1.8735,1.8827,1.8558,1.8566,1.8473,1.828,1.7994,1.7621,1.7059,1.6683,1.64,1.5927,1.5452,1.5083,1.479,1.4406,1.3931,1.3738,1.3443,1.3249,1.3055,1.2861,1.2861,1.2958,1.2958,1.2958,1.2958,1.305,1.3147,1.3147,1.3346,1.3443,1.363,1.363,1.3823,1.4118,1.44,1.4592,1.4975,1.5204,1.5402,1.5803,1.6143,1.658,1.7058,1.7449,1.7752,1.8094,1.8149,1.8262,1.8424,1.8768,1.8947,1.8916,1.8997,1.8997,1.8997,1.8997,1.8997,1.8989,1.8989,1.8843,1.8863,1.8673,1.8491,1.8335,1.8199,1.8168,1.7905,1.771,1.7601,1.7478,1.7441,1.7426,1.7426,1.7333,1.7333,1.7333,1.7333,1.7333,1.7333,1.7333,1.7333,1.7333,1.7333,1.7333,1.7333,1.7333,1.7333,1.7333,1.7333,1.7333,1.7333,1.7333,1.7333,1.7333,1.7333]},{"header":{"parameterUnit":"m.s-1","parameterCategory":1,"la1":31.0,"la2":29.5877,"lo1":-88.7671,"lo2":-86.6584,"dy":0.0162,"dx":0.0185,"nx":115,"ny":88,"refTime":"2023-07-21T06:00:00:Z","depth":0,"parameterNumber":3,"parameterNumberName":"V-component_of_WINDS"},"data":[0.0,0.0,0.0,0.0,0.0,0.0,0.0,0.0,0.0,0.0,0.0,0.0,0.0,0.0,0.0,0.0,0.0,0.0,0.0,0.0,0.0,0.0,0.0,0.0,0.0,0.0,0.0,0.0,0.0,0.0,0.0,0.0,0.0,0.0,0.0,0.0,0.0,0.0,0.0,0.0,0.0,0.0,0.0,0.0,0.0,0.0,0.0,0.0,0.0,0.0,0.0,0.0,0.0,0.0,0.0,0.0,0.0,0.0,0.0,0.0,0.0,0.0,0.0,0.0,0.0,0.0,0.0,0.0,0.0,0.0,0.0,0.0,0.0,0.0,0.0,0.0,0.0,0.0,0.0,0.0,0.0,0.0,0.0,0.0,0.0,0.0,0.0,0.0,0.0,0.0,0.0,0.0,0.0,0.0,0.0,0.0,0.0,0.0,0.0,0.0,0.0,0.0,0.0,0.0,0.0,0.0,0.0,0.0,0.0,0.0,0.0,0.0,0.0,0.0,0.0,0.0,0.0,0.0,0.0,0.0,0.0,0.0,0.0,0.0,0.0,0.0,0.0,0.0,0.0,0.0,0.0,0.0,0.0,0.0,0.0,0.0,0.0,0.0,0.0,0.0,0.0,0.0,0.0,0.0,0.0,0.0,0.0,0.0,0.0,0.0,0.0,0.0,0.0,0.0,0.0,0.0,0.0,0.0,0.0,0.0,0.0,0.0,0.0,0.0,0.0,0.0,0.0,0.0,0.0,0.0,0.0,0.0,0.0,0.0,0.0,0.0,0.0,0.0,0.0,0.0,0.0,0.0,0.0,0.0,0.0,0.0,0.0,0.0,0.0,0.0,0.0,0.0,0.0,0.0,0.0,0.0,0.0,0.0,0.0,0.0,0.0,0.0,0.0,0.0,0.0,0.0,0.0,0.0,0.0,0.0,0.0,0.0,0.0,0.0,0.0,0.0,0.0,0.0,0.0,0.0,0.0,0.0,0.0,0.0,0.0,0.0,0.0,0.0,0.0,0.0,0.0,0.0,0.0,0.0,0.0,0.0,0.0,0.0,0.0,0.0,0.0,0.0,0.0,0.0,0.0,0.0,0.0,0.0,0.0,0.0,0.0,0.0,0.0,0.0,0.0,0.0,0.0,0.0,0.0,0.0,0.0,0.0,0.0,0.0,0.0,0.0,0.0,0.0,0.0,0.0,0.0,0.0,0.0,0.0,0.0,0.0,0.0,0.0,0.0,0.0,0.0,0.0,0.0,0.0,0.0,0.0,0.0,0.0,0.0,0.0,0.0,0.0,0.0,0.0,0.0,0.0,0.0,0.0,0.0,0.0,0.0,0.0,0.0,0.0,0.0,0.0,0.0,0.0,0.0,0.0,0.0,0.0,0.0,0.0,0.0,0.0,0.0,0.0,0.0,0.0,0.0,0.0,0.0,0.0,0.0,0.0,0.0,0.0,0.0,0.0,0.0,0.0,0.0,0.0,0.0,0.0,0.0,0.0,0.0,0.0,0.0,0.0,0.0,0.0,0.0,0.0,0.0,0.0,0.0,0.0,0.0,0.0,0.0,0.0,0.0,0.0,0.0,0.0,0.0,0.0,0.0,0.0,0.0,0.0,0.0,0.0,0.0,0.0,0.0,0.0,0.0,0.0,0.0,0.0,0.0,0.0,0.0,0.0,0.0,0.0,0.0,0.0,0.0,0.0,0.0,0.0,0.0,0.0,0.0,0.0,0.0,0.0,0.0,0.0,0.0,0.0,0.0,0.0,0.0,0.0,0.0,0.0,0.0,0.0,0.0,0.0,0.0,0.0,0.0,0.0,0.0,0.0,0.0,0.0,0.0,0.0,0.0,0.0,0.0,0.0,0.0,0.0,0.0,0.0,0.0,0.0,0.0,0.0,0.0,0.0,0.0,0.0,0.0,0.0,0.0,0.0,0.0,0.0,0.0,0.0,0.0,0.0,0.0,0.0,0.0,0.0,0.0,0.0,0.0,0.0,0.0,0.0,0.0,0.0,0.0,0.0,0.0,0.0,0.0,0.0,0.0,0.0,0.0,0.0,0.0,0.0,0.0,0.0,0.0,0.0,0.0,0.0,0.0,0.0,0.0,0.0,0.0,0.0,0.0,0.0,0.0,0.0,0.0,0.0,0.0,0.0,0.0,0.0,0.0,0.0,0.0,0.0,0.0,0.0,0.0,0.0,0.0,0.0,0.0,0.0,0.0,0.0,0.0,0.0,0.0,0.0,0.0,0.0,0.0,0.0,0.0,0.0,0.0,0.0,0.0,0.0,0.0,0.0,0.0,0.0,0.0,0.0,0.0,0.0,0.0,0.0,0.0,0.0,0.0,0.0,0.0,0.0,0.0,0.0,0.0,0.0,0.0,0.0,0.0,0.0,0.0,0.0,0.0,0.0,0.0,0.0,0.0,0.0,0.0,0.0,0.0,0.0,0.0,0.0,0.0,0.0,0.0,0.0,0.0,0.0,0.0,0.0,0.0,0.0,0.0,0.0,0.0,0.0,0.0,0.0,0.0,0.0,0.0,0.0,0.0,0.0,0.0,0.0,0.0,0.0,0.0,0.0,0.0,0.0,0.0,0.0,0.0,0.0,0.0,0.0,0.0,0.0,0.0,0.0,0.0,0.0,0.0,0.0,0.0,0.0,0.0,0.0,0.0,0.0,0.0,0.0,0.0,0.0,0.0,0.0,0.0,0.0,0.0,0.0,0.0,0.0,0.0,0.0,0.0,0.0,0.0,0.0,0.0,0.0,0.0,0.0,0.0,0.0,0.0,0.0,0.0,0.0,0.0,0.0,0.0,0.0,0.0,0.0,0.0,0.0,0.0,0.0,0.0,0.0,0.0,0.0,0.0,0.0,0.0,0.0,0.0,0.0,0.0,0.0,0.0,0.0,0.0,0.0,0.0,0.0,0.0,0.0,0.0,0.0,0.0,0.0,0.0,0.0,0.0,0.0,0.0,0.0,0.0,0.0,0.0,0.0,0.0,0.0,0.0,0.0,0.0,0.0,0.0,0.0,0.0,0.0,0.0,0.0,0.0,0.0,0.0,0.0,0.0,0.0,0.0,0.0,0.0,0.0,0.0,0.0,0.0,0.0,0.0,0.0,0.0,0.0,0.0,0.0,0.0,0.0,0.0,0.0,0.0,0.0,0.0,0.0,0.0,0.0,0.0,0.0,0.0,0.0,0.0,0.0,0.0,0.0,0.0,0.0,0.0,0.0,0.0,0.0,0.0,0.0,0.0,0.0,0.0,0.0,0.0,0.0,0.0,0.0,0.0,0.0,0.0,0.0,0.0,0.0,0.0,0.0,0.0,0.0,0.0,0.0,0.0,0.0,0.0,0.0,0.0,0.0,0.0,0.0,0.0,0.0,0.0,0.0,0.0,0.0,0.0,0.0,0.0,0.0,0.0,0.0,0.0,0.0,0.0,0.0,0.0,0.0,0.0,0.0,0.0,0.0,0.0,0.0,0.0,0.0,0.0,0.0,0.0,0.0,0.0,0.0,0.0,0.0,0.0,0.0,0.0,0.0,0.0,0.0,0.0,0.0,0.0,0.0,0.0,0.0,0.0,0.0,0.0,0.0,0.0,0.0,0.0,0.0,0.0,0.0,0.0,0.0,0.0,0.0,0.0,0.0,0.0,0.0,0.0,0.0,0.0,0.0,0.0,0.0,0.0,0.0,0.0,0.0,0.0,0.0,0.0,0.0,0.0,0.0,0.0,0.0,0.0,0.0,0.0,0.0,0.0,0.0,0.0,0.0,0.0,0.0,0.0,0.0,0.0,0.0,0.0,0.0,0.0,0.0,0.0,0.0,0.0,0.0,0.0,0.0,0.0,0.0,0.0,0.0,0.0,0.0,0.0,0.0,0.0,0.0,0.0,0.0,0.0,0.0,0.0,0.0,0.0,0.0,0.0,0.0,0.0,0.0,0.0,0.0,0.0,0.0,0.0,0.0,0.0,0.0,0.0,0.0,0.0,0.0,0.0,0.0,0.0,0.0,0.0,0.0,0.0,0.0,0.0,0.0,0.0,0.0,0.0,0.0,0.0,0.0,0.0,0.0,0.0,0.0,0.0,0.0,0.0,0.0,0.0,0.0,0.0,0.0,0.0,0.0,0.0,0.0,0.0,0.0,0.0,0.0,0.0,0.0,0.0,0.0,0.0,0.0,0.0,0.0,0.0,0.0,0.0,0.0,0.0,0.0,0.0,0.0,0.0,0.0,0.0,0.0,0.0,0.0,0.0,0.0,0.0,0.0,0.0,0.0,-0.2873,0.0,0.0,0.0,0.0,0.0,0.0,0.0,0.0,0.0,0.0,0.0,0.0,0.0,0.0,0.0,0.0,0.0,0.0,0.0,0.0,0.0,0.0,0.0,0.0,0.0,0.0,0.0,0.0,0.0,0.0,0.0,0.0,0.0,0.0,0.0,0.0,0.0,0.0,0.0,0.0,0.0,0.0,0.0,0.0,0.0,0.0,0.0,0.0,0.0,0.0,0.0,0.0,0.0,0.0,0.0,0.0,0.0,0.0,0.0,0.0,0.0,0.0,0.0,0.0,0.0,0.0,0.0,0.0,0.0,0.0,0.0,0.0,0.0,0.0,0.0,0.0,0.0,0.0,0.0,0.0,0.0,0.0,0.0,0.0,0.0,0.0,0.0,0.0,0.0,0.0,0.0,0.0,0.0,0.0,0.0,0.0,0.0,0.0,0.0,0.0,0.0,0.0,0.0,0.0,0.0,0.0,0.0,0.0,0.0,0.0,-0.2854,-0.2909,-0.2951,-0.3014,-0.3086,0.0,0.0,0.0,0.0,0.0,0.0,0.0,0.0,0.0,0.0,0.0,0.0,0.0,0.0,0.0,0.0,0.0,0.0,0.0,0.0,0.0,0.0,0.0,0.0,0.0,0.0,0.0,0.0,0.0,0.0,0.0,0.0,0.0,0.0,0.0,0.0,0.0,0.0,0.0,0.0,0.0,0.0,0.0,0.0,0.0,0.0,0.0,0.0,0.0,0.0,0.0,0.0,0.0,0.0,0.0,0.0,0.0,0.0,0.0,0.0,0.0,0.0,0.0,0.0,0.0,0.0,0.0,0.0,0.0,0.0,0.0,0.0,0.0,0.0,0.0,0.0,0.0,0.0,0.0,0.0,0.0,0.0,0.0,0.0,0.0,0.0,0.0,0.0,0.0,0.0,0.0,0.0,0.0,0.0,0.0,0.0,0.0,0.0,0.0,0.0,0.0,0.0,0.0,0.0,0.0,0.0,0.0,0.0,0.0,0.0,0.0,0.0,-0.2948,-0.3078,-0.3255,0.0,0.0,0.0,0.0,0.0,0.0,0.0,0.0,0.0,0.0,0.0,0.0,0.0,0.0,0.0,0.0,0.0,0.0,0.0,0.0,0.0,0.0,0.0,0.0,0.0,0.0,0.0,0.0,0.0,0.0,0.0,0.0,0.0,0.0,0.0,0.0,0.0,0.0,0.0,0.0,0.0,0.0,0.0,0.0,0.0,0.0,0.0,0.0,0.0,0.0,0.0,0.0,0.0,0.0,0.0,0.0,0.0,0.0,0.0,0.0,0.0,0.0,0.0,0.0,0.0,0.0,0.0,0.0,0.0,0.0,0.0,0.0,0.0,0.0,0.0,0.0,0.0,0.0,0.0,0.0,0.0,0.0,0.0,0.0,0.0,0.0,0.0,0.0,0.0,0.0,0.0,0.0,0.0,0.0,0.0,0.0,0.0,0.0,0.0,0.0,0.0,0.0,0.0,0.0,0.0,0.0,0.0,0.0,0.0,0.0,-0.2909,-0.2909,-0.2948,0.0,-0.335,0.0,0.0,0.0,0.0,0.0,0.0,0.0,0.0,0.0,0.0,0.0,0.0,0.0,0.0,0.0,0.0,0.0,0.0,0.0,0.0,0.0,0.0,0.0,0.0,0.0,0.0,0.0,0.0,0.0,0.0,0.0,0.0,0.0,0.0,0.0,0.0,0.0,0.0,0.0,0.0,0.0,0.0,0.0,0.0,0.0,0.0,0.0,0.0,0.0,0.0,0.0,0.0,0.0,0.0,0.0,0.0,0.0,0.0,0.0,0.0,0.0,0.0,0.0,0.0,0.0,0.0,0.0,0.0,0.0,0.0,0.0,0.0,0.0,0.0,0.0,0.0,0.0,0.0,0.0,0.0,0.0,0.0,0.0,0.0,0.0,0.0,0.0,0.0,0.0,0.0,0.0,0.0,0.0,0.0,0.0,0.0,0.0,0.0,0.0,0.0,0.0,0.0,0.0,0.0,0.0,0.0,0.0,0.0,0.0,0.0,-0.2909,-0.2951,-0.3129,-0.335,0.0,0.0,0.0,0.0,0.0,0.0,0.0,0.0,0.0,0.0,0.0,0.0,0.0,0.0,0.0,0.0,0.0,0.0,0.0,0.0,0.0,0.0,0.0,0.0,0.0,0.0,0.0,0.0,0.0,0.0,0.0,0.0,0.0,0.0,0.0,0.0,0.0,0.0,0.0,0.0,0.0,0.0,0.0,0.0,0.0,0.0,0.0,0.0,0.0,0.0,0.0,0.0,0.0,0.0,0.0,0.0,0.0,0.0,0.0,0.0,0.0,0.0,0.0,0.0,0.0,0.0,0.0,0.0,0.0,0.0,0.0,0.0,0.0,0.0,0.0,0.0,0.0,0.0,0.0,0.0,0.0,0.0,0.0,0.0,0.0,0.0,0.0,0.0,0.0,0.0,0.0,0.0,0.0,0.0,0.0,0.0,0.0,0.0,0.0,0.0,0.0,0.0,0.0,0.0,0.0,0.0,0.0,0.0,0.0,0.0,-0.2909,-0.2996,-0.3123,-0.3306,-0.3442,-0.3578,0.0,0.0,0.0,0.0,0.0,0.0,0.0,0.0,0.0,0.0,0.0,0.0,0.0,0.0,0.0,0.0,0.0,0.0,0.0,0.0,0.0,0.0,0.0,0.0,0.0,0.0,0.0,0.0,0.0,0.0,0.0,0.0,0.0,0.0,0.0,0.0,0.0,0.0,0.0,0.0,0.0,0.0,0.0,0.0,0.0,0.0,0.0,0.0,0.0,0.0,0.0,0.0,0.0,0.0,0.0,0.0,0.0,0.0,0.0,0.0,0.0,0.0,0.0,0.0,0.0,0.0,0.0,0.0,0.0,0.0,0.0,0.0,0.0,0.0,0.0,0.0,0.0,0.0,0.0,0.0,0.0,0.0,0.0,0.0,0.0,0.0,0.0,0.0,0.0,0.0,0.0,0.0,0.0,0.0,0.0,0.0,0.0,0.0,0.0,0.0,0.0,0.0,0.0,0.0,0.0,0.0,0.0,0.0,-0.2909,-0.2948,-0.3123,-0.335,-0.3394,-0.3442,0.0,0.0,0.0,0.0,0.0,0.0,0.0,0.0,0.0,0.0,0.0,0.0,0.0,0.0,0.0,0.0,0.0,0.0,0.0,0.0,0.0,0.0,0.0,0.0,0.0,0.0,0.0,0.0,0.0,0.0,0.0,0.0,0.0,0.0,0.0,0.0,0.0,0.0,0.0,0.0,0.0,0.0,0.0,0.0,0.0,0.0,0.0,0.0,0.0,0.0,0.0,0.0,0.0,0.0,0.0,0.0,0.0,0.0,0.0,0.0,0.0,0.0,0.0,0.0,0.0,0.0,0.0,0.0,0.0,0.0,0.0,0.0,0.0,0.0,0.0,0.0,0.0,0.0,0.0,0.0,0.0,0.0,0.0,0.0,0.0,0.0,0.0,0.0,0.0,0.0,0.0,0.0,0.0,0.0,0.0,0.0,0.0,0.0,0.0,0.0,0.0,0.0,0.0,0.0,0.0,0.0,0.0,0.0,0.0,-0.2993,-0.3129,-0.3306,-0.3398,-0.3486,-0.3534,0.0,0.0,0.0,0.0,0.0,0.0,0.0,0.0,0.0,0.0,0.0,0.0,0.0,0.0,0.0,0.0,0.0,0.0,0.0,0.0,0.0,0.0,0.0,0.0,0.0,0.0,0.0,0.0,0.0,0.0,0.0,0.0,0.0,0.0,0.0,0.0,0.0,0.0,0.0,0.0,0.0,0.0,0.0,0.0,0.0,0.0,0.0,0.0,0.0,0.0,0.0,0.0,0.0,0.0,0.0,0.0,0.0,0.0,0.0,0.0,0.0,0.0,0.0,0.0,0.0,0.0,0.0,0.0,0.0,0.0,0.0,0.0,0.0,0.0,0.0,0.0,0.0,0.0,0.0,0.0,0.0,0.0,0.0,0.0,0.0,0.0,0.0,0.0,0.0,0.0,0.0,0.0,0.0,0.0,0.0,0.0,0.0,0.0,0.0,0.0,0.0,0.0,0.0,0.0,0.0,0.0,0.0,0.0,0.0,-0.3214,0.0,-0.3527,-0.3575,-0.3667,-0.3667,0.0,0.0,0.0,0.0,0.0,0.0,0.0,0.0,0.0,0.0,0.0,0.0,0.0,0.0,0.0,0.0,0.0,0.0,0.0,0.0,0.0,0.0,0.0,0.0,0.0,0.0,0.0,0.0,0.0,0.0,0.0,0.0,0.0,0.0,0.0,0.0,0.0,0.0,0.0,0.0,0.0,0.0,0.0,0.0,0.0,0.0,0.0,0.0,0.0,0.0,0.0,0.0,0.0,0.0,0.0,0.0,0.0,0.0,0.0,0.0,0.0,0.0,0.0,0.0,0.0,0.0,0.0,0.0,0.0,0.0,0.0,0.0,0.0,0.0,0.0,0.0,0.0,0.0,0.0,0.0,0.0,0.0,0.0,0.0,0.0,0.0,0.0,0.0,0.0,0.0,0.0,0.0,0.0,0.0,0.0,0.0,0.0,0.0,0.0,0.0,0.0,0.0,0.0,0.0,0.0,0.0,0.0,0.0,-0.3214,-0.3578,-0.366,-0.3788,-0.3928,-0.3884,-0.3836,0.0,0.0,0.0,0.0,0.0,0.0,0.0,0.0,0.0,0.0,0.0,0.0,0.0,0.0,0.0,0.0,0.0,0.0,0.0,0.0,0.0,0.0,0.0,0.0,0.0,0.0,0.0,0.0,0.0,0.0,0.0,0.0,0.0,0.0,0.0,0.0,0.0,0.0,0.0,0.0,0.0,0.0,0.0,0.0,0.0,0.0,0.0,0.0,0.0,0.0,0.0,0.0,0.0,0.0,0.0,0.0,0.0,0.0,0.0,0.0,0.0,0.0,0.0,0.0,0.0,0.0,0.0,0.0,0.0,0.0,0.0,0.0,0.0,0.0,0.0,0.0,0.0,0.0,0.0,0.0,0.0,0.0,0.0,0.0,0.0,0.0,0.0,0.0,0.0,0.0,0.0,0.0,0.0,0.0,0.0,0.0,0.0,0.0,0.0,0.0,0.0,0.0,0.0,0.0,0.0,0.0,0.0,0.0,0.0,-0.3932,-0.3972,-0.4056,-0.4144,-0.4104,-0.402,0.0,0.0,0.0,0.0,0.0,0.0,0.0,0.0,0.0,0.0,0.0,0.0,0.0,0.0,0.0,0.0,0.0,0.0,0.0,0.0,0.0,0.0,0.0,0.0,0.0,0.0,0.0,0.0,0.0,0.0,0.0,0.0,0.0,0.0,0.0,0.0,0.0,0.0,0.0,0.0,0.0,0.0,0.0,0.0,0.0,0.0,0.0,0.0,0.0,0.0,0.0,0.0,0.0,0.0,0.0,0.0,0.0,0.0,0.0,0.0,0.0,0.0,0.0,0.0,0.0,0.0,0.0,0.0,0.0,0.0,0.0,0.0,0.0,0.0,0.0,0.0,0.0,0.0,0.0,0.0,0.0,0.0,0.0,0.0,0.0,0.0,0.0,0.0,0.0,0.0,0.0,0.0,0.0,0.0,0.0,0.0,0.0,0.0,0.0,0.0,0.0,0.0,0.0,0.0,0.0,0.0,0.0,0.0,0.0,-0.4602,-0.4557,-0.4591,-0.475,-0.4567,-0.4447,-0.43,0.0,0.0,0.0,0.0,0.0,0.0,0.0,0.0,0.0,0.0,0.0,0.0,0.0,0.0,0.0,0.0,0.0,0.0,0.0,0.0,0.0,0.0,0.0,0.0,0.0,0.0,0.0,0.0,0.0,0.0,0.0,0.0,0.0,0.0,0.0,0.0,0.0,0.0,0.0,0.0,0.0,0.0,0.0,0.0,0.0,0.0,0.0,0.0,0.0,0.0,0.0,0.0,0.0,0.0,0.0,0.0,0.0,0.0,0.0,0.0,0.0,0.0,0.0,0.0,0.0,0.0,0.0,0.0,0.0,0.0,0.0,0.0,0.0,0.0,0.0,0.0,0.0,0.0,0.0,0.0,0.0,0.0,0.0,0.0,0.0,0.0,0.0,0.0,0.0,0.0,0.0,0.0,0.0,0.0,0.0,0.0,0.0,0.0,0.0,0.0,0.0,0.0,0.0,0.0,0.0,0.0,0.0,0.0,-0.5538,-0.5404,-0.5363,-0.5541,-0.534,-0.5066,0.0,0.0,0.0,0.0,0.0,0.0,0.0,0.0,0.0,0.0,0.0,0.0,0.0,0.0,0.0,0.0,0.0,0.0,0.0,0.0,0.0,0.0,0.0,0.0,0.0,0.0,0.0,0.0,0.0,0.0,0.0,0.0,0.0,0.0,0.0,0.0,0.0,0.0,0.0,0.0,0.0,0.0,0.0,0.0,0.0,0.0,0.0,0.0,0.0,0.0,0.0,0.0,0.0,0.0,0.0,0.0,0.0,0.0,0.0,0.0,0.0,0.0,0.0,0.0,0.0,0.0,0.0,0.0,0.0,0.0,0.0,0.0,0.0,0.0,0.0,0.0,0.0,0.0,0.0,0.0,0.0,0.0,0.0,0.0,0.0,0.0,0.0,0.0,0.0,0.0,0.0,0.0,0.0,0.0,0.0,0.0,0.0,0.0,0.0,0.0,0.0,0.0,0.0,0.0,0.0,0.0,0.0,0.0,0.0,-0.6415,-0.6491,-0.6344,-0.5995,-0.5687,-0.542,0.0,0.0,0.0,0.0,0.0,0.0,0.0,0.0,0.0,0.0,0.0,0.0,0.0,0.0,0.0,0.0,0.0,0.0,0.0,0.0,0.0,0.0,0.0,0.0,0.0,0.0,0.0,0.0,0.0,0.0,0.0,0.0,0.0,0.0,0.0,0.0,0.0,0.0,0.0,0.0,0.0,0.0,0.0,0.0,0.0,0.0,0.0,0.0,0.0,0.0,0.0,0.0,0.0,0.0,0.0,0.0,0.0,0.0,0.0,0.0,0.0,0.0,0.0,0.0,0.0,0.0,0.0,0.0,0.0,0.0,0.0,0.0,0.0,0.0,0.0,0.0,0.0,0.0,0.0,0.0,0.0,0.0,0.0,0.0,0.0,0.0,0.0,0.0,0.0,0.0,0.0,0.0,0.0,0.0,0.0,0.0,0.0,0.0,0.0,0.0,0.0,0.0,0.0,0.0,0.0,0.0,0.0,0.0,-0.6299,-0.7121,-0.7287,-0.7275,-0.7131,-0.6518,-0.6015,0.0,0.0,0.0,0.0,0.0,0.0,0.0,0.0,0.0,0.0,0.0,0.0,0.0,0.0,0.0,0.0,0.0,0.0,0.0,0.0,0.0,0.0,0.0,0.0,0.0,0.0,0.0,0.0,0.0,0.0,0.0,0.0,0.0,0.0,0.0,0.0,0.0,0.0,0.0,0.0,0.0,0.0,0.0,0.0,0.0,0.0,0.0,0.0,0.0,0.0,0.0,0.0,0.0,0.0,0.0,0.0,0.0,0.0,0.0,0.0,0.0,0.0,0.0,0.0,0.0,0.0,0.0,0.0,0.0,0.0,0.0,0.0,0.0,0.0,0.0,0.0,0.0,0.0,0.0,0.0,0.0,0.0,0.0,0.0,0.0,0.0,0.0,0.0,0.0,0.0,0.0,0.0,0.0,0.0,0.0,0.0,0.0,0.0,0.0,0.0,0.0,0.0,0.0,0.0,0.0,0.0,0.0,0.0,-0.697,-0.7676,-0.7915,-0.815,-0.8427,-0.7461,-0.6722,0.0,0.0,0.0,0.0,0.0,0.0,0.0,0.0,0.0,0.0,0.0,0.0,0.0,0.0,0.0,0.0,0.0,0.0,0.0,0.0,0.0,0.0,0.0,0.0,0.0,0.0,0.0,0.0,0.0,0.0,0.0,0.0,0.0,0.0,0.0,0.0,0.0,0.0,0.0,0.0,0.0,0.0,0.0,0.0,0.0,0.0,0.0,0.0,0.0,0.0,0.0,0.0,0.0,0.0,0.0,0.0,0.0,0.0,0.0,0.0,0.0,0.0,0.0,0.0,0.0,0.0,0.0,0.0,0.0,0.0,0.0,0.0,0.0,0.0,0.0,0.0,0.0,0.0,0.0,0.0,0.0,0.0,0.0,0.0,0.0,0.0,0.0,0.0,0.0,0.0,0.0,0.0,0.0,0.0,0.0,0.0,0.0,0.0,0.0,0.0,0.0,0.0,0.0,0.0,0.0,0.0,0.0,0.0,-0.7733,-0.8521,-0.86,-0.8745,-0.9054,-0.7877,-0.7052,0.0,0.0,0.0,0.0,0.0,0.0,0.0,0.0,0.0,0.0,0.0,0.0,0.0,0.0,0.0,0.0,0.0,0.0,0.0,0.0,0.0,0.0,0.0,0.0,0.0,0.0,0.0,0.0,0.0,0.0,0.0,0.0,0.0,0.0,0.0,0.0,0.0,0.0,0.0,0.0,0.0,0.0,0.0,0.0,0.0,0.0,0.0,0.0,-1.5355,0.0,0.0,0.0,0.0,0.0,0.0,0.0,0.0,0.0,0.0,0.0,0.0,0.0,0.0,0.0,0.0,0.0,0.0,0.0,0.0,0.0,0.0,0.0,0.0,0.0,0.0,0.0,0.0,0.0,0.0,0.0,0.0,0.0,0.0,0.0,0.0,0.0,0.0,0.0,0.0,0.0,0.0,0.0,0.0,0.0,0.0,0.0,0.0,0.0,0.0,0.0,0.0,0.0,0.0,0.0,0.0,0.0,0.0,0.0,-0.8382,-0.9124,-0.9204,-0.9263,-0.9465,-0.8508,-0.7771,0.0,0.0,0.0,0.0,0.0,0.0,0.0,0.0,0.0,0.0,0.0,0.0,0.0,0.0,0.0,0.0,0.0,0.0,0.0,0.0,0.0,0.0,0.0,0.0,0.0,0.0,0.0,0.0,0.0,0.0,0.0,0.0,0.0,0.0,0.0,0.0,0.0,0.0,0.0,0.0,0.0,0.0,0.0,0.0,0.0,0.0,0.0,0.0,0.0,0.0,0.0,0.0,0.0,0.0,0.0,0.0,0.0,0.0,0.0,0.0,0.0,0.0,0.0,0.0,0.0,0.0,0.0,0.0,0.0,0.0,0.0,0.0,0.0,0.0,0.0,0.0,0.0,0.0,0.0,0.0,0.0,0.0,0.0,0.0,0.0,0.0,0.0,0.0,0.0,0.0,0.0,0.0,0.0,0.0,0.0,0.0,0.0,0.0,0.0,0.0,0.0,0.0,0.0,0.0,0.0,0.0,0.0,-0.8164,-0.8938,-0.9703,-0.9718,-0.9821,-0.9969,-0.9295,-0.8613,-0.7937,0.0,0.0,0.0,0.0,0.0,0.0,0.0,0.0,0.0,0.0,0.0,0.0,0.0,0.0,0.0,0.0,0.0,0.0,0.0,0.0,0.0,0.0,0.0,0.0,0.0,0.0,0.0,0.0,0.0,0.0,0.0,0.0,0.0,0.0,0.0,0.0,0.0,0.0,-1.3935,-1.5211,0.0,0.0,0.0,0.0,0.0,0.0,0.0,0.0,-1.6516,0.0,0.0,0.0,0.0,0.0,0.0,0.0,0.0,0.0,0.0,0.0,0.0,0.0,0.0,0.0,0.0,0.0,0.0,0.0,0.0,0.0,0.0,0.0,0.0,0.0,0.0,0.0,0.0,0.0,0.0,0.0,0.0,0.0,0.0,0.0,0.0,0.0,0.0,0.0,0.0,0.0,0.0,0.0,0.0,0.0,0.0,0.0,0.0,0.0,0.0,0.0,0.0,0.0,0.0,0.0,0.0,-0.8091,-0.8973,-0.9666,-1.0241,-1.0308,-1.0462,-1.0659,-0.9932,-0.9302,-0.8949,0.0,0.0,0.0,0.0,0.0,0.0,0.0,0.0,0.0,0.0,0.0,0.0,0.0,0.0,0.0,0.0,0.0,0.0,0.0,0.0,0.0,0.0,0.0,0.0,0.0,0.0,0.0,0.0,0.0,0.0,0.0,0.0,0.0,0.0,0.0,0.0,0.0,0.0,0.0,-1.5812,-1.6423,0.0,0.0,0.0,0.0,0.0,0.0,0.0,0.0,-1.7991,0.0,0.0,0.0,0.0,0.0,0.0,0.0,0.0,0.0,0.0,0.0,0.0,0.0,0.0,0.0,0.0,0.0,0.0,0.0,0.0,0.0,0.0,0.0,0.0,0.0,0.0,0.0,0.0,0.0,0.0,0.0,0.0,0.0,0.0,0.0,0.0,0.0,0.0,0.0,0.0,0.0,0.0,0.0,0.0,0.0,0.0,0.0,0.0,0.0,0.0,0.0,0.0,0.0,0.0,0.0,-0.8792,-0.9708,-1.0395,-1.0964,-1.1074,-1.1175,-1.1226,-1.0498,-0.9925,0.0,0.0,0.0,0.0,0.0,0.0,0.0,0.0,0.0,0.0,0.0,0.0,0.0,0.0,0.0,0.0,0.0,0.0,0.0,0.0,0.0,0.0,0.0,0.0,0.0,0.0,0.0,0.0,0.0,0.0,0.0,0.0,0.0,0.0,0.0,0.0,0.0,0.0,0.0,0.0,-1.6401,-1.688,-1.7247,0.0,0.0,0.0,0.0,0.0,0.0,-1.8786,-1.8806,0.0,0.0,0.0,0.0,0.0,0.0,0.0,0.0,0.0,0.0,0.0,0.0,0.0,0.0,0.0,0.0,0.0,0.0,0.0,0.0,0.0,0.0,0.0,0.0,0.0,0.0,0.0,0.0,0.0,0.0,0.0,0.0,0.0,0.0,0.0,0.0,0.0,0.0,0.0,0.0,0.0,0.0,0.0,0.0,0.0,0.0,0.0,0.0,0.0,0.0,0.0,0.0,0.0,0.0,0.0,-0.9524,-1.0404,-1.1065,-1.1628,-1.1778,-1.1828,-1.1669,-1.1116,-1.0541,0.0,0.0,0.0,0.0,0.0,0.0,0.0,0.0,0.0,0.0,0.0,0.0,0.0,0.0,0.0,0.0,0.0,0.0,0.0,0.0,0.0,0.0,0.0,0.0,0.0,0.0,0.0,0.0,0.0,0.0,0.0,0.0,0.0,0.0,0.0,0.0,0.0,0.0,0.0,0.0,0.0,-1.7548,-1.8271,-1.8508,0.0,0.0,0.0,0.0,-1.9584,-1.9645,0.0,0.0,0.0,0.0,0.0,0.0,0.0,0.0,0.0,0.0,0.0,0.0,0.0,0.0,0.0,0.0,0.0,0.0,0.0,0.0,0.0,0.0,0.0,0.0,0.0,0.0,0.0,0.0,0.0,0.0,0.0,0.0,0.0,0.0,0.0,0.0,0.0,0.0,0.0,0.0,0.0,0.0,0.0,0.0,0.0,0.0,0.0,0.0,0.0,0.0,0.0,0.0,0.0,0.0,0.0,0.0,-1.0426,-1.104,-1.1678,-1.2184,-1.2323,-1.2421,-1.2382,-1.1778,-1.1158,0.0,0.0,0.0,0.0,0.0,0.0,0.0,0.0,0.0,0.0,0.0,0.0,0.0,0.0,0.0,0.0,0.0,0.0,0.0,0.0,0.0,0.0,0.0,0.0,0.0,0.0,0.0,0.0,0.0,0.0,0.0,0.0,0.0,0.0,0.0,0.0,0.0,0.0,0.0,0.0,0.0,-1.8572,-1.9248,-1.9537,-1.971,0.0,0.0,-2.0662,-2.0658,-2.1115,0.0,0.0,0.0,0.0,0.0,0.0,0.0,0.0,0.0,0.0,0.0,0.0,0.0,0.0,0.0,0.0,0.0,0.0,0.0,0.0,0.0,0.0,0.0,0.0,0.0,0.0,0.0,0.0,0.0,0.0,0.0,0.0,0.0,0.0,0.0,0.0,0.0,0.0,0.0,0.0,0.0,0.0,0.0,0.0,0.0,0.0,0.0,0.0,0.0,0.0,0.0,0.0,0.0,0.0,0.0,-1.0027,-1.1099,-1.1719,-1.2264,-1.2793,-1.3045,-1.3035,-1.29,-1.2393,-1.185,0.0,0.0,0.0,0.0,0.0,0.0,0.0,0.0,0.0,0.0,0.0,0.0,0.0,0.0,0.0,0.0,0.0,0.0,0.0,0.0,0.0,0.0,0.0,0.0,0.0,0.0,0.0,0.0,0.0,0.0,0.0,0.0,0.0,0.0,0.0,0.0,0.0,0.0,0.0,0.0,0.0,0.0,-2.0157,-2.0464,0.0,0.0,0.0,-2.1731,-2.1713,0.0,0.0,0.0,0.0,0.0,0.0,0.0,0.0,0.0,0.0,0.0,0.0,0.0,0.0,0.0,0.0,0.0,0.0,0.0,0.0,0.0,0.0,0.0,0.0,0.0,0.0,0.0,0.0,0.0,0.0,0.0,0.0,0.0,0.0,0.0,0.0,0.0,0.0,0.0,0.0,0.0,0.0,0.0,0.0,0.0,0.0,0.0,0.0,0.0,0.0,0.0,0.0,0.0,0.0,0.0,0.0,0.0,-1.1669,-1.2255,-1.2832,-1.3362,-1.361,-1.361,-1.342,-1.2957,0.0,0.0,0.0,0.0,0.0,0.0,0.0,0.0,0.0,0.0,0.0,0.0,0.0,0.0,0.0,0.0,0.0,0.0,0.0,0.0,0.0,0.0,0.0,0.0,0.0,0.0,0.0,-1.4482,0.0,0.0,0.0,0.0,0.0,0.0,0.0,0.0,0.0,0.0,0.0,0.0,0.0,0.0,-2.0053,-2.1093,-2.1391,-2.1696,0.0,0.0,-2.2555,-2.2463,-2.2402,-2.2263,0.0,0.0,0.0,0.0,0.0,0.0,0.0,0.0,0.0,0.0,0.0,0.0,0.0,0.0,0.0,0.0,0.0,0.0,0.0,0.0,0.0,0.0,0.0,0.0,0.0,0.0,0.0,0.0,0.0,0.0,0.0,0.0,0.0,0.0,0.0,0.0,0.0,0.0,0.0,0.0,0.0,0.0,0.0,0.0,0.0,0.0,0.0,0.0,0.0,0.0,0.0,0.0,0.0,0.0,0.0,-1.2107,-1.2677,-1.3266,-1.3915,-1.3973,-1.3973,-1.3926,-1.3467,-1.2967,0.0,0.0,0.0,0.0,0.0,0.0,0.0,0.0,0.0,0.0,0.0,0.0,0.0,0.0,0.0,0.0,0.0,0.0,0.0,0.0,0.0,0.0,0.0,0.0,0.0,0.0,0.0,0.0,0.0,0.0,0.0,0.0,0.0,0.0,0.0,0.0,0.0,0.0,0.0,0.0,0.0,-2.1107,-2.1997,-2.2377,-2.2606,0.0,0.0,-2.2949,-2.2709,-2.2785,-2.2709,-2.2217,0.0,0.0,0.0,0.0,0.0,0.0,0.0,0.0,0.0,0.0,0.0,0.0,0.0,0.0,0.0,0.0,0.0,0.0,0.0,0.0,0.0,0.0,0.0,0.0,0.0,0.0,0.0,0.0,0.0,0.0,0.0,0.0,0.0,0.0,0.0,0.0,0.0,0.0,0.0,0.0,0.0,0.0,0.0,0.0,0.0,0.0,0.0,0.0,0.0,0.0,0.0,0.0,0.0,-1.1551,-1.2433,-1.3122,-1.3763,-1.4244,-1.4395,-1.4452,-1.4395,-1.4035,-1.3589,0.0,0.0,0.0,0.0,0.0,0.0,0.0,0.0,0.0,0.0,0.0,0.0,0.0,0.0,0.0,0.0,0.0,0.0,0.0,0.0,0.0,0.0,0.0,0.0,0.0,0.0,0.0,0.0,-1.6499,-1.6905,-1.7546,0.0,0.0,0.0,0.0,0.0,0.0,0.0,0.0,0.0,0.0,-2.1995,-2.2452,-2.2754,0.0,0.0,-2.3098,-2.3068,-2.2963,-2.2888,-2.2752,-2.2463,-2.2123,0.0,0.0,0.0,0.0,0.0,0.0,0.0,0.0,0.0,0.0,0.0,0.0,0.0,0.0,0.0,0.0,0.0,0.0,0.0,0.0,0.0,0.0,0.0,0.0,0.0,0.0,0.0,0.0,0.0,0.0,0.0,0.0,0.0,0.0,0.0,0.0,0.0,0.0,0.0,0.0,0.0,0.0,0.0,0.0,0.0,0.0,0.0,0.0,0.0,0.0,0.0,0.0,-1.2039,-1.2812,-1.36,-1.4197,-1.4605,-1.48,-1.4857,-1.4811,-1.4547,-1.4212,0.0,0.0,0.0,0.0,0.0,0.0,0.0,0.0,0.0,0.0,0.0,0.0,0.0,0.0,0.0,0.0,0.0,0.0,0.0,0.0,0.0,0.0,0.0,0.0,0.0,0.0,0.0,0.0,-1.7439,-1.7987,-1.8874,0.0,0.0,0.0,0.0,0.0,0.0,0.0,0.0,0.0,0.0,-2.2632,-2.2799,-2.3024,-2.326,-2.3319,-2.329,-2.3216,-2.3171,-2.3007,-2.2841,-2.2675,0.0,0.0,0.0,0.0,0.0,0.0,0.0,0.0,0.0,0.0,0.0,0.0,0.0,0.0,0.0,0.0,0.0,0.0,0.0,0.0,0.0,0.0,0.0,0.0,0.0,0.0,0.0,0.0,0.0,0.0,-0.3926,0.0,0.0,0.0,0.0,0.0,0.0,0.0,0.0,0.0,0.0,0.0,0.0,0.0,0.0,0.0,0.0,0.0,0.0,0.0,0.0,0.0,0.0,-1.2463,-1.3372,-1.4035,-1.4605,-1.5062,-1.5108,-1.5165,-1.5278,-1.5062,-1.4777,-1.4534,0.0,0.0,0.0,0.0,0.0,0.0,0.0,0.0,0.0,0.0,0.0,0.0,0.0,0.0,0.0,0.0,0.0,0.0,0.0,0.0,0.0,0.0,0.0,0.0,0.0,0.0,-1.8141,-1.8528,-1.904,0.0,0.0,0.0,0.0,0.0,0.0,0.0,0.0,0.0,0.0,-2.2678,-2.2949,-2.3112,-2.3334,-2.3569,-2.3554,-2.3554,-2.348,-2.3363,-2.3201,-2.3052,0.0,0.0,0.0,0.0,0.0,0.0,0.0,0.0,0.0,0.0,0.0,0.0,0.0,0.0,0.0,0.0,0.0,0.0,0.0,0.0,0.0,0.0,0.0,0.0,0.0,0.0,0.0,-0.4672,-0.4881,0.0,0.0,0.0,0.0,0.0,0.0,0.0,0.0,0.0,0.0,0.0,-1.0914,-1.1266,0.0,0.0,0.0,0.0,0.0,0.0,0.0,0.0,0.0,0.0,0.0,0.0,-1.3102,-1.3978,-1.4547,-1.5096,-1.5534,-1.568,-1.5936,-1.642,-1.618,-1.5975,-1.5841,0.0,0.0,0.0,0.0,0.0,0.0,0.0,0.0,0.0,0.0,0.0,0.0,0.0,0.0,0.0,0.0,0.0,0.0,0.0,0.0,0.0,0.0,0.0,0.0,0.0,-1.8399,0.0,0.0,0.0,0.0,0.0,0.0,0.0,0.0,0.0,0.0,0.0,-2.3515,-2.4247,-2.4604,-2.482,-2.4758,-2.4881,-2.4972,0.0,0.0,0.0,0.0,0.0,0.0,0.0,0.0,0.0,0.0,0.0,0.0,0.0,0.0,-2.456,-2.3961,-2.3865,-2.3865,-2.3865,0.0,0.0,0.0,0.0,0.0,0.0,0.0,0.0,0.0,0.0,0.0,0.0,0.0,0.0,-0.6677,0.0,-0.691,0.0,0.0,0.0,0.0,0.0,0.0,0.0,0.0,-1.1393,-1.2066,-1.2688,-1.3032,-1.349,0.0,-1.3681,-1.3132,0.0,0.0,0.0,0.0,0.0,0.0,0.0,0.0,-1.3889,-1.4815,-1.5441,-1.6004,-1.6569,-1.6761,-1.7012,-1.7451,-1.7291,-1.7134,-1.6985,-1.6589,-1.6165,0.0,0.0,0.0,0.0,0.0,0.0,0.0,0.0,0.0,0.0,0.0,0.0,0.0,0.0,0.0,0.0,0.0,0.0,0.0,0.0,0.0,0.0,0.0,-1.9512,0.0,0.0,0.0,0.0,0.0,0.0,0.0,0.0,0.0,-2.4109,-2.4505,-2.4885,-2.5414,-2.5693,-2.5817,-2.574,0.0,0.0,0.0,0.0,0.0,0.0,0.0,-2.5441,-2.5473,-2.5473,-2.561,-2.5961,-2.6226,-2.6535,-2.6888,0.0,0.0,-2.5535,-2.5304,-2.5319,-2.5319,-2.5319,-2.4973,-2.3667,-2.4248,-2.5078,0.0,0.0,0.0,0.0,0.0,0.0,0.0,0.0,-0.8893,-0.9131,0.0,-0.9253,0.0,0.0,0.0,0.0,0.0,-1.111,0.0,0.0,-1.3474,-1.4155,-1.4736,-1.5247,-1.5536,-1.5609,-1.5658,-1.5749,-1.5615,-1.3492,0.0,0.0,0.0,0.0,0.0,0.0,-1.4791,-1.5962,-1.6642,-1.7328,-1.8069,-1.8316,-1.8423,-1.8448,-1.8405,-1.8254,-1.8003,-1.7618,-1.724,-1.6834,-1.6283,0.0,0.0,0.0,0.0,0.0,0.0,0.0,0.0,0.0,0.0,0.0,0.0,0.0,0.0,0.0,0.0,0.0,0.0,0.0,0.0,-2.0736,0.0,0.0,0.0,0.0,0.0,0.0,0.0,0.0,0.0,0.0,-2.5604,-2.5965,-2.6071,-2.5938,0.0,0.0,0.0,0.0,-2.6092,-2.6108,-2.5985,-2.5893,-2.5908,-2.583,-2.5845,-2.5908,0.0,0.0,-2.7257,-2.7658,-2.8044,-2.8763,-2.9073,-2.8633,-2.6565,-2.629,-2.6306,-2.6199,-2.6275,-2.6213,-2.5952,-2.6209,-2.6811,-1.1768,0.0,0.0,0.0,0.0,-0.9987,-1.0222,-1.0627,-1.0755,-1.0876,-1.0982,-1.0989,0.0,0.0,0.0,0.0,0.0,0.0,-1.3231,-1.3985,-1.4568,-1.5205,-1.5855,-1.6199,-1.6644,-1.7117,-1.6873,-1.6923,-1.7287,-1.6142,-1.5224,-1.4572,0.0,0.0,0.0,0.0,-1.6561,-1.7433,-1.7822,-1.8282,-1.8878,-1.897,-1.9166,-1.9525,-1.9869,-1.9979,-1.9696,-1.9371,-1.9057,-1.8763,-1.8223,0.0,0.0,0.0,0.0,0.0,0.0,0.0,0.0,0.0,0.0,0.0,0.0,0.0,0.0,0.0,0.0,0.0,0.0,0.0,-2.0993,-2.1375,-2.1616,0.0,0.0,0.0,0.0,0.0,0.0,0.0,0.0,0.0,-2.7736,-2.7149,-2.6868,0.0,0.0,-2.7906,-2.7764,-2.7716,-2.7668,-2.7605,-2.7557,0.0,-2.7668,-2.762,-2.762,-2.7668,-2.7796,-2.8109,-2.8774,-2.8942,-2.9141,-2.9512,-2.9694,-2.9532,-2.8898,-2.8534,-2.8353,-2.8278,-2.8323,-2.8367,-2.818,-2.812,-2.8254,-1.4745,-1.3312,-1.2256,-1.1961,-1.2126,-1.2175,-1.2555,-1.3113,-1.3032,-1.3098,-1.3336,-1.3195,-1.302,-1.3011,-1.3116,0.0,0.0,0.0,-1.4974,-1.5592,-1.6375,-1.6908,-1.7295,-1.7831,-1.8243,-1.8482,-1.8321,-1.8422,-1.879,-1.841,-1.7927,-1.7322,0.0,0.0,-1.6726,-1.7218,-1.7872,-1.8624,-1.8909,-1.9321,-1.9887,-1.9947,-2.0167,-2.0452,-2.0784,-2.0858,-2.0623,-2.0459,-2.0194,-2.0003,-1.9463,-1.9097,0.0,0.0,0.0,0.0,0.0,0.0,0.0,0.0,0.0,0.0,0.0,-1.8182,-1.8609,0.0,0.0,0.0,-2.097,-2.1659,-2.2385,-2.2707,0.0,0.0,0.0,0.0,0.0,0.0,0.0,-2.6016,-2.661,-2.7473,-2.8701,-2.8186,-2.7921,-2.8494,-2.87,-2.8747,-2.8604,0.0,-2.8541,-2.8444,-2.8444,-2.8477,-2.8573,-2.8621,-2.8621,-2.8716,-2.8936,-2.9198,-2.9544,-2.9694,-2.9826,-3.0,-3.0172,-3.0215,-3.0113,-2.9941,-2.9738,-2.947,-2.9531,-2.9572,-2.9399,-2.9329,-2.958,-1.7502,-1.7203,-1.5209,-1.4423,-1.4474,-1.4634,-1.5097,-1.5802,-1.5545,-1.5713,-1.6096,-1.5664,-1.5371,-1.5234,-1.5527,0.0,-1.5944,-1.6498,-1.7008,-1.7501,-1.8577,-1.9025,-1.906,-1.9897,-2.0143,-1.9793,-2.0079,-2.0156,-2.0118,-2.0233,-2.0271,-2.0194,-1.8376,-1.7435,-1.7593,-1.8184,-1.8878,-1.9584,-1.9948,-2.039,-2.1019,-2.1144,-2.1215,-2.1229,-2.1229,-2.118,-2.1095,-2.0908,-2.0809,-2.0673,-2.0347,-2.0067,-1.9925,0.0,0.0,0.0,0.0,0.0,0.0,0.0,0.0,0.0,0.0,0.0,0.0,0.0,0.0,0.0,-2.221,0.0,-2.412,-2.4426,0.0,0.0,0.0,-2.5548,-2.5893,-2.6092,-2.6612,-2.7612,0.0,0.0,-2.8732,-2.9014,-2.9061,-2.8905,-2.8857,-2.8794,-2.8794,-2.8842,-2.8842,-2.8794,-2.8842,-2.8873,-2.892,-2.8967,-2.9044,-2.9289,-2.9531,-2.9726,-2.9853,-3.0044,-3.0274,-3.0401,-3.0584,-3.0692,-3.0551,-3.0609,-3.0568,-3.0027,-3.0087,-3.014,-2.9933,-3.0152,-3.0551,-1.8251,-1.8169,-1.7825,-1.7357,-1.691,-1.6961,-1.7277,-1.7613,-1.757,-1.7711,-1.7917,-1.7811,-1.7839,-1.7888,-1.8056,-1.8224,-1.8401,-1.8823,-1.9114,-1.9494,-2.0151,-2.0536,-2.0748,-2.1285,-2.1559,-2.1594,-2.1742,-2.1668,-2.1289,-2.1212,-2.099,-2.066,-2.0161,-1.9834,-1.966,-1.9909,-2.0221,-2.0637,-2.082,-2.1032,-2.1264,-2.1326,-2.141,-2.152,-2.1506,-2.152,-2.1616,-2.1458,-2.1361,-2.1229,-2.1395,-2.1328,-2.1121,-2.1298,0.0,0.0,0.0,0.0,0.0,0.0,0.0,0.0,0.0,-2.0949,-2.1811,0.0,-2.2753,0.0,-2.3886,-2.4549,-2.4966,-2.5283,0.0,0.0,-2.6255,-2.6824,-2.7011,-2.7565,-2.8186,-2.8684,-2.8715,-2.8808,-2.9227,-2.9321,-2.9382,-2.9259,-2.9137,-2.8982,-2.8873,-2.8936,-2.9045,-2.9045,-2.9091,-2.9229,-2.9321,-2.9457,-2.9531,-2.9694,-2.9826,-3.0017,-3.03,-3.0384,-3.0485,-3.0692,-3.0831,-3.0871,-3.0895,-3.0895,-3.0935,-3.0855,-3.0733,-3.0535,-3.0377,-3.0649,-3.0962,-1.9394,-1.9519,-1.9603,-1.9519,-1.9266,-1.8606,-1.8664,-1.9144,-1.8945,-1.9028,-1.9376,-1.9246,-1.9324,-1.9454,-1.9538,-1.9714,-1.996,-2.0192,-2.0435,-2.0734,-2.1436,-2.1707,-2.1759,-2.236,-2.2622,-2.259,-2.2751,-2.2684,-2.2533,-2.2492,-2.2318,-2.2109,-2.2109,-2.2008,-2.183,-2.1286,-2.1153,-2.1632,-2.2088,-2.2374,-2.2424,-2.2424,-2.2473,-2.2537,-2.2586,-2.2671,-2.272,-2.2671,-2.2586,-2.2523,-2.26,-2.2558,-2.2402,-2.2552,-2.251,0.0,0.0,0.0,0.0,0.0,0.0,0.0,0.0,0.0,0.0,0.0,-2.4072,-2.4848,-2.536,-2.5883,-2.6467,-2.6675,-2.6866,-2.704,-2.755,-2.7922,-2.8124,-2.8607,-2.8998,-2.9229,-2.9275,-2.9305,-2.9364,-2.9441,-2.9518,-2.9518,-2.9366,-2.9275,-2.9152,-2.9229,-2.9275,-2.9275,-2.9321,-2.9441,-2.9621,-2.9798,-2.9946,-3.0,-3.0146,-3.0274,-3.0485,-3.0651,-3.0773,-3.0992,-3.1055,-3.1095,-3.1173,-3.123,-3.1269,-3.1269,-3.119,-3.0965,-3.0734,-3.0937,-3.132,-2.0593,-2.0797,-2.0797,-2.0978,-2.1164,-1.9912,-1.9776,-2.0346,-1.9984,-2.0151,-2.0679,-2.044,-2.044,-2.0534,-2.0696,-2.087,-2.1113,-2.1341,-2.1512,-2.1694,-2.2559,-2.2816,-2.2554,-2.3342,-2.3592,-2.3366,-2.3525,-2.3576,-2.3664,-2.3768,-2.3778,-2.3709,-2.3747,-2.3747,-2.3691,-2.2432,-2.201,-2.2606,-2.333,-2.3709,-2.3709,-2.3695,-2.3761,-2.3761,-2.39,-2.4016,-2.4002,-2.4002,-2.4002,-2.3951,-2.383,-2.3716,-2.3716,-2.3523,-2.3472,0.0,-2.3325,0.0,0.0,0.0,0.0,0.0,0.0,0.0,0.0,-2.4504,-2.5235,-2.6352,-2.6677,-2.721,-2.7997,-2.822,-2.8414,-2.8653,-2.8748,-2.8889,-2.9121,-2.9275,-2.9398,-2.963,-2.9646,-2.963,-2.9492,-2.9601,-2.9758,-2.9932,-2.987,-2.987,-2.9852,-2.9774,-2.9694,-2.9646,-2.9707,-2.9891,-3.002,-3.0168,-3.0248,-3.0231,-3.0401,-3.0568,-3.0609,-3.0855,-3.1072,-3.1207,-3.1291,-3.1351,-3.15,-3.1517,-3.1555,-3.1521,-3.1538,-3.1432,-3.1108,-3.1287,-3.1589,-2.0903,-2.1106,-2.121,-2.1423,-2.1612,-2.1413,-2.1377,-2.1409,-2.1428,-2.1675,-2.2005,-2.2286,-2.2358,-2.2406,-2.2513,-2.2765,-2.306,-2.3119,-2.3295,-2.3573,-2.3909,-2.401,-2.4089,-2.4493,-2.4732,-2.4791,-2.4984,-2.4832,-2.439,-2.4535,-2.4351,-2.3863,-2.3988,-2.4025,-2.4011,0.0,0.0,0.0,-2.3807,-2.3849,-2.3863,-2.3849,-2.3914,-2.4002,-2.424,0.0,-2.454,-2.454,-2.449,-2.4391,-2.4685,0.0,0.0,0.0,0.0,0.0,0.0,0.0,0.0,0.0,0.0,0.0,-2.6497,-2.6491,-2.6202,-2.6732,-2.7295,-2.7614,-2.8021,-2.8323,-2.8511,-2.8795,-2.8982,-2.9167,-2.9275,-2.9366,-2.9428,-2.9489,-2.971,-3.0408,-3.0456,-3.0316,-2.9973,-3.0463,-3.1067,-3.1401,-3.1194,-3.1146,-3.1433,-3.0903,-3.0489,-3.0473,-3.0655,-3.0851,-3.0985,-3.0744,-3.0575,-3.0468,-3.0651,-3.0905,-3.1099,-3.1162,-3.1263,-3.1436,-3.1479,-3.1517,-3.1559,-3.1671,-3.1763,-3.1802,-3.1929,-3.1875,-3.1476,-3.1582,-3.178,-2.1981,0.0,-2.2362,-2.2568,0.0,-2.2891,-2.3007,-2.311,-2.2402,-2.2359,-2.2775,-2.309,-2.3343,-2.3416,-2.3863,-2.4159,-2.4411,-2.4805,-2.5103,-2.5329,-2.5579,-2.5711,-2.5828,-2.6133,-2.6365,-2.6452,-2.6343,-2.6147,-2.5934,-2.5692,-2.5381,-2.5085,-2.5199,-2.5289,-2.5289,-2.5537,-2.5343,-2.4759,-2.5057,-2.5213,-2.5265,-2.5228,-2.5265,-2.5369,-2.5676,0.0,0.0,0.0,0.0,0.0,0.0,0.0,0.0,0.0,0.0,-2.6204,-2.6351,-2.6404,-2.6539,-2.6803,-2.7049,-2.7342,-2.7725,-2.7825,-2.7342,-2.7875,-2.822,-2.8268,-2.8605,-2.8842,-2.8889,-2.9437,-2.9892,-2.9954,-3.038,-3.0635,-3.0619,-3.0681,-3.0889,-3.1255,-3.1352,-3.1306,-3.1276,-3.1197,-3.1596,-3.2205,-3.2236,-3.2122,-3.2073,-3.1751,-3.1491,-3.1521,-3.1658,-3.1839,-3.1957,-3.1841,-3.1715,-3.1816,-3.1968,-3.2133,-3.2273,-3.2428,-3.2446,-3.2239,-3.2179,-3.2135,-3.1797,-3.1856,-3.1965,-3.2001,-3.2073,-3.2055,-3.1806,-3.1877,-3.2017,-2.3024,-2.3372,-2.3561,-2.3761,-2.3959,-2.4144,-2.4459,-2.4655,0.0,0.0,0.0,-2.3923,-2.4175,-2.4406,-2.5017,-2.5348,-2.5568,-2.6203,-2.66,-2.6782,-2.7051,-2.7244,-2.729,-2.7527,-2.7703,-2.785,-2.7513,-2.744,-2.7481,-2.7021,-2.6777,-2.6777,-2.6909,-2.7002,-2.7002,-2.7208,-2.6938,-2.6206,-2.6466,-2.6683,-2.6841,-2.6736,-2.6721,-2.6841,-2.7115,-2.7335,-2.7335,-2.7284,-2.7335,-2.7284,-2.7049,-2.6841,-2.6841,-2.6893,-2.6841,-2.6893,-2.6982,-2.7181,-2.7484,-2.7652,-2.7966,-2.8458,-2.8817,-2.8773,-2.8201,-2.8477,-2.8731,-2.8855,-2.9171,-2.9421,-2.9578,-3.0305,-3.0813,-3.0829,-3.1452,-3.1821,-3.1805,-3.1948,-3.1996,-3.2158,-3.219,-3.2399,-3.2835,-3.2368,-3.2126,-3.285,-3.3205,-3.3168,-3.2779,-3.2586,-3.252,-3.2823,-3.2817,-3.2788,-3.2907,-3.29,-3.3038,-3.3017,-3.3263,-3.3456,-3.3515,-3.3714,-3.3613,-3.3132,-3.3128,-3.2876,-3.2347,-3.228,-3.2248,-3.2143,-3.2161,-3.2144,-3.2144,-3.2144,-3.2196,-2.3494,-2.3773,-2.3947,-2.421,-2.4471,-2.4653,-2.4963,-2.5395,-2.5115,-2.5113,-2.5301,-2.5625,-2.5871,-2.6068,-2.6256,-2.6553,-2.6821,-2.6963,-2.7184,-2.7468,-2.7541,-2.7645,-2.785,-2.7923,-2.8024,-2.8154,-2.824,-2.831,-2.8352,-2.8475,-2.8542,-2.8528,-2.8653,-2.8803,-2.8966,-2.8727,-2.8486,-2.8329,-2.7506,-2.7181,-2.7299,-2.7299,-2.7284,-2.7284,-2.759,-2.769,-2.7675,-2.774,-2.769,-2.769,-2.7575,-2.7473,-2.7473,-2.7488,-2.7473,-2.7458,-2.7575,-2.7981,-2.8728,-2.8976,-2.9473,-3.0332,-3.0545,-3.006,-2.8682,-2.8748,-2.9171,-2.9896,-3.0133,-3.056,-3.1293,-3.1565,-3.1692,-3.1756,-3.19,-3.1965,-3.2029,-3.2077,-3.2319,-3.2854,-3.2935,-3.3178,-3.3697,-3.3827,-3.3811,-3.4105,-3.4153,-3.4331,-3.4261,-3.3756,-3.3674,-3.4242,-3.3991,-3.3798,-3.3879,-3.3607,-3.349,-3.3355,-3.3675,-3.3926,-3.4007,-3.4146,-3.418,-3.3999,-3.4098,-3.3862,-3.3186,-3.312,-3.2913,-3.2423,-3.2354,-3.2354,-3.2336,-3.2354,-3.2371,-2.4957,-2.5148,-2.5418,-2.5674,-2.594,-2.6322,-2.6648,-2.6906,-2.724,-2.6867,-2.6122,-2.6478,-2.6735,-2.693,-2.7352,-2.7746,-2.7954,-2.841,-2.861,-2.8806,-2.8987,-2.9106,-2.9271,-2.9448,-2.958,-2.9609,-2.9449,-2.9345,-2.9373,-2.9234,-2.9167,-2.9153,-2.9387,-2.9549,-2.9735,-2.9622,-2.9626,-2.9632,-2.8252,-2.759,-2.7705,-2.774,-2.774,-2.7855,-2.8088,-2.8235,-2.8235,-2.8235,-2.8403,-2.8771,-2.8671,-2.8723,-2.8985,-2.9103,-2.9103,-2.9,-2.919,-2.9465,-2.9823,-3.0107,-3.0448,-3.0845,-3.1058,-3.0856,-3.0177,-3.0211,-3.0434,-3.0799,-3.1007,-3.1325,-3.1758,-3.224,-3.253,-3.2595,-3.2902,-3.3129,-3.3161,-3.3194,-3.3372,-3.373,-3.3828,-3.3958,-3.4267,-3.4349,-3.4399,-3.4464,-3.4627,-3.4837,-3.4994,-3.4728,-3.4579,-3.4988,-3.4881,-3.4772,-3.4903,-3.4817,-3.4737,-3.4806,-3.4968,-3.5094,-3.5201,-3.5324,-3.5232,-3.4988,-3.4996,-3.4777,-3.4045,-3.363,-3.3317,-3.3037,-3.2582,-3.2458,-3.2406,-3.244,-3.2492,-2.6176,-2.644,-2.6714,-2.6985,-2.731,-2.7973,-2.8235,-2.83,-2.8994,-2.8547,-2.7366,-2.7569,-2.7737,-2.8005,-2.8526,-2.8904,-2.9157,-2.9718,-3.0007,-3.0068,-3.0326,-3.0433,-3.0568,-3.0807,-3.094,-3.094,-3.0643,-3.0463,-3.0389,-3.0127,-2.9998,-3.0053,-3.031,-3.0472,-3.0616,-3.0584,-3.0612,-3.0639,-2.9225,-2.853,-2.8645,-2.8629,-2.8679,-2.8778,-2.8974,-2.9086,-2.9071,-2.9071,-2.9319,-2.9831,-2.9763,-2.9894,-3.0283,-3.0433,-3.0433,-3.0397,-3.0536,-3.0752,-3.0958,-3.1334,-3.1514,-3.1498,-3.1615,-3.1781,-3.1865,-3.1914,-3.19,-3.1772,-3.1935,-3.2144,-3.2386,-3.2919,-3.3323,-3.3356,-3.381,-3.4053,-3.4134,-3.425,-3.4349,-3.4349,-3.4464,-3.448,-3.448,-3.448,-3.4513,-3.4643,-3.4851,-3.5011,-3.5182,-3.5337,-3.5383,-3.5458,-3.5441,-3.5481,-3.5667,-3.5766,-3.5864,-3.6062,-3.6097,-3.6138,-3.6281,-3.6433,-3.6377,-3.5924,-3.5898,-3.5661,-3.4961,-3.4438,-3.4037,-3.381,-3.3248,-3.2634,-3.2475,-3.2508,-3.2542,-2.6782,-2.6973,-2.7201,-2.7523,-2.7987,-2.8716,-2.9013,-2.9127,-2.9713,-2.995,-2.9714,-2.9482,-2.9529,-2.9836,-2.9864,-3.0061,-3.0392,-3.0493,-3.0568,-3.0702,-3.0762,-3.094,-3.1161,-3.1219,-3.1321,-3.1422,-3.1519,-3.1516,-3.1531,-3.1656,-3.1825,-3.1952,-3.2198,-3.23,-3.2269,-3.1865,-3.1675,-3.1659,-3.0943,-3.0503,-3.0554,-3.0554,-3.0554,-3.0554,-3.0538,-3.0604,-3.051,-3.0604,-3.0635,-3.0682,-3.0697,-3.0678,-3.0772,-3.0756,-3.0772,-3.0787,-3.0822,-3.1107,-3.1919,-3.2636,-3.304,-3.3103,-3.3129,-3.3232,-3.3232,-3.347,-3.3365,-3.2883,-3.2788,-3.3079,-3.3759,-3.3939,-3.3939,-3.3922,-3.4136,-3.43,-3.43,-3.4399,-3.4497,-3.4497,-3.4497,-3.4497,-3.4546,-3.4643,-3.4787,-3.4947,-3.5088,-3.5228,-3.5441,-3.5532,-3.5667,-3.58,-3.5739,-3.5711,-3.5888,-3.6079,-3.6148,-3.6259,-3.636,-3.6502,-3.6585,-3.6708,-3.6719,-3.6544,-3.6698,-3.6422,-3.5948,-3.5583,-3.5285,-3.4582,-3.3898,-3.3143,-3.2685,-3.2592,-3.2592,-2.7443,-2.763,-2.7842,-2.8437,-2.9231,-2.9945,-3.0475,-3.0849,-3.1435,-3.1747,-3.1809,-3.1795,-3.134,-3.0522,-3.0613,-3.0792,-3.0984,-3.1087,-3.1146,-3.1204,-3.1278,-3.1394,-3.1567,-3.1739,-3.1853,-3.1894,-3.2064,-3.212,-3.212,-3.2302,-3.2468,-3.2594,-3.2718,-3.2757,-3.278,-3.2692,-3.2709,-3.2694,-3.2566,-3.2526,-3.2364,-3.1451,-3.0927,-3.0942,-3.0992,-3.1058,-3.1058,-3.1058,-3.1231,-3.1624,-3.1671,-3.1809,-3.2113,-3.2233,-3.2233,-3.2196,-3.2248,-3.241,-3.2798,-3.3098,-3.3361,-3.3398,-3.345,-3.3539,-3.371,-3.3848,-3.382,-3.3661,-3.3646,-3.3775,-3.4052,-3.4101,-3.4101,-3.4101,-3.4201,-3.43,-3.43,-3.4497,-3.4611,-3.4611,-3.4707,-3.4739,-3.4756,-3.4851,-3.4994,-3.5198,-3.5321,-3.5441,-3.5622,-3.5756,-3.5932,-3.6088,-3.6088,-3.6045,-3.6191,-3.6293,-3.6402,-3.6468,-3.6544,-3.6643,-3.6748,-3.6806,-3.6829,-3.6891,-3.697,-3.6939,-3.6601,-3.6113,-3.5764,-3.5201,-3.3914,-3.2862,-3.3158,-3.2997,-3.2785,-2.8665,-2.8851,-2.9165,-2.979,-3.0583,-3.1332,-3.1844,-3.2283,-3.2849,-3.3161,-3.327,-3.3469,-3.2946,-3.1886,-3.1812,-3.1871,-3.2107,-3.2208,-3.2251,-3.2324,-3.244,-3.2528,-3.257,-3.2741,-3.2911,-3.3023,-3.315,-3.3191,-3.3215,-3.338,-3.3427,-3.3356,-3.3379,-3.3285,-3.3181,-3.3293,-3.3398,-3.3398,-3.3591,-3.3694,-3.3499,-3.2434,-3.176,-3.176,-3.1826,-3.1876,-3.1842,-3.1826,-3.2064,-3.257,-3.255,-3.2735,-3.3102,-3.3256,-3.3256,-3.3203,-3.324,-3.3309,-3.3361,-3.3346,-3.3398,-3.3555,-3.3591,-3.3694,-3.3848,-3.3949,-3.4,-3.4034,-3.4101,-3.4084,-3.4101,-3.4101,-3.4101,-3.4151,-3.425,-3.4349,-3.4399,-3.4594,-3.4739,-3.4739,-3.4835,-3.4947,-3.4947,-3.5058,-3.5182,-3.5367,-3.5503,-3.5684,-3.5756,-3.5975,-3.6131,-3.636,-3.6402,-3.6402,-3.6402,-3.6461,-3.6568,-3.665,-3.6708,-3.6766,-3.6829,-3.6869,-3.6869,-3.693,-3.7009,-3.7031,-3.6907,-3.6524,-3.6211,-3.5806,-3.4833,-3.3741,-3.4075,-3.3791,-3.3612,-3.0691,-3.0918,-3.1579,-3.1811,-3.1947,-3.2664,-3.296,-3.3092,-3.3574,-3.3849,-3.4046,-3.415,-3.4237,-3.4278,-3.3894,-3.3819,-3.4027,-3.3994,-3.4038,-3.4214,-3.4303,-3.4438,-3.4585,-3.4585,-3.4711,-3.4855,-3.4895,-3.4998,-3.5157,-3.5356,-3.514,-3.4536,-3.4611,-3.4329,-3.3818,-3.3738,-3.371,-3.371,-3.3761,-3.3694,-3.3694,-3.3614,-3.3451,-3.3435,-3.3515,-3.3399,-3.3344,-3.3391,-3.3339,-3.323,-3.3214,-3.3261,-3.3309,-3.3309,-3.3293,-3.3309,-3.3309,-3.3361,-3.345,-3.3503,-3.3555,-3.3694,-3.3797,-3.3899,-3.3899,-3.4,-3.405,-3.4101,-3.4101,-3.4101,-3.4101,-3.4101,-3.4151,-3.425,-3.4399,-3.4546,-3.4643,-3.4739,-3.4899,-3.4899,-3.4899,-3.4994,-3.5105,-3.5215,-3.5383,-3.5549,-3.5622,-3.5756,-3.6019,-3.6233,-3.636,-3.6444,-3.6585,-3.6702,-3.6702,-3.6643,-3.6708,-3.6788,-3.6829,-3.6846,-3.6948,-3.697,-3.697,-3.7009,-3.7087,-3.7108,-3.7108,-3.697,-3.6763,-3.6608,-3.6754,-3.6239,-3.519,-3.5153,-3.492,-3.1575,-3.1874,-3.2391,-3.2879,-3.3337,-3.3973,-3.454,-3.4979,-3.5307,-3.5569,-3.5722,-3.5888,-3.6053,-3.6204,-3.6144,-3.5499,-3.4623,-3.4736,-3.4893,-3.4951,-3.5065,-3.5122,-3.5122,-3.5219,-3.5331,-3.5459,-3.5696,-3.586,-3.5969,-3.6023,-3.5927,-3.5771,-3.5723,-3.5404,-3.4823,-3.4746,-3.4519,-3.4048,-3.405,-3.405,-3.3949,-3.3949,-3.3949,-3.3949,-3.3797,-3.3642,-3.3607,-3.3642,-3.3607,-3.3555,-3.3555,-3.3555,-3.3555,-3.3555,-3.3555,-3.3555,-3.3555,-3.3607,-3.3658,-3.3642,-3.3694,-3.3813,-3.3848,-3.3933,-3.4,-3.405,-3.4101,-3.4101,-3.4101,-3.4101,-3.4101,-3.4101,-3.4167,-3.4284,-3.4399,-3.4562,-3.4707,-3.4851,-3.4899,-3.4899,-3.4947,-3.5088,-3.5392,-3.5429,-3.5549,-3.5728,-3.5861,-3.6096,-3.6191,-3.6343,-3.6485,-3.6667,-3.6748,-3.6788,-3.6886,-3.6788,-3.6788,-3.6869,-3.6948,-3.6948,-3.6987,-3.7048,-3.7087,-3.7069,-3.7147,-3.7241,-3.7223,-3.7281,-3.7088,-3.7217,-3.7398,-3.7006,-3.6132,-3.6149,-3.5898,-3.3028,-3.3387,-3.3769,-3.4241,-3.4707,-3.5305,-3.5845,-3.6305,-3.66,-3.6846,-3.7029,-3.7118,-3.7298,-3.7476,-3.7578,-3.7076,-3.5975,-3.5985,-3.6026,-3.6124,-3.6238,-3.631,-3.6366,-3.6478,-3.6533,-3.6628,-3.6809,-3.7043,-3.7096,-3.7096,-3.6983,-3.6771,-3.6755,-3.6413,-3.5812,-3.5785,-3.5426,-3.4738,-3.4658,-3.4544,-3.4315,-3.425,-3.4201,-3.4151,-3.4,-3.3848,-3.3761,-3.3761,-3.3745,-3.371,-3.3694,-3.3694,-3.3694,-3.3694,-3.3694,-3.3694,-3.3694,-3.3694,-3.3745,-3.3745,-3.3797,-3.3949,-3.3949,-3.4,-3.4101,-3.4101,-3.4101,-3.4133,-3.436,-3.4441,-3.4505,-3.4718,-3.4771,-3.4496,-3.4497,-3.4709,-3.5069,-3.5232,-3.5396,-3.5725,-3.5952,-3.6092,-3.6245,-3.6383,-3.6537,-3.6604,-3.6671,-3.6629,-3.6705,-3.6606,-3.6626,-3.6788,-3.6829,-3.6908,-3.6948,-3.693,-3.6908,-3.6987,-3.7009,-3.7048,-3.7066,-3.7126,-3.7164,-3.7185,-3.7223,-3.7317,-3.7392,-3.7429,-3.7503,-3.7577,-3.7541,-3.7291,-3.7041,-3.7184,-3.6774,-3.5059,-3.5359,-3.5816,-3.5915,-3.6009,-3.643,-3.6784,-3.6906,-3.7118,-3.7373,-3.7626,-3.77,-3.7844,-3.8059,-3.81,-3.8124,-3.8028,-3.7751,-3.7678,-3.785,-3.7939,-3.8068,-3.8213,-3.8149,-3.8261,-3.8427,-3.8668,-3.8707,-3.8663,-3.8614,-3.8368,-3.7925,-3.7843,-3.7518,-3.676,-3.6711,-3.6366,-3.5792,-3.5645,-3.525,-3.4628,-3.4546,-3.448,-3.43,-3.4316,-3.4151,-3.3949,-3.3899,-3.3848,-3.3745,-3.3745,-3.3694,-3.3745,-3.3809,-3.3793,-3.3858,-3.3774,-3.3877,-3.4011,-3.4076,-3.4207,-3.4309,-3.423,-3.436,-3.4408,-3.4343,-3.4343,-3.4457,-3.4845,-3.5185,-3.5334,-3.5844,-3.585,-3.4841,-3.4857,-3.5283,-3.5794,-3.6009,-3.6307,-3.7003,-3.7299,-3.7677,-3.7821,-3.7759,-3.786,-3.794,-3.7765,-3.7517,-3.7577,-3.7363,-3.698,-3.6968,-3.7154,-3.7268,-3.715,-3.7048,-3.7048,-3.7066,-3.7087,-3.7126,-3.7164,-3.7203,-3.7241,-3.7279,-3.7354,-3.7429,-3.7466,-3.754,-3.754,-3.7577,-3.7559,-3.7559,-3.7524,-3.7452,-3.7506,-3.5831,-3.6211,-3.6492,-3.6616,-3.6677,-3.7134,-3.7389,-3.7492,-3.7711,-3.7886,-3.8017,-3.8246,-3.8359,-3.8455,-3.8495,-3.8678,-3.8805,-3.8639,-3.8528,-3.8455,-3.8511,-3.8639,-3.8805,-3.8805,-3.8985,-3.9218,-3.9255,-3.9309,-3.9415,-3.9398,-3.9265,-3.9168,-3.9066,-3.87,-3.8035,-3.7985,-3.7585,-3.672,-3.6637,-3.6174,-3.5366,-3.525,-3.5021,-3.4497,-3.4448,-3.4399,-3.43,-3.4151,-3.3984,-3.3965,-3.3949,-3.4,-3.4081,-3.4484,-3.4743,-3.4791,-3.5243,-3.5501,-3.5501,-3.5538,-3.5505,-3.5606,-3.559,-3.5623,-3.5623,-3.5574,-3.5558,-3.5574,-3.5833,-3.5999,-3.6121,-3.6408,-3.6443,-3.6053,-3.6156,-3.6273,-3.6704,-3.6887,-3.7086,-3.7466,-3.7728,-3.7872,-3.8031,-3.8252,-3.8505,-3.8608,-3.8484,-3.8443,-3.8529,-3.8388,-3.8461,-3.8502,-3.8234,-3.78,-3.7822,-3.7725,-3.7553,-3.7394,-3.7309,-3.7203,-3.7241,-3.7317,-3.7354,-3.7392,-3.7466,-3.754,-3.7577,-3.7577,-3.7577,-3.7577,-3.7577,-3.7577,-3.7577,-3.7577,-3.7577,-3.6523,-3.6785,-3.7058,-3.7222,-3.7326,-3.7727,-3.7902,-3.8033,-3.8189,-3.8327,-3.8455,-3.8623,-3.8805,-3.8931,-3.904,-3.9131,-3.9239,-3.9239,-3.9185,-3.9023,-3.9023,-3.9148,-3.9255,-3.9239,-3.9362,-3.9537,-3.959,-3.9642,-3.9677,-3.9677,-3.9677,-3.9677,-3.9677,-3.946,-3.9041,-3.8974,-3.8538,-3.7803,-3.7619,-3.7219,-3.6489,-3.629,-3.6026,-3.5564,-3.5498,-3.5399,-3.5316,-3.5149,-3.4787,-3.4379,-3.4378,-3.4603,-3.4926,-3.5347,-3.559,-3.5687,-3.5979,-3.627,-3.6303,-3.6222,-3.6303,-3.6303,-3.6303,-3.6287,-3.6287,-3.6303,-3.6303,-3.6303,-3.6583,-3.6766,-3.6873,-3.7363,-3.7498,-3.7551,-3.7145,-3.7182,-3.7484,-3.8003,-3.8355,-3.8638,-3.8768,-3.8846,-3.9037,-3.9225,-3.9394,-3.9485,-3.944,-3.9399,-3.9442,-3.9301,-3.9326,-3.9305,-3.8942,-3.8725,-3.8712,-3.8475,-3.8129,-3.781,-3.7565,-3.7423,-3.7317,-3.7429,-3.7503,-3.7503,-3.754,-3.754,-3.7577,-3.7577,-3.7577,-3.7577,-3.7577,-3.7577,-3.7577,-3.7577,-3.7577,-3.7103,-3.7298,-3.7626,-3.7786,-3.7943,-3.81,-3.8359,-3.8583,-3.8639,-3.8805,-3.8969,-3.904,-3.9185,-3.9432,-3.9432,-3.9537,-3.9677,-3.9677,-3.9713,-3.9677,-3.9625,-3.9625,-3.9677,-3.9729,-3.9781,-3.9781,-3.9781,-3.9781,-3.9833,-3.9833,-3.9729,-3.9833,-3.9833,-3.9781,-3.9732,-3.9747,-3.9378,-3.8791,-3.8656,-3.8288,-3.7552,-3.7519,-3.7352,-3.7003,-3.6953,-3.6836,-3.66,-3.6533,-3.5887,-3.474,-3.5061,-3.5561,-3.6092,-3.6319,-3.6351,-3.6367,-3.64,-3.6546,-3.6497,-3.6659,-3.661,-3.6643,-3.6643,-3.6416,-3.6627,-3.6691,-3.6761,-3.6745,-3.7227,-3.7611,-3.778,-3.8286,-3.8755,-3.8826,-3.8077,-3.7833,-3.8453,-3.9243,-3.9615,-3.9901,-4.0204,-4.0336,-4.0408,-4.0634,-4.0792,-4.0828,-4.053,-4.0385,-4.0316,-4.0079,-3.9596,-3.9557,-3.9729,-3.9617,-3.9587,-3.9208,-3.888,-3.8688,-3.8318,-3.798,-3.7571,-3.7521,-3.7577,-3.7577,-3.7577,-3.7577,-3.7577,-3.7577,-3.7577,-3.7577,-3.7577,-3.7577,-3.7613,-3.7613,-3.7667,-3.7754,-3.7886,-3.823,-3.8415,-3.8455,-3.8678,-3.8788,-3.8914,-3.9148,-3.9255,-3.9379,-3.9468,-3.9556,-3.9642,-3.9625,-3.9781,-3.9935,-3.9969,-4.0138,-4.0271,-4.0271,-4.0138,-4.007,-4.0171,-4.0288,-4.0271,-4.0221,-4.0288,-4.0288,-4.0238,-4.0288,-4.0288,-4.0221,-4.0271,-4.0271,-4.0288,-4.0103,-3.9783,-3.9682,-3.9228,-3.8489,-3.8355,-3.802,-3.7468,-3.7436,-3.7452,-3.7303,-3.7119,-3.6767,-3.6149,-3.6127,-3.6202,-3.6511,-3.6843,-3.7048,-3.7112,-3.7517,-3.7809,-3.7792,-3.7776,-3.7792,-3.7857,-3.7751,-3.7841,-3.7857,-3.7952,-3.8023,-3.804,-3.8297,-3.8494,-3.8581,-3.8837,-3.9077,-3.9276,-3.8949,-3.892,-3.936,-3.98,-4.0087,-4.0238,-4.0419,-4.0597,-4.0776,-4.0982,-4.1123,-4.1209,-4.1188,-4.1041,-4.099,-4.0999,-4.0604,-4.076,-4.0845,-4.0654,-4.04,-4.0002,-3.9726,-3.9605,-3.9251,-3.8732,-3.8182,-3.763,-3.7594,-3.7577,-3.7577,-3.7577,-3.7577,-3.7577,-3.7577,-3.7613,-3.7613,-3.7613,-3.7613,-3.7649,-3.7739,-3.823,-3.8399,-3.8694,-3.886,-3.8985,-3.9148,-3.9255,-3.9292,-3.9484,-3.9642,-3.9694,-3.9798,-3.9884,-3.9935,-4.002,-4.0121,-4.0271,-4.0271,-4.0387,-4.0485,-4.0534,-4.0436,-4.032,-4.0436,-4.0485,-4.0485,-4.0485,-4.0485,-4.0485,-4.0485,-4.0485,-4.0485,-4.0485,-4.0485,-4.0468,-4.0485,-4.0436,-4.0271,-4.0271,-3.9951,-3.9429,-3.9395,-3.9109,-3.8722,-3.8605,-3.8555,-3.8472,-3.8304,-3.7932,-3.7337,-3.7114,-3.7159,-3.7469,-3.7704,-3.791,-3.7942,-3.8332,-3.8528,-3.8544,-3.8544,-3.8544,-3.8544,-3.856,-3.8544,-3.8567,-3.8655,-3.8655,-3.8662,-3.8805,-3.8914,-3.9023,-3.9131,-3.9362,-3.9573,-3.9746,-3.9798,-3.9986,-4.0087,-4.0238,-4.0419,-4.0563,-4.0707,-4.0982,-4.1123,-4.1261,-4.138,-4.1408,-4.1445,-4.1534,-4.1604,-4.1613,-4.1542,-4.1601,-4.1368,-4.1316,-4.1024,-4.062,-4.0463,-3.9932,-3.9468,-3.8808,-3.8005,-3.7684,-3.7666,-3.7612,-3.7613,-3.7613,-3.7613,-3.7613,-3.7613,-3.7649,-3.7613,-3.7632,-3.7721,-3.7811,-3.86,-3.8876,-3.9023,-3.9255,-3.9501,-3.9554,-3.9625,-3.9729,-3.9781,-3.9884,-3.9986,-4.0087,-4.0188,-4.0288,-4.0387,-4.0468,-4.0517,-4.0485,-4.0517,-4.0583,-4.0631,-4.0631,-4.0583,-4.0583,-4.0583,-4.0583,-4.0534,-4.0583,-4.0566,-4.0583,-4.0583,-4.0583,-4.0583,-4.0583,-4.0583,-4.0583,-4.0517,-4.0534,-4.0485,-4.0468,-4.03,-4.0251,-4.0116,-3.9934,-3.985,-3.9783,-3.9631,-3.9545,-3.9137,-3.8064,-3.7995,-3.8204,-3.8728,-3.8827,-3.8756,-3.8668,-3.8684,-3.875,-3.8805,-3.875,-3.875,-3.875,-3.875,-3.8805,-3.875,-3.8805,-3.8805,-3.8805,-3.8969,-3.9077,-3.9185,-3.9379,-3.9625,-3.9901,-4.0037,-4.0138,-4.0188,-4.0288,-4.0453,-4.0697,-4.0655,-4.0814,-4.1071,-4.1261,-4.1426,-4.1471,-4.1515,-4.156,-4.1604,-4.1648,-4.1736,-4.1788,-4.1856,-4.1977,-4.2032,-4.2062,-4.1658,-4.1306,-4.0574,-4.0003,-3.9486,-3.8754,-3.8112,-3.7791,-3.7773,-3.772,-3.7595,-3.7631,-3.7631,-3.7685,-3.7739,-3.7685,-3.7667,-3.7792,-3.7934,-3.9148,-3.9202,-3.9468,-3.9556,-3.9677,-3.9884,-3.9969,-4.0037,-4.0221,-4.0271,-4.0387,-4.037,-4.0419,-4.0419,-4.0534,-4.0534,-4.0648,-4.0648,-4.068,-4.0823,-4.084,-4.084,-4.0776,-4.0776,-4.0776,-4.0776,-4.0823,-4.0823,-4.0776,-4.0776,-4.084,-4.0776,-4.0776,-4.0823,-4.0776,-4.0776,-4.0728,-4.0697,-4.0648,-4.0583,-4.0534,-4.0534,-4.0485,-4.0387,-4.037,-4.0288,-4.0087,-4.0037,-3.98,-3.9373,-3.9113,-3.9056,-3.9098,-3.8969,-3.886,-3.886,-3.886,-3.8805,-3.8805,-3.886,-3.8805,-3.886,-3.886,-3.8805,-3.8805,-3.8914,-3.8969,-3.9023,-3.9202,-3.9415,-3.952,-3.9816,-3.9969,-4.0087,-4.0288,-4.0485,-4.0648,-4.0648,-4.0697,-4.0823,-4.0849,-4.0955,-4.1272,-4.145,-4.1523,-4.1577,-4.156,-4.1604,-4.1648,-4.1692,-4.178,-4.1909,-4.1995,-4.2079,-4.2181,-4.2246,-4.2109,-4.1841,-4.1252,-4.0824,-4.0289,-3.9631,-3.8988,-3.8435,-3.7951,-3.7899,-3.7954,-3.7667,-3.7703,-3.781,-3.7864,-3.7845,-3.7862,-3.7951,-3.8003,-3.9484,-3.959,-3.9781,-3.9935,-4.0037,-4.0188,-4.0271,-4.032,-4.0419,-4.0485,-4.0534,-4.0534,-4.0583,-4.06,-4.068,-4.0728,-4.0793,-4.0793,-4.084,-4.0871,-4.0888,-4.0871,-4.0871,-4.0871,-4.0871,-4.0871,-4.0871,-4.0871,-4.0871,-4.0871,-4.0871,-4.0871,-4.0871,-4.0871,-4.0871,-4.0918,-4.084,-4.0793,-4.0793,-4.0728,-4.068,-4.068,-4.0631,-4.06,-4.0534,-4.0436,-4.0271,-4.0271,-4.0221,-4.007,-3.9884,-3.9677,-3.952,-3.9345,-3.9222,-3.9239,-3.9239,-3.9239,-3.9222,-3.9239,-3.9239,-3.9239,-3.9239,-3.9239,-3.9239,-3.9292,-3.9345,-3.9362,-3.9468,-3.9677,-3.9884,-3.9969,-4.0121,-4.032,-4.0517,-4.0728,-4.0888,-4.084,-4.0871,-4.0995,-4.1082,-4.1192,-4.1398,-4.1541,-4.1585,-4.156,-4.1604,-4.1604,-4.1692,-4.178,-4.1849,-4.1934,-4.2019,-4.2145,-4.2246,-4.2287,-4.2287,-4.2126,-4.1912,-4.168,-4.1448,-4.0703,-3.992,-3.9365,-3.8811,-3.8527,-3.8456,-3.8169,-3.7882,-3.7898,-3.7933,-3.7985,-3.8038,-3.8072,-3.8124,-3.9746,-3.9935,-4.007,-4.0238,-4.0337,-4.0485,-4.0534,-4.0534,-4.0534,-4.0583,-4.0566,-4.0697,-4.0745,-4.0745,-4.084,-4.0888,-4.0888,-4.0888,-4.0888,-4.0871,-4.0871,-4.0918,-4.0935,-4.0935,-4.0965,-4.0918,-4.0935,-4.0935,-4.0935,-4.0918,-4.1012,-4.0965,-4.0965,-4.0965,-4.0965,-4.0965,-4.0965,-4.0948,-4.0965,-4.0948,-4.0948,-4.0901,-4.0871,-4.0823,-4.0728,-4.0662,-4.0631,-4.06,-4.0534,-4.0534,-4.0387,-4.0138,-3.9935,-3.9764,-3.9764,-3.9781,-3.9713,-3.9713,-3.9713,-3.9729,-3.9713,-3.9729,-3.9729,-3.9677,-3.9661,-3.9609,-3.9625,-3.9729,-3.9781,-3.9935,-4.0121,-4.0238,-4.032,-4.0534,-4.0776,-4.0935,-4.0965,-4.0965,-4.1071,-4.1146,-4.1237,-4.1363,-4.1408,-4.1533,-4.156,-4.1604,-4.1604,-4.1648,-4.1754,-4.1866,-4.1952,-4.2019,-4.2103,-4.2187,-4.2287,-4.2287,-4.2287,-4.2269,-4.2216,-4.2198,-4.2162,-4.1707,-4.0924,-4.0282,-3.9801,-3.9407,-3.8978,-3.8582,-3.8347,-3.8146,-3.8036,-3.8072,-3.8158,-3.8192,-3.821,-4.002,-4.0087,-4.032,-4.0485,-4.0485,-4.0583,-4.0697,-4.0697,-4.0793,-4.0823,-4.0823,-4.0888,-4.0888,-4.0888,-4.0871,-4.0871,-4.0918,-4.0918,-4.0935,-4.0918,-4.0918,-4.0965,-4.1029,-4.1047,-4.1076,-4.1152,-4.1123,-4.1093,-4.1076,-4.1088,-4.1134,-4.1117,-4.1117,-4.1117,-4.1134,-4.1163,-4.1117,-4.1117,-4.1134,-4.1117,-4.1117,-4.1117,-4.1134,-4.1071,-4.1024,-4.0995,-4.0965,-4.0888,-4.0776,-4.068,-4.0534,-4.0436,-4.032,-4.0171,-4.007,-4.002,-4.002,-4.002,-4.002,-4.002,-3.9986,-3.9884,-3.9901,-3.9833,-3.9781,-3.9729,-3.9833,-3.9935,-4.0087,-4.0238,-4.0419,-4.0485,-4.0631,-4.084,-4.0982,-4.114,-4.1244,-4.129,-4.129,-4.1346,-4.1408,-4.1426,-4.1515,-4.156,-4.1604,-4.1648,-4.1692,-4.1754,-4.1841,-4.1952,-4.2061,-4.2145,-4.2187,-4.2228,-4.2287,-4.2287,-4.2287,-4.2287,-4.2269,-4.231,-4.2292,-4.2351,-4.193,-4.1256,-4.0614,-4.0039,-3.959,-3.9175,-3.8776,-3.8486,-3.8339,-3.821,-3.8192,-3.8192,-3.8192,-4.0271,-4.032,-4.0534,-4.0583,-4.0631,-4.0728,-4.084,-4.0888,-4.1,-4.1029,-4.1059,-4.1041,-4.1041,-4.1041,-4.1041,-4.1041,-4.1041,-4.1041,-4.1059,-4.1041,-4.1041,-4.1088,-4.1152,-4.1152,-4.1198,-4.1226,-4.1244,-4.1215,-4.1152,-4.118,-4.1209,-4.1209,-4.1209,-4.1209,-4.1209,-4.1209,-4.1209,-4.1209,-4.1209,-4.1209,-4.1209,-4.1209,-4.1209,-4.1192,-4.1209,-4.1163,-4.1134,-4.1088,-4.1041,-4.0948,-4.0901,-4.0901,-4.0789,-4.0741,-4.0566,-4.037,-4.032,-4.032,-4.032,-4.0271,-4.0288,-4.0238,-4.0188,-4.0188,-4.0138,-4.0138,-4.0138,-4.0255,-4.0305,-4.0436,-4.0583,-4.0728,-4.084,-4.1,-4.114,-4.1261,-4.138,-4.1471,-4.1471,-4.1515,-4.1515,-4.1515,-4.156,-4.1604,-4.1604,-4.1648,-4.1754,-4.1797,-4.1884,-4.1995,-4.2145,-4.2187,-4.2228,-4.2269,-4.2287,-4.2287,-4.2287,-4.2287,-4.2287,-4.2328,-4.2387,-4.245,-4.244,-4.2163,-4.1519,-4.0817,-4.042,-4.0077,-3.9461,-3.8844,-3.8554,-3.8337,-3.8246,-3.8192,-3.8192,-4.0551,-4.0534,-4.0697,-4.0793,-4.0793,-4.0918,-4.1012,-4.1123,-4.114,-4.1152,-4.1209,-4.1209,-4.1209,-4.1192,-4.1192,-4.1209,-4.1209,-4.1209,-4.1209,-4.1163,-4.1163,-4.1209,-4.1272,-4.1255,-4.1255,-4.1363,-4.138,-4.138,-4.1272,-4.1318,-4.13,-4.13,-4.13,-4.13,-4.13,-4.13,-4.13,-4.13,-4.13,-4.13,-4.13,-4.13,-4.13,-4.13,-4.13,-4.13,-4.1318,-4.1272,-4.1209,-4.1209,-4.1209,-4.1163,-4.1209,-4.1209,-4.1024,-4.071,-4.0645,-4.0614,-4.0662,-4.0662,-4.0662,-4.0631,-4.0583,-4.0583,-4.0534,-4.0485,-4.0517,-4.0583,-4.0631,-4.068,-4.0823,-4.0918,-4.1012,-4.1169,-4.1307,-4.1426,-4.1471,-4.1515,-4.156,-4.156,-4.1604,-4.1604,-4.1604,-4.1604,-4.1604,-4.1754,-4.1797,-4.1927,-4.2012,-4.2079,-4.2187,-4.2246,-4.2287,-4.2287,-4.2287,-4.2287,-4.2287,-4.2287,-4.2328,-4.2328,-4.2409,-4.2548,-4.2519,-4.2564,-4.2371,-4.1722,-4.1343,-4.0836,-4.0148,-3.9478,-3.8862,-3.8464,-3.8301,-3.821,-3.8192,-4.0648,-4.0697,-4.0953,-4.1047,-4.1047,-4.1152,-4.1163,-4.1163,-4.1163,-4.1209,-4.1255,-4.1209,-4.1209,-4.1255,-4.1209,-4.1209,-4.1209,-4.1255,-4.1255,-4.1255,-4.1255,-4.1318,-4.138,-4.138,-4.1408,-4.1453,-4.156,-4.1515,-4.1408,-4.1453,-4.1515,-4.1498,-4.1498,-4.156,-4.1515,-4.1498,-4.156,-4.156,-4.156,-4.156,-4.156,-4.1542,-4.1542,-4.156,-4.156,-4.156,-4.1542,-4.1453,-4.1408,-4.1346,-4.1255,-4.1209,-4.1209,-4.1209,-4.1209,-4.1117,-4.1117,-4.1117,-4.1071,-4.1024,-4.0995,-4.0965,-4.0935,-4.0793,-4.0728,-4.0745,-4.0745,-4.084,-4.0935,-4.1012,-4.1041,-4.1117,-4.1226,-4.129,-4.138,-4.1471,-4.156,-4.156,-4.1604,-4.1604,-4.1604,-4.1604,-4.1604,-4.1648,-4.1648,-4.1754,-4.1902,-4.197,-4.2097,-4.2163,-4.2246,-4.2287,-4.2287,-4.2287,-4.2287,-4.2287,-4.2287,-4.2287,-4.2328,-4.2369,-4.245,-4.257,-4.2667,-4.2675,-4.2571,-4.241,-4.194,-4.1343,-4.0727,-4.0148,-3.9586,-3.8934,-3.8301,-3.8282,-3.8518,-4.0965,-4.0953,-4.1059,-4.1152,-4.1134,-4.1226,-4.1255,-4.1318,-4.1318,-4.1363,-4.1408,-4.1408,-4.1408,-4.1408,-4.1408,-4.1453,-4.1408,-4.1408,-4.1408,-4.1408,-4.1408,-4.1471,-4.1515,-4.1515,-4.156,-4.156,-4.1604,-4.156,-4.156,-4.156,-4.1604,-4.1604,-4.1604,-4.1648,-4.1692,-4.171,-4.1754,-4.1815,-4.1797,-4.1815,-4.1797,-4.1797,-4.1797,-4.1797,-4.1815,-4.1815,-4.1797,-4.1692,-4.1648,-4.1604,-4.1515,-4.1453,-4.1453,-4.1453,-4.1408,-4.1408,-4.1408,-4.1346,-4.1209,-4.1209,-4.1226,-4.118,-4.1088,-4.1041,-4.0995,-4.0995,-4.1012,-4.1059,-4.1088,-4.118,-4.1226,-4.1255,-4.1318,-4.138,-4.1471,-4.1515,-4.156,-4.1604,-4.1604,-4.1604,-4.1604,-4.1631,-4.1675,-4.1736,-4.178,-4.1823,-4.1952,-4.2037,-4.2121,-4.2205,-4.2246,-4.2287,-4.2287,-4.2287,-4.2287,-4.2287,-4.2287,-4.2328,-4.2405,-4.2427,-4.253,-4.2649,-4.2727,-4.2804,-4.2772,-4.2574,-4.2321,-4.1886,-4.1307,-4.0818,-4.0347,-3.9749,-3.9242,-3.9478,-3.9659,-4.1226,-4.1186,-4.1226,-4.1255,-4.1255,-4.13,-4.1363,-4.1471,-4.1471,-4.1515,-4.156,-4.1604,-4.1604,-4.1604,-4.1604,-4.156,-4.1604,-4.1604,-4.1604,-4.1604,-4.1604,-4.1604,-4.1604,-4.1604,-4.1604,-4.1604,-4.1648,-4.1648,-4.1666,-4.1692,-4.1692,-4.1648,-4.171,-4.1754,-4.1841,-4.1841,-4.1902,-4.1945,-4.1945,-4.1962,-4.1945,-4.1987,-4.1987,-4.2005,-4.2005,-4.2005,-4.1987,-4.1902,-4.1841,-4.1797,-4.1754,-4.171,-4.171,-4.171,-4.171,-4.171,-4.1648,-4.1542,-4.1436,-4.1346,-4.13,-4.13,-4.1255,-4.1226,-4.1163,-4.1209,-4.1209,-4.1226,-4.1255,-4.1272,-4.1318,-4.1408,-4.1426,-4.1471,-4.1515,-4.156,-4.1604,-4.1604,-4.1648,-4.1692,-4.1675,-4.1701,-4.1762,-4.1866,-4.1909,-4.1892,-4.1977,-4.2103,-4.2187,-4.2246,-4.2287,-4.2287,-4.2287,-4.2287,-4.2287,-4.2287,-4.2287,-4.2328,-4.2445,-4.2526,-4.2627,-4.2688,-4.2765,-4.2824,-4.29,-4.281,-4.2592,-4.2266,-4.1904,-4.1397,-4.0944,-4.0637,-4.0402,-4.0637,-4.0564,-4.138,-4.138,-4.138,-4.138,-4.1426,-4.1515,-4.156,-4.156,-4.156,-4.1604,-4.1604,-4.1604,-4.1604,-4.1604,-4.1604,-4.1604,-4.1604,-4.1604,-4.1604,-4.1604,-4.1604,-4.1604,-4.1604,-4.1604,-4.1604,-4.1648,-4.1692,-4.1736,-4.1797,-4.1884,-4.1884,-4.1823,-4.1902,-4.1962,-4.1987,-4.197,-4.1987,-4.2048,-4.2048,-4.2048,-4.2048,-4.2048,-4.203,-4.2005,-4.2005,-4.2005,-4.2005,-4.2005,-4.1987,-4.1987,-4.1945,-4.1902,-4.1902,-4.1902,-4.1902,-4.1902,-4.1841,-4.1754,-4.1692,-4.1604,-4.1542,-4.1515,-4.1471,-4.138,-4.13,-4.1255,-4.1255,-4.1363,-4.1363,-4.1471,-4.1515,-4.156,-4.156,-4.156,-4.156,-4.1604,-4.1648,-4.1648,-4.1692,-4.1736,-4.178,-4.1805,-4.1874,-4.1934,-4.1977,-4.1977,-4.2079,-4.2205,-4.2246,-4.2287,-4.2287,-4.2287,-4.2287,-4.2287,-4.2287,-4.2287,-4.2328,-4.2387,-4.2486,-4.2606,-4.2763,-4.2822,-4.2842,-4.2862,-4.29,-4.29,-4.2882,-4.2611,-4.2285,-4.1886,-4.1542,-4.1452,-4.1343,-4.1415,-4.118,-4.1515,-4.1515,-4.1515,-4.1515,-4.1515,-4.156,-4.1604,-4.1604,-4.1604,-4.1604,-4.1604,-4.1604,-4.1604,-4.1604,-4.1604,-4.1604,-4.1604,-4.1604,-4.1604,-4.1604,-4.1604,-4.1604,-4.1604,-4.1604,-4.1631,-4.1692,-4.1797,-4.1841,-4.1945,-4.203,-4.2037,-4.1995,-4.203,-4.2012,-4.2055,-4.2139,-4.2181,-4.2181,-4.2199,-4.2181,-4.2199,-4.2181,-4.2181,-4.2181,-4.2199,-4.2181,-4.2181,-4.2079,-4.2055,-4.2055,-4.2048,-4.2048,-4.203,-4.1987,-4.1987,-4.1987,-4.1945,-4.1945,-4.1902,-4.1754,-4.1604,-4.1604,-4.156,-4.1515,-4.1453,-4.1453,-4.1453,-4.1515,-4.1515,-4.156,-4.156,-4.1604,-4.1604,-4.1604,-4.1604,-4.1648,-4.171,-4.1692,-4.178,-4.1866,-4.1927,-4.197,-4.1977,-4.2044,-4.2044,-4.2086,-4.2145,-4.2246,-4.2287,-4.2287,-4.2287,-4.2287,-4.2287,-4.2287,-4.2287,-4.2328,-4.2346,-4.2445,-4.2526,-4.2685,-4.2783,-4.2842,-4.29,-4.29,-4.29,-4.29,-4.29,-4.29,-4.2683,-4.2357,-4.2321,-4.2393,-4.234,-4.2159,-4.1923,-4.171,-4.171,-4.171,-4.1648,-4.1604,-4.1604,-4.1604,-4.1604,-4.1604,-4.1604,-4.1604,-4.1604,-4.1604,-4.1604,-4.1604,-4.1604,-4.1604,-4.1604,-4.1604,-4.1604,-4.1604,-4.1604,-4.1648,-4.1692,-4.1736,-4.1823,-4.1909,-4.197,-4.2012,-4.2163,-4.2222,-4.2222,-4.2181,-4.2222,-4.2264,-4.2328,-4.2409,-4.2409,-4.2409,-4.2369,-4.2409,-4.2409,-4.2369,-4.2369,-4.2369,-4.2369,-4.2369,-4.2287,-4.2264,-4.2222,-4.2181,-4.2115,-4.2115,-4.2072,-4.2072,-4.2072,-4.2072,-4.203,-4.1987,-4.1841,-4.171,-4.1754,-4.1692,-4.1648,-4.1648,-4.1648,-4.156,-4.1604,-4.1604,-4.1604,-4.1604,-4.1604,-4.1648,-4.1648,-4.1692,-4.1736,-4.1797,-4.1858,-4.1927,-4.2012,-4.2012,-4.2037,-4.2121,-4.2145,-4.2145,-4.2187,-4.2228,-4.2287,-4.2287,-4.2287,-4.2287,-4.2287,-4.2287,-4.2287,-4.2287,-4.2346,-4.2445,-4.2548,-4.2627,-4.2745,-4.2804,-4.2862,-4.29,-4.29,-4.29,-4.29,-4.29,-4.29,-4.29,-4.2846,-4.281,-4.2737,-4.2719,-4.2575,-4.2684,-4.1987,-4.2005,-4.1945,-4.1841,-4.1648,-4.1604,-4.1604,-4.1648,-4.1648,-4.1648,-4.1648,-4.1648,-4.1604,-4.1604,-4.1604,-4.1604,-4.1604,-4.1604,-4.1604,-4.1604,-4.1648,-4.1692,-4.1736,-4.178,-4.1841,-4.1987,-4.2055,-4.2079,-4.2121,-4.2323,-4.2422,-4.2486,-4.249,-4.2508,-4.2486,-4.2548,-4.2609,-4.2627,-4.257,-4.2609,-4.257,-4.257,-4.257,-4.253,-4.253,-4.2512,-4.253,-4.2468,-4.2427,-4.2405,-4.2328,-4.2305,-4.2287,-4.2287,-4.2264,-4.2264,-4.2163,-4.2121,-4.2079,-4.203,-4.1987,-4.1902,-4.1841,-4.1797,-4.1797,-4.1692,-4.1648,-4.171,-4.1648,-4.1666,-4.1604,-4.1648,-4.171,-4.1754,-4.1797,-4.1823,-4.1927,-4.197,-4.2012,-4.2079,-4.2103,-4.2145,-4.2246,-4.2287,-4.2287,-4.2287,-4.2287,-4.2287,-4.2287,-4.2287,-4.2287,-4.2287,-4.2287,-4.2287,-4.2328,-4.2405,-4.2486,-4.2588,-4.2688,-4.2783,-4.2842,-4.29,-4.29,-4.29,-4.29,-4.29,-4.29,-4.29,-4.29,-4.29,-4.29,-4.2864,-4.29,-4.29,-4.29,-4.2005,-4.2005,-4.2005,-4.1945,-4.1858,-4.1858,-4.1858,-4.1858,-4.1858,-4.1858,-4.1841,-4.1797,-4.1754,-4.171,-4.1648,-4.1604,-4.1604,-4.1604,-4.1604,-4.1604,-4.171,-4.1736,-4.1823,-4.1884,-4.197,-4.2055,-4.2121,-4.2205,-4.2364,-4.2503,-4.2526,-4.2588,-4.2727,-4.2727,-4.2627,-4.2649,-4.2745,-4.2745,-4.2765,-4.2786,-4.2745,-4.2745,-4.2706,-4.2649,-4.2649,-4.2649,-4.2649,-4.2627,-4.2588,-4.2606,-4.249,-4.249,-4.245,-4.245,-4.2445,-4.2387,-4.2305,-4.2246,-4.2246,-4.2181,-4.2115,-4.203,-4.1945,-4.1945,-4.1902,-4.1919,-4.1876,-4.1858,-4.1797,-4.1858,-4.1858,-4.1858,-4.1902,-4.1902,-4.1945,-4.197,-4.2012,-4.2037,-4.2103,-4.2205,-4.2228,-4.2228,-4.2287,-4.2287,-4.2287,-4.2287,-4.2287,-4.2287,-4.2287,-4.2287,-4.2287,-4.2287,-4.2287,-4.2287,-4.2328,-4.2445,-4.2508,-4.2609,-4.2688,-4.2822,-4.288,-4.29,-4.29,-4.29,-4.29,-4.29,-4.29,-4.29,-4.29,-4.29,-4.29,-4.29,-4.29,-4.29,-4.29,-4.2115,-4.2097,-4.2115,-4.2115,-4.2072,-4.2048,-4.2005,-4.2005,-4.2005,-4.2005,-4.1945,-4.1902,-4.1884,-4.1841,-4.1797,-4.1754,-4.1754,-4.1754,-4.1754,-4.1754,-4.1841,-4.1884,-4.1927,-4.2012,-4.2079,-4.2163,-4.2264,-4.2364,-4.2463,-4.2566,-4.2685,-4.2822,-4.29,-4.2956,-4.288,-4.2918,-4.2956,-4.2956,-4.2975,-4.2994,-4.2956,-4.2918,-4.2936,-4.2842,-4.2824,-4.2824,-4.2804,-4.2804,-4.2765,-4.2727,-4.2688,-4.2649,-4.2627,-4.2588,-4.2526,-4.2508,-4.2445,-4.2387,-4.2364,-4.2287,-4.2222,-4.2139,-4.2055,-4.2012,-4.203,-4.1987,-4.2005,-4.2005,-4.2005,-4.2005,-4.2005,-4.2005,-4.203,-4.203,-4.2055,-4.2097,-4.2121,-4.2145,-4.2145,-4.2287,-4.2287,-4.2287,-4.2287,-4.2287,-4.2287,-4.2287,-4.2287,-4.2287,-4.2287,-4.2287,-4.2287,-4.2287,-4.2328,-4.2328,-4.2387,-4.2486,-4.2588,-4.2631,-4.2747,-4.286,-4.288,-4.29,-4.29,-4.29,-4.29,-4.29,-4.29,-4.29,-4.29,-4.29,-4.29,-4.29,-4.29,-4.29,-4.29,-4.2287,-4.2287,-4.2287,-4.2287,-4.2264,-4.2115,-4.203,-4.1987,-4.1987,-4.203,-4.2005,-4.203,-4.1987,-4.1987,-4.1987,-4.1945,-4.1945,-4.1962,-4.1962,-4.1945,-4.1987,-4.2012,-4.2079,-4.2103,-4.2163,-4.2305,-4.2405,-4.2445,-4.2526,-4.2724,-4.2917,-4.3049,-4.316,-4.316,-4.3196,-4.3214,-4.3214,-4.3196,-4.3251,-4.3251,-4.3232,-4.3214,-4.3196,-4.3142,-4.3105,-4.3105,-4.3087,-4.3086,-4.2994,-4.2956,-4.2842,-4.2765,-4.2706,-4.2649,-4.2609,-4.2588,-4.2526,-4.2503,-4.2503,-4.2387,-4.2346,-4.2264,-4.2163,-4.2103,-4.2121,-4.2097,-4.2072,-4.2072,-4.2072,-4.2048,-4.2048,-4.203,-4.2072,-4.2097,-4.2121,-4.2163,-4.2246,-4.2287,-4.2287,-4.2287,-4.2287,-4.2287,-4.2287,-4.2287,-4.2287,-4.2287,-4.2287,-4.2287,-4.2287,-4.2287,-4.2287,-4.2287,-4.2328,-4.2387,-4.2427,-4.2566,-4.2627,-4.2727,-4.2786,-4.29,-4.29,-4.29,-4.29,-4.29,-4.29,-4.29,-4.29,-4.29,-4.29,-4.29,-4.29,-4.29,-4.29,-4.29,-4.29,-4.2287,-4.2287,-4.2287,-4.2287,-4.2287,-4.2264,-4.224,-4.2222,-4.2222,-4.2205,-4.2205,-4.2121,-4.2097,-4.2079,-4.203,-4.1987,-4.1987,-4.2005,-4.2005,-4.203,-4.2072,-4.2079,-4.2121,-4.2205,-4.2246,-4.2346,-4.2445,-4.2526,-4.2627,-4.286,-4.3104,-4.3269,-4.3358,-4.341,-4.3497,-4.3584,-4.3497,-4.3463,-4.355,-4.3532,-4.3479,-4.3479,-4.3444,-4.341,-4.3321,-4.3321,-4.3304,-4.3251,-4.3178,-4.3142,-4.3105,-4.3068,-4.3068,-4.2974,-4.2936,-4.2745,-4.2627,-4.2588,-4.2548,-4.2486,-4.2445,-4.2405,-4.2305,-4.2246,-4.2246,-4.2205,-4.2181,-4.2181,-4.2199,-4.2157,-4.2157,-4.2181,-4.2181,-4.2163,-4.2205,-4.2246,-4.2287,-4.2287,-4.2287,-4.2287,-4.2287,-4.2287,-4.2287,-4.2287,-4.2287,-4.2287,-4.2287,-4.2287,-4.2287,-4.2287,-4.2346,-4.2346,-4.2387,-4.2445,-4.2526,-4.2645,-4.2724,-4.2783,-4.288,-4.29,-4.29,-4.29,-4.29,-4.29,-4.29,-4.29,-4.29,-4.29,-4.29,-4.29,-4.29,-4.29,-4.29,-4.29,-4.29,-4.2287,-4.2287,-4.2287,-4.2287,-4.2287,-4.2287,-4.2287,-4.2287,-4.2287,-4.2287,-4.2305,-4.2205,-4.2187,-4.2163,-4.2139,-4.2115,-4.2139,-4.2157,-4.2157,-4.2139,-4.2181,-4.2163,-4.2246,-4.2246,-4.2346,-4.2387,-4.2468,-4.2588,-4.2727,-4.2956,-4.3214,-4.3393,-4.3497,-4.36,-4.3667,-4.3753,-4.3753,-4.3719,-4.3701,-4.3734,-4.3734,-4.3682,-4.3667,-4.3634,-4.3513,-4.3513,-4.3479,-4.3428,-4.3428,-4.3375,-4.3356,-4.3304,-4.3268,-4.3178,-4.3123,-4.2956,-4.2786,-4.2747,-4.2727,-4.2588,-4.2548,-4.2526,-4.2427,-4.2387,-4.2328,-4.2305,-4.2305,-4.2287,-4.2287,-4.2287,-4.2287,-4.2287,-4.2287,-4.2287,-4.2287,-4.2287,-4.2287,-4.2287,-4.2287,-4.2287,-4.2287,-4.2287,-4.2287,-4.2287,-4.2287,-4.2287,-4.2328,-4.2346,-4.2346,-4.2346,-4.2387,-4.2405,-4.2463,-4.2503,-4.2624,-4.2724,-4.2783,-4.2842,-4.288,-4.29,-4.29,-4.29,-4.29,-4.29,-4.29,-4.29,-4.29,-4.29,-4.29,-4.29,-4.29,-4.29,-4.29,-4.29,-4.29,-4.2328,-4.2328,-4.2328,-4.2328,-4.2328,-4.2328,-4.2328,-4.2328,-4.2346,-4.231,-4.2287,-4.2287,-4.2269,-4.2246,-4.2246,-4.2246,-4.2246,-4.2264,-4.2264,-4.2305,-4.2246,-4.2287,-4.2287,-4.2287,-4.2346,-4.2486,-4.2588,-4.2688,-4.2899,-4.3123,-4.3322,-4.3479,-4.3582,-4.3667,-4.3786,-4.3915,-4.3947,-4.3947,-4.3915,-4.3902,-4.3869,-4.3818,-4.3818,-4.3837,-4.3837,-4.3818,-4.3804,-4.3804,-4.3753,-4.3649,-4.3579,-4.3495,-4.3444,-4.3304,-4.3232,-4.316,-4.3013,-4.2938,-4.2862,-4.2747,-4.2688,-4.2627,-4.2566,-4.2526,-4.2468,-4.2328,-4.2328,-4.2287,-4.2287,-4.2287,-4.2287,-4.2287,-4.2287,-4.2287,-4.2287,-4.2287,-4.2287,-4.2287,-4.2287,-4.2287,-4.2287,-4.2287,-4.2287,-4.2287,-4.2346,-4.2328,-4.2346,-4.2405,-4.2427,-4.2427,-4.2427,-4.2486,-4.2584,-4.2624,-4.2724,-4.2783,-4.2842,-4.288,-4.29,-4.29,-4.29,-4.29,-4.29,-4.29,-4.29,-4.29,-4.29,-4.29,-4.29,-4.29,-4.29,-4.29,-4.29,-4.29,-4.29,-4.2468,-4.2512,-4.253,-4.253,-4.2512,-4.253,-4.2512,-4.253,-4.2486,-4.2387,-4.2328,-4.2287,-4.2287,-4.2287,-4.2287,-4.2287,-4.2287,-4.2287,-4.2287,-4.2287,-4.2287,-4.2287,-4.2287,-4.2328,-4.2387,-4.2486,-4.2588,-4.2804,-4.3031,-4.3269,-4.3446,-4.36,-4.3667,-4.3786,-4.3883,-4.4011,-4.4073,-4.4104,-4.4135,-4.4123,-4.4092,-4.4153,-4.4184,-4.4135,-4.4085,-4.4005,-4.3942,-4.3897,-4.3851,-4.3786,-4.3734,-4.3701,-4.3667,-4.3513,-4.3444,-4.3375,-4.3251,-4.316,-4.3087,-4.2938,-4.2862,-4.2783,-4.2724,-4.2627,-4.253,-4.2369,-4.2346,-4.2364,-4.2287,-4.2287,-4.2287,-4.2287,-4.2287,-4.2287,-4.2287,-4.2287,-4.2287,-4.2287,-4.2287,-4.2287,-4.2287,-4.2328,-4.2328,-4.2328,-4.2346,-4.2405,-4.2445,-4.2486,-4.2548,-4.253,-4.257,-4.2627,-4.2667,-4.2763,-4.2822,-4.2842,-4.288,-4.29,-4.29,-4.29,-4.29,-4.29,-4.29,-4.29,-4.29,-4.29,-4.29,-4.29,-4.29,-4.29,-4.29,-4.29,-4.29,-4.29,-4.29,-4.2588,-4.2609,-4.2609,-4.2609,-4.2609,-4.2609,-4.2609,-4.2627,-4.2548,-4.2508,-4.2409,-4.2369,-4.2287,-4.2287,-4.2287,-4.2287,-4.2287,-4.2287,-4.2287,-4.2287,-4.2287,-4.2287,-4.2287,-4.2346,-4.2468,-4.2566,-4.2763,-4.3012,-4.3214,-4.3393,-4.3497,-4.3686,-4.3786,-4.3915,-4.4029,-4.4153,-4.4214,-4.4244,-4.4314,-4.4314,-4.4304,-4.4304,-4.4333,-4.4285,-4.4237,-4.4158,-4.4128,-4.4085,-4.4055,-4.4011,-4.3929,-4.3897,-4.3832,-4.3701,-4.3634,-4.3566,-4.3463,-4.3339,-4.3268,-4.316,-4.3031,-4.3029,-4.3315,-4.3325,-4.3422,-4.3342,-4.3064,-4.2969,-4.2499,-4.2387,-4.2387,-4.2387,-4.2328,-4.2287,-4.2287,-4.2287,-4.2287,-4.2287,-4.2346,-4.2405,-4.2387,-4.2374,-4.2391,-4.249,-4.2508,-4.2508,-4.2548,-4.2588,-4.2667,-4.2688,-4.267,-4.2709,-4.2765,-4.2804,-4.2862,-4.2862,-4.29,-4.29,-4.29,-4.29,-4.29,-4.29,-4.29,-4.29,-4.29,-4.29,-4.29,-4.29,-4.29,-4.29,-4.29,-4.29,-4.29,-4.29,-4.29,-4.2649,-4.2631,-4.2631,-4.2649,-4.2631,-4.2649,-4.2649,-4.2649,-4.2609,-4.2609,-4.2609,-4.245,-4.2369,-4.2328,-4.2328,-4.2346,-4.2328,-4.2287,-4.2287,-4.2287,-4.2328,-4.2346,-4.2387,-4.2427,-4.2548,-4.2706,-4.2918,-4.3068,-4.3214,-4.3393,-4.36,-4.3786,-4.3902,-4.4011,-4.4153,-4.4214,-4.4244,-4.4314,-4.4373,-4.443,-4.4401,-4.4354,-4.4344,-4.4362,-4.4314,-4.4314,-4.4314,-4.4296,-4.4296,-4.4237,-4.4116,-4.4085,-4.3992,-4.3915,-4.3851,-4.3786,-4.3652,-4.3566,-4.3497,-4.3339,-4.3342,-4.3469,-4.3921,-4.4168,-4.4288,-4.4263,-4.3967,-4.3692,-4.318,-4.2902,-4.288,-4.2803,-4.2744,-4.2744,-4.2744,-4.2744,-4.2744,-4.2726,-4.2785,-4.2826,-4.2665,-4.2651,-4.2709,-4.2807,-4.2699,-4.2681,-4.2667,-4.2706,-4.2765,-4.2765,-4.2786,-4.2786,-4.2842,-4.2862,-4.2882,-4.2882,-4.29,-4.29,-4.29,-4.29,-4.29,-4.29,-4.29,-4.29,-4.29,-4.29,-4.29,-4.29,-4.29,-4.29,-4.29,-4.29,-4.29,-4.29,-4.29,-4.2804,-4.2844,-4.2844,-4.2844,-4.2862,-4.2824,-4.2862,-4.2824,-4.2765,-4.2783,-4.2727,-4.2609,-4.253,-4.253,-4.2486,-4.2463,-4.2427,-4.2369,-4.2328,-4.2287,-4.2427,-4.2445,-4.2486,-4.2548,-4.2649,-4.2804,-4.3031,-4.3178,-4.3286,-4.3463,-4.3634,-4.3804,-4.3883,-4.4011,-4.4184,-4.4244,-4.4314,-4.4373,-4.443,-4.4487,-4.4487,-4.4458,-4.4458,-4.4458,-4.4458,-4.4411,-4.4383,-4.4383,-4.4344,-4.4314,-4.4237,-4.4237,-4.4177,-4.4104,-4.3992,-4.3929,-4.38,-4.3845,-4.3796,-4.3716,-4.3758,-4.4345,-4.4729,-4.4871,-4.5067,-4.5352,-4.5204,-4.52,-4.4755,-4.4484,-4.4366,-4.4294,-4.4217,-4.4217,-4.4217,-4.4217,-4.4217,-4.4199,-4.4199,-4.3858,-4.3381,-4.3463,-4.3562,-4.3458,-4.3134,-4.3062,-4.2961,-4.3021,-4.3023,-4.2989,-4.2899,-4.2862,-4.2862,-4.29,-4.29,-4.29,-4.29,-4.29,-4.29,-4.29,-4.29,-4.29,-4.29,-4.29,-4.29,-4.29,-4.29,-4.29,-4.29,-4.29,-4.29,-4.29,-4.29,-4.29,-4.29]}]]